GFSWCAN_con_3kmhel_000.txt.gz
Helicity
181 223 195 130 100 92 99 110 118 107 101 103 114 132 145 148 151 114 100 103 91 92 69 76 77 95 105 95 99 86 107 107 134 144 118 91 93 79 97 126 143 150 187 140 134 152 112 140 135 150 177 150 150 128
135 166 229 140 122 91 94 96 107 113 105 88 94 121 138 145 149 118 101 103 112 97 79 87 94 106 108 86 119 103 130 98 116 143 105 112 118 131 122 135 169 163 170 167 210 177 119 91 114 135 167 172 144 180
140 144 128 191 132 105 99 95 88 88 97 86 78 100 128 139 144 120 102 107 111 111 113 101 98 108 121 129 117 135 137 137 128 137 128 141 149 158 181 156 172 219 167 226 191 118 52 95 125 146 179 167 163 95
103 137 189 148 146 107 97 88 85 83 82 85 80 88 116 146 152 124 120 120 132 125 121 112 113 133 143 116 115 132 129 168 165 154 176 172 173 123 196 185 221 187 170 156 115 66 92 127 161 181 136 122 41 36
71 91 147 166 147 143 103 83 87 86 88 90 85 85 108 134 156 145 141 143 148 144 93 125 152 165 173 135 108 113 120 160 181 199 208 185 187 208 275 311 230 106 79 187 206 141 160 149 153 71 31 42 80 98
48 68 73 155 181 178 119 79 79 88 97 88 92 99 104 127 162 158 139 134 161 163 158 132 148 172 166 128 117 128 131 173 192 180 190 199 210 188 279 319 160 99 124 149 165 199 125 135 161 132 128 145 130 116
57 55 58 76 143 168 173 127 99 107 116 95 92 97 113 139 168 197 195 158 167 171 159 142 122 199 231 220 222 181 179 180 166 173 219 232 238 245 359 289 163 184 221 268 251 168 136 136 154 153 139 119 100 82
75 63 57 53 93 143 122 174 152 122 131 122 92 107 121 142 137 162 178 162 152 164 183 182 187 197 151 169 173 168 177 169 168 211 281 290 283 283 299 219 225 225 220 226 140 123 119 158 146 107 82 89 85 69
91 80 69 59 68 111 134 115 142 101 117 126 166 146 175 183 196 177 148 171 178 179 180 219 244 169 193 215 189 183 191 200 236 296 309 227 285 291 220 205 230 186 127 41 108 143 136 141 118 99 83 68 79 80
89 88 81 72 67 77 115 110 149 126 152 205 336 310 287 209 155 141 172 162 190 222 258 244 257 266 178 208 227 213 214 213 220 239 231 289 338 290 210 221 182 129 35 113 149 131 116 100 94 79 63 75 88 104
91 84 76 74 72 87 80 82 104 110 243 250 343 304 218 255 254 201 232 227 207 280 214 296 317 318 372 270 309 261 250 284 300 278 291 307 249 167 187 177 167 157 143 154 173 156 108 92 85 87 91 105 115 110
99 78 87 90 72 78 68 37 192 196 263 365 338 389 447 356 314 226 301 268 225 242 206 234 291 345 343 294 329 262 326 239 318 273 292 292 192 194 195 188 154 157 182 193 143 116 99 96 103 109 111 109 114 113
99 99 78 75 64 45 33 66 171 125 251 348 356 371 293 243 279 294 366 453 370 312 256 242 311 325 256 238 256 195 253 297 211 258 299 235 176 141 135 147 156 197 192 141 112 101 96 96 113 126 121 113 121 106
85 103 79 73 84 30 27 36 117 99 106 262 347 442 370 267 349 361 387 381 337 321 320 347 350 223 138 188 192 236 253 241 281 291 179 164 128 140 150 181 211 184 150 113 98 93 102 117 118 128 133 130 122 109
88 109 66 57 48 67 78 97 101 64 60 121 235 363 386 273 197 234 185 210 206 130 166 170 164 128 152 156 181 212 238 253 159 117 139 139 148 154 169 181 155 112 102 105 96 111 126 126 128 123 117 110 111 123
87 99 65 41 26 83 111 100 59 44 76 62 72 80 67 69 83 88 76 89 71 91 106 104 120 126 182 206 218 215 247 174 151 148 158 164 142 135 137 120 99 97 101 104 102 105 122 132 140 108 100 103 106 111
38 116 44 48 65 123 132 118 129 106 65 88 86 87 61 54 27 37 47 53 53 72 92 83 78 127 124 131 160 153 143 154 178 191 162 143 134 109 109 96 94 97 97 99 105 123 122 134 135 113 89 61 70 82
54 111 36 53 55 88 119 146 126 138 116 95 85 70 81 77 65 71 69 80 80 71 83 110 116 133 129 116 103 110 125 161 129 155 162 123 79 65 92 88 84 87 92 108 142 126 124 127 105 89 78 58 57 64
38 76 53 56 96 72 77 96 112 121 118 92 80 71 74 74 89 92 93 100 115 116 126 126 113 100 87 80 95 108 110 123 131 99 83 63 63 80 85 80 91 96 107 119 116 115 108 100 92 91 77 70 79 82
46 62 109 159 159 127 85 90 91 76 71 75 76 79 84 87 88 94 99 104 106 107 123 123 107 81 64 64 73 98 106 85 67 64 71 72 66 60 77 89 99 95 108 97 102 117 109 90 78 78 77 85 91 85
163 196 269 268 257 228 132 105 101 91 74 85 80 83 81 84 89 87 97 114 126 144 110 81 84 76 84 93 86 84 77 77 82 92 78 77 84 95 81 76 72 88 95 99 107 102 109 91 80 86 97 98 89 84
174 214 260 262 209 111 73 83 80 72 72 64 63 76 75 75 80 95 96 106 122 100 102 104 83 79 79 68 61 56 50 70 74 84 89 88 91 90 78 73 81 94 94 109 105 133 121 105 92 86 89 85 73 74
230 262 202 107 71 67 63 96 87 98 79 83 89 99 102 99 103 95 88 75 60 50 61 64 68 66 56 57 62 54 67 68 74 86 96 101 95 96 94 88 87 98 104 108 134 157 144 122 97 90 89 83 79 70
195 140 108 88 70 65 69 82 89 106 109 109 99 104 99 106 95 95 84 67 51 66 61 57 71 70 68 60 55 46 54 70 85 102 112 113 102 86 80 82 85 102 110 116 141 168 160 135 102 77 88 80 68 70
134 131 88 85 88 80 80 84 98 99 111 108 115 108 97 89 94 84 76 64 47 37 46 57 69 80 82 78 61 24 30 79 98 97 89 79 80 78 72 68 72 92 89 96 109 124 120 107 85 77 80 74 53 47
80 79 80 60 71 78 80 84 84 98 110 117 98 113 100 107 107 86 61 41 43 76 129 146 131 112 102 85 64 54 67 111 146 146 102 89 86 91 83 67 65 67 69 78 92 98 94 87 70 65 70 59 55 53
72 63 62 75 79 76 87 103 111 94 91 86 89 96 95 106 69 57 76 96 131 203 203 163 127 99 83 73 81 96 109 114 129 133 123 113 99 110 111 95 88 124 115 95 96 94 80 70 66 62 61 61 63 68
58 44 48 47 71 61 58 41 49 53 64 62 71 72 79 73 95 131 159 165 166 152 135 119 114 108 90 108 113 111 114 121 106 89 87 93 109 153 183 148 135 124 109 116 104 90 71 68 78 72 63 65 77 81
41 36 55 56 55 37 26 38 47 52 73 88 91 89 105 157 169 178 160 144 121 114 114 106 108 108 109 127 144 167 163 132 105 106 104 91 114 211 164 129 119 109 100 91 96 96 91 91 86 76 83 94 106 112
21 12 51 60 56 49 68 61 81 91 82 102 112 126 141 164 177 171 164 161 154 122 100 80 74 64 62 71 85 123 154 137 108 93 96 119 118 107 103 102 104 96 94 102 98 82 75 78 84 100 122 139 143 141
47 38 48 52 55 73 88 89 88 99 111 119 132 128 155 182 212 232 228 167 138 113 111 137 116 96 107 124 127 126 125 118 105 99 103 86 86 91 94 92 91 94 97 90 72 67 69 74 95 114 137 148 146 142
54 55 60 66 69 85 90 100 106 111 114 106 116 158 164 194 211 200 205 158 134 147 134 109 115 128 104 84 83 79 68 57 54 56 66 63 64 71 69 72 73 64 58 57 62 69 81 102 112 118 129 137 135 145
61 71 86 89 92 83 89 87 106 89 80 103 132 149 177 192 188 146 89 93 72 71 73 70 65 53 60 86 87 75 70 62 59 53 58 54 53 49 40 42 42 46 53 62 76 90 106 115 127 126 125 130 141 149

GFSWCAN_con_3kmhel_003.txt.gz
Helicity
305 213 145 124 106 110 111 111 122 130 121 115 118 122 139 161 165 132 94 98 114 109 93 123 117 98 112 86 102 128 140 142 146 147 131 127 147 119 117 99 102 87 106 125 178 203 160 135 170 209 126 108 180 113
220 255 202 144 129 113 117 107 110 124 129 125 126 130 133 151 170 136 96 98 125 106 95 109 106 116 150 146 117 70 143 97 106 145 150 150 158 152 151 152 89 83 100 131 210 190 108 111 119 58 124 150 136 122
164 216 236 154 130 111 101 102 110 109 113 116 123 130 135 135 161 153 104 102 103 106 101 86 97 105 101 127 118 113 133 137 122 185 151 159 173 139 184 141 104 82 59 236 188 119 64 70 63 190 210 117 123 70
107 95 158 198 150 116 100 93 96 99 99 111 116 125 130 134 143 144 125 108 122 111 103 99 90 122 136 130 130 146 150 174 179 163 194 197 196 110 184 136 142 91 106 130 140 63 74 58 182 197 124 95 76 55
86 118 141 171 195 180 113 101 88 86 88 94 110 115 130 136 148 125 114 120 131 137 80 102 149 123 142 134 121 117 105 124 163 190 220 189 188 187 230 237 159 95 76 119 134 155 165 167 204 117 61 100 105 155
60 75 103 142 192 186 176 127 94 84 83 85 94 100 118 149 173 124 101 99 136 166 133 126 129 137 148 140 131 123 115 130 127 161 187 182 155 168 228 270 167 187 123 128 152 178 239 177 121 75 89 108 158 160
67 51 66 88 137 198 219 189 108 86 78 89 92 88 107 154 181 181 192 155 182 186 178 155 118 209 225 229 236 194 214 161 162 176 192 229 197 189 260 292 178 163 126 167 146 167 160 94 61 134 107 130 112 107
83 83 69 75 101 140 193 235 166 100 93 102 95 107 110 129 150 167 176 163 187 187 205 196 201 199 191 266 250 283 230 209 182 212 248 214 196 261 301 237 146 116 175 169 184 135 61 116 159 109 87 116 140 110
88 93 93 83 82 100 138 199 205 144 107 113 118 102 144 157 178 189 139 180 190 223 208 234 251 201 204 295 270 223 197 198 220 229 238 231 303 350 225 124 194 186 155 139 109 113 107 103 98 128 147 125 106 86
94 98 94 97 101 103 93 116 174 156 156 174 220 209 196 193 157 116 195 199 219 230 237 233 294 305 232 243 247 240 221 214 224 218 254 295 353 238 240 222 238 146 118 137 160 147 125 119 148 135 117 95 94 110
92 115 116 107 104 98 85 91 86 106 145 243 285 236 292 291 314 263 246 240 274 276 221 302 335 348 346 341 305 270 253 258 266 245 300 304 332 171 199 212 154 164 159 174 179 182 146 142 117 103 96 105 113 112
80 111 118 117 111 94 70 105 105 171 202 262 269 299 285 296 352 246 352 389 324 254 312 288 411 411 408 383 339 283 342 278 306 311 364 384 288 232 151 157 199 180 174 184 156 139 126 107 104 106 100 101 109 131
63 77 93 110 101 85 66 104 152 138 212 298 329 312 389 334 377 353 381 523 511 388 344 387 459 396 371 296 304 264 297 391 410 482 419 352 304 156 183 176 173 173 215 169 136 132 116 95 110 116 113 114 128 120
61 69 68 94 95 59 46 52 123 102 87 147 170 243 299 261 292 286 422 427 398 395 434 439 448 390 389 387 318 376 473 432 479 466 316 238 154 144 179 154 134 164 157 136 125 104 93 99 104 123 139 137 142 131
67 70 59 68 101 55 81 78 88 72 92 131 168 193 242 208 184 250 321 298 324 276 329 429 469 370 497 481 375 417 417 466 324 294 238 131 149 155 144 153 158 141 119 107 95 87 103 116 120 114 126 128 117 139
64 47 56 58 75 97 68 67 84 45 65 88 126 142 87 157 186 180 190 240 162 165 171 203 299 292 272 216 236 251 305 315 193 152 117 121 132 141 117 101 110 120 104 79 77 82 101 121 130 107 122 125 124 115
81 60 80 76 82 91 101 50 45 54 44 51 67 69 61 52 47 69 54 52 33 62 105 107 107 115 104 116 144 142 142 167 115 96 135 175 153 116 87 95 116 95 74 72 74 76 86 113 134 133 108 76 89 115
87 95 58 46 52 81 69 100 99 92 83 81 52 17 10 19 16 15 5 9 19 22 44 75 66 82 94 112 92 93 93 90 115 128 136 136 103 72 58 52 59 63 66 74 97 97 103 120 109 95 73 71 97 81
73 81 51 74 120 95 36 84 129 112 116 87 66 41 26 25 56 56 51 68 58 61 56 62 64 58 60 77 96 91 110 115 110 106 99 77 65 69 67 57 62 62 67 70 81 95 95 95 95 89 99 93 83 101
65 79 71 104 137 93 78 76 74 107 87 95 81 69 72 64 65 77 78 85 79 75 76 78 84 74 80 101 106 122 117 108 97 81 72 70 66 58 50 60 68 65 73 72 80 88 83 80 83 92 104 108 118 98
97 74 125 164 198 126 101 85 101 100 97 80 76 76 82 80 77 75 76 86 84 90 77 50 57 70 99 114 106 97 78 74 77 80 69 65 57 67 69 69 66 81 83 94 110 101 101 109 104 116 159 139 122 101
97 138 123 195 162 148 120 100 114 98 101 87 88 73 73 63 66 77 81 83 93 68 62 55 58 66 69 60 71 71 72 73 59 58 58 55 54 54 66 81 82 81 80 107 99 132 138 119 135 170 155 136 113 87
134 136 145 199 121 115 119 160 128 116 106 81 72 72 67 71 93 87 89 87 60 46 51 60 79 86 76 79 78 66 58 54 61 58 68 70 75 85 91 91 87 117 132 104 82 102 115 123 140 147 138 122 92 77
186 189 185 246 192 156 163 132 96 87 80 64 68 75 82 104 91 97 95 59 50 75 75 68 70 74 74 77 81 103 118 93 61 32 47 66 85 91 97 110 113 118 114 108 109 105 116 132 122 113 110 100 90 82
196 175 186 214 197 132 89 78 83 78 78 89 102 114 101 88 96 95 80 79 96 113 120 107 89 97 107 108 98 114 105 80 70 71 75 71 89 118 130 121 111 111 110 123 124 90 92 95 103 102 97 95 83 77
185 135 162 85 77 74 74 79 81 92 103 105 108 123 96 98 104 90 98 141 123 136 164 175 177 142 125 140 121 102 99 94 87 97 99 134 166 165 158 131 115 96 87 129 128 90 85 85 91 87 75 70 78 78
76 85 79 96 89 95 107 119 102 101 98 109 103 98 93 115 101 124 105 144 133 159 184 175 153 123 98 79 94 104 99 108 127 142 134 133 146 135 120 120 114 156 173 112 93 86 81 87 86 62 67 82 81 84
64 62 61 64 77 76 75 74 67 69 85 89 93 93 103 100 131 130 141 158 169 159 145 133 123 112 99 119 107 109 108 105 89 80 96 104 177 296 236 157 154 147 127 126 111 94 88 92 81 79 81 76 78 112
61 55 60 66 71 66 64 73 80 82 75 79 84 85 109 156 149 162 158 166 150 143 138 129 134 123 120 114 128 114 107 104 110 138 151 138 156 148 117 96 99 101 95 94 95 95 90 89 98 90 83 85 113 114
50 29 57 62 65 74 79 76 95 100 92 117 129 122 137 153 185 181 170 162 164 156 140 123 109 119 138 137 112 99 93 97 103 99 87 98 91 77 72 65 60 71 76 76 74 87 109 108 98 93 101 105 99 108
38 53 60 51 53 64 82 93 91 94 102 107 135 132 199 196 186 219 229 193 170 153 138 144 132 121 115 119 118 117 117 107 113 111 102 76 66 66 67 67 66 67 67 73 80 91 98 89 91 98 96 97 109 120
59 66 73 75 88 92 92 106 120 123 112 98 111 148 143 158 185 153 182 167 143 146 137 99 99 93 74 83 87 87 84 81 88 81 87 80 79 69 56 50 52 53 53 55 59 65 76 88 96 104 98 114 124 127
55 61 69 75 68 59 83 70 69 79 80 99 118 130 181 202 167 138 104 97 87 94 86 68 49 35 27 69 69 73 85 84 84 72 80 79 72 69 51 43 45 45 48 53 60 72 91 110 114 116 126 130 119 117

GFSWCAN_con_3kmhel_006.txt.gz
Helicity
142 113 105 119 122 115 105 104 110 118 126 126 125 125 128 142 139 125 73 85 104 104 93 189 159 94 128 84 151 103 163 142 152 147 126 124 143 128 171 149 146 155 148 143 142 147 102 172 226 216 208 153 171 165
320 207 141 130 122 133 132 116 106 111 118 126 127 130 135 150 176 139 85 83 105 105 93 161 166 192 183 224 151 121 116 98 107 127 131 132 151 170 199 190 106 167 148 172 173 148 87 161 188 125 156 127 250 130
258 317 251 153 124 121 143 148 142 129 122 128 132 136 149 159 180 154 121 122 102 97 87 91 110 121 136 215 182 138 135 74 88 156 109 127 154 143 178 183 197 197 103 220 222 170 122 160 133 320 233 191 268 232
146 240 247 235 160 113 109 125 135 138 139 136 135 140 153 169 192 170 135 118 136 110 103 101 65 97 104 126 125 160 118 198 205 163 167 162 162 93 168 159 215 183 164 167 178 134 136 258 351 340 248 223 146 144
104 146 191 192 185 159 107 88 96 107 116 132 137 137 149 174 195 166 109 114 131 135 80 88 110 78 103 107 103 133 148 138 194 189 189 168 177 185 261 288 258 172 147 182 172 176 275 351 298 239 198 164 115 170
90 118 114 157 194 157 154 104 80 86 88 94 117 129 142 172 183 133 102 88 135 173 121 102 103 79 113 130 120 120 121 128 145 156 167 189 171 190 265 317 179 102 127 206 191 288 310 208 175 188 192 266 196 150
54 70 97 120 135 171 179 136 90 97 87 81 92 118 140 171 185 208 184 137 168 180 147 125 92 171 194 154 184 157 189 177 166 170 183 188 208 229 289 326 198 132 102 128 346 265 165 163 143 190 221 127 93 105
60 61 59 78 109 143 160 177 162 111 89 94 99 104 119 139 132 160 142 131 148 182 189 163 150 166 169 264 275 299 302 272 223 236 251 206 191 246 323 217 138 103 86 356 289 175 143 180 162 196 110 138 170 138
76 71 65 63 70 95 122 157 184 141 109 113 113 95 115 144 135 142 119 139 153 182 180 230 244 182 186 327 301 259 269 221 217 253 241 236 308 361 279 166 168 128 362 288 203 120 198 223 235 189 178 152 158 152
86 87 91 83 78 66 67 104 138 140 141 133 165 161 172 149 149 135 150 164 189 197 235 241 272 282 248 258 267 235 243 231 249 256 253 311 340 266 241 277 272 356 305 215 171 204 271 272 182 184 178 170 151 162
100 105 106 105 97 82 69 74 62 87 179 245 234 225 212 218 185 183 216 212 238 260 226 279 336 356 332 328 305 271 262 267 265 247 279 294 298 181 108 213 343 297 173 140 224 295 270 196 182 174 162 165 139 121
102 99 94 103 99 74 70 31 45 104 140 219 244 266 224 286 287 232 284 331 287 290 354 356 416 483 463 403 384 333 362 304 275 286 329 343 211 302 239 307 174 155 208 275 234 181 183 164 152 156 128 110 109 137
97 81 73 74 81 40 64 109 89 78 127 189 239 295 258 260 267 312 385 483 462 491 457 473 535 448 432 436 394 319 266 308 386 425 430 359 389 248 242 174 152 272 297 193 146 168 155 133 138 113 91 100 121 128
76 77 69 56 52 23 41 78 90 71 86 93 118 184 262 213 307 347 290 372 403 306 302 379 429 344 420 375 308 317 394 442 470 519 481 363 311 251 161 156 167 173 157 138 146 118 111 101 84 89 103 112 132 130
62 71 51 42 33 46 58 67 77 55 85 116 117 147 177 164 148 122 180 191 226 250 303 366 430 376 401 414 443 487 436 451 437 428 385 226 188 165 201 186 182 132 116 106 122 108 80 79 93 100 110 122 124 145
68 68 53 43 31 39 43 41 34 61 70 82 101 96 82 114 142 169 197 215 193 221 223 267 397 458 531 505 469 458 468 507 289 185 73 103 145 130 100 114 127 127 140 127 88 77 82 92 102 104 115 130 136 130
44 50 48 65 64 77 65 38 31 58 67 87 86 71 57 59 58 54 55 90 56 108 248 203 336 342 192 219 256 172 174 113 42 50 137 115 92 99 115 116 121 116 96 83 79 86 95 101 120 129 107 98 110 110
58 34 53 45 50 64 46 51 66 55 72 56 58 9 17 21 -2 1 5 6 26 51 56 89 59 92 98 103 72 67 68 59 75 92 94 113 119 129 121 103 97 91 84 87 92 97 105 118 112 117 107 92 111 118
111 82 46 72 93 94 78 63 81 80 99 95 93 84 64 29 16 23 13 20 28 32 40 54 67 57 68 93 94 78 92 66 58 73 95 95 88 97 100 88 86 83 82 84 93 105 112 117 116 102 101 112 121 121
77 82 61 55 101 114 104 94 72 83 88 85 79 75 73 56 51 51 55 63 60 54 55 47 42 80 93 84 82 67 79 95 120 102 91 90 91 86 81 79 88 90 90 91 104 114 125 120 108 112 124 137 147 165
72 57 80 68 175 143 136 98 103 106 83 93 99 80 73 59 65 71 70 76 74 56 45 35 68 73 94 126 133 131 120 107 89 91 86 93 102 107 95 86 82 96 102 115 126 125 115 125 126 124 142 132 148 139
65 76 45 72 91 144 137 117 112 111 114 98 102 85 82 74 69 64 70 69 66 51 64 71 73 86 84 78 76 79 94 110 107 100 89 88 89 76 65 73 95 102 116 122 97 109 121 125 125 115 125 144 143 113
90 100 34 45 74 102 126 202 141 95 105 89 96 102 85 79 73 66 70 57 51 65 83 94 122 130 108 130 117 92 85 95 99 103 98 87 79 67 72 93 65 72 72 79 95 102 98 129 118 105 126 118 117 108
101 39 118 78 95 134 179 160 150 131 119 100 86 87 86 73 69 75 74 73 88 114 108 112 103 93 90 97 90 138 150 111 107 110 115 98 88 91 92 86 80 100 101 114 105 112 132 132 101 78 90 99 103 99
-22 21 74 116 115 159 138 134 154 133 115 92 92 87 68 56 57 63 72 95 165 167 163 140 95 101 124 133 131 176 195 151 117 93 75 67 87 99 114 134 140 146 131 116 129 104 97 95 82 77 85 93 97 82
50 73 118 124 164 169 168 165 131 145 124 104 99 113 87 84 88 89 130 152 162 160 163 172 190 156 167 178 167 145 117 90 82 71 70 110 100 109 110 92 84 116 190 173 168 120 77 76 77 70 82 83 70 86
58 91 119 141 122 115 129 130 108 88 78 93 97 95 105 108 92 161 128 162 125 106 118 129 158 155 136 129 131 110 102 106 101 87 71 71 114 206 197 176 166 145 114 97 84 91 94 97 98 91 79 69 87 78
94 70 78 64 58 74 77 88 91 96 104 95 92 92 103 116 150 116 111 111 132 145 158 160 158 138 127 126 112 143 149 124 123 116 93 104 141 135 125 140 141 155 141 130 117 102 96 91 85 87 94 91 87 154
45 44 45 67 70 68 72 79 85 93 93 92 89 95 119 125 130 143 138 151 156 173 182 168 158 132 154 163 165 154 144 144 154 159 140 110 105 102 111 112 113 113 109 105 115 122 114 109 98 82 73 129 188 139
45 42 52 59 66 75 81 102 101 103 108 112 118 111 125 141 170 184 182 176 184 173 161 148 138 147 155 155 166 178 129 97 99 108 96 99 98 88 85 87 88 85 86 89 86 88 97 107 116 126 156 132 121 148
32 39 52 63 73 82 84 78 74 80 94 112 134 162 193 163 148 182 208 186 162 163 168 163 157 153 159 156 140 118 100 117 117 122 121 104 100 97 94 87 77 70 73 78 85 87 82 87 110 128 125 126 120 118
67 85 80 78 85 81 79 93 101 102 98 97 118 148 137 148 196 147 153 166 147 153 143 133 138 117 76 57 67 80 94 91 96 104 95 89 90 84 84 81 72 79 80 83 78 79 91 98 96 112 118 109 110 117
63 77 82 81 78 85 86 89 73 83 85 107 181 187 199 230 208 151 114 116 118 115 111 81 58 49 44 88 69 68 114 102 80 70 80 84 76 80 73 71 65 64 70 75 67 71 83 96 105 116 113 112 113 122

GFSWCAN_con_3kmhel_009.txt.gz
Helicity
120 125 134 127 125 113 101 99 100 99 95 98 106 122 145 158 164 104 90 92 77 83 109 163 220 200 173 202 170 103 205 165 171 165 135 116 121 108 147 125 114 138 157 134 171 171 97 81 218 234 183 253 248 290
103 120 126 126 124 121 114 110 108 108 106 107 117 126 143 168 181 127 113 104 89 74 62 97 146 197 223 177 144 130 89 104 130 158 147 141 154 149 163 161 167 197 151 137 195 147 117 116 169 205 280 244 294 293
231 153 135 132 129 127 127 126 127 128 121 116 122 133 143 167 192 143 104 122 105 92 115 114 131 154 166 232 165 131 137 91 130 121 127 126 128 132 148 143 180 167 199 238 260 167 145 206 294 331 344 377 390 302
371 312 195 151 136 128 140 136 128 123 121 128 140 148 157 174 198 165 114 135 110 107 111 106 89 101 126 185 186 144 116 208 212 167 143 130 122 106 130 132 183 137 230 226 236 239 244 331 344 391 366 354 299 229
238 283 273 183 146 122 134 138 138 136 126 129 143 162 177 193 206 149 109 133 125 110 74 90 107 84 103 151 133 139 184 196 198 191 175 135 142 168 190 232 229 186 186 216 190 162 231 284 278 276 287 238 171 201
160 178 182 233 178 134 112 107 123 136 132 140 156 170 192 217 212 151 130 139 175 153 137 126 97 77 97 150 135 130 141 169 183 169 146 158 173 181 188 227 195 163 109 102 207 237 267 264 286 253 196 287 331 278
100 103 84 136 154 173 133 101 99 108 109 127 154 171 192 231 189 181 129 128 179 163 148 148 127 162 149 156 211 204 210 203 194 167 165 171 172 208 236 259 201 149 124 205 268 339 290 258 217 176 299 233 224 243
64 80 82 90 135 136 128 136 109 86 82 88 109 129 159 166 160 172 154 117 148 175 175 168 158 175 163 206 222 223 242 240 222 237 262 198 216 275 273 256 216 166 134 286 375 389 320 265 245 304 254 278 284 267
53 55 65 80 83 86 123 151 117 88 93 108 111 111 122 153 156 150 169 162 144 160 170 214 223 167 215 254 235 207 201 201 211 246 249 248 276 295 251 175 174 172 188 316 356 311 336 270 334 352 323 295 268 218
70 71 70 66 43 38 68 88 114 125 137 127 156 135 146 138 166 147 129 156 184 190 241 227 237 272 251 234 230 213 212 219 226 212 231 259 291 318 287 276 272 276 343 401 393 362 307 380 382 306 268 217 190 163
102 89 75 69 72 59 24 52 78 138 187 194 184 159 136 149 141 157 146 168 181 218 201 252 309 365 324 323 291 246 252 269 246 211 257 241 261 163 126 215 346 394 394 402 445 452 368 298 263 213 185 156 129 124
124 122 98 77 87 72 44 52 66 81 136 178 155 204 181 192 175 148 188 227 213 182 312 293 350 418 439 415 373 305 336 328 225 273 324 302 209 228 285 345 444 465 465 454 339 246 264 227 168 151 127 108 105 98
116 114 108 66 69 90 101 91 78 47 73 180 201 176 161 177 185 210 241 335 357 422 378 342 379 345 362 364 344 332 305 311 386 406 413 337 355 317 410 498 477 342 292 260 230 204 169 105 97 93 85 75 81 87
86 84 77 51 44 63 86 109 103 47 73 110 108 172 212 179 207 232 261 290 277 232 220 219 259 214 289 314 309 344 413 472 486 457 425 406 433 481 389 243 248 233 176 154 143 116 66 72 75 76 81 85 94 94
54 42 54 65 46 41 41 56 77 57 89 112 121 156 147 131 135 115 104 147 170 145 169 221 275 268 283 268 328 376 417 454 425 427 386 300 208 95 82 104 139 130 111 108 99 89 78 72 80 72 72 73 86 103
80 25 33 32 27 30 45 36 37 41 88 115 125 118 74 90 79 65 57 69 95 141 170 194 238 273 356 386 394 434 410 460 355 259 58 -3 21 54 71 75 77 82 81 87 90 80 71 79 78 78 88 93 103 127
49 22 27 28 30 28 50 26 45 60 69 91 121 86 62 69 57 52 42 65 53 108 142 162 237 279 252 295 317 243 278 146 37 3 -13 -20 12 73 104 115 107 101 94 75 84 86 85 86 99 109 91 94 123 130
51 30 35 40 57 45 31 42 52 63 71 51 60 40 63 58 48 35 36 48 64 60 68 88 74 131 141 130 105 70 53 54 48 55 74 70 83 99 108 93 82 92 98 89 81 86 92 100 100 120 133 132 135 112
82 68 56 90 97 67 75 66 65 72 71 71 75 87 71 61 54 47 40 43 43 38 61 90 98 78 73 68 69 61 72 70 63 54 58 61 67 64 64 78 81 84 85 84 88 99 113 110 133 149 160 149 153 138
79 76 72 61 100 102 108 108 75 92 76 58 69 77 76 65 47 48 48 52 49 52 68 58 43 53 49 44 42 46 47 82 93 92 84 84 88 92 68 75 86 81 83 81 89 97 115 130 131 132 133 139 135 120
64 59 77 55 88 92 102 100 104 87 83 83 74 79 83 70 64 62 60 59 70 60 37 32 46 37 54 69 89 97 116 114 102 90 70 85 89 94 91 87 85 94 98 101 109 124 126 148 132 124 128 124 126 126
70 67 50 59 54 69 112 121 106 103 110 82 103 102 81 74 64 62 66 63 42 37 51 61 67 70 76 83 83 85 102 124 121 113 111 110 106 107 107 96 106 96 99 115 125 136 142 137 146 134 130 115 92 118
72 69 62 45 59 50 70 141 140 98 93 72 103 105 84 85 80 65 65 44 45 61 82 106 118 108 117 119 106 119 147 145 145 158 166 142 122 107 96 93 107 114 105 102 121 145 142 136 154 145 132 130 114 91
66 60 43 31 23 22 89 145 136 160 140 105 91 90 84 89 72 80 76 77 135 162 156 158 128 127 122 165 278 295 264 188 153 131 115 76 57 72 81 85 91 104 143 126 90 89 94 114 147 151 119 98 94 98
70 51 6 -74 47 83 89 104 162 163 139 116 123 111 83 87 81 73 79 111 124 158 165 208 291 270 309 276 202 167 155 134 109 91 86 83 75 83 96 108 114 168 144 111 111 102 93 91 80 60 68 95 102 100
20 36 15 14 49 76 81 122 134 139 155 161 139 118 90 98 97 84 138 133 126 129 128 165 206 180 189 167 146 135 109 82 82 73 63 119 137 148 142 118 109 106 99 107 100 93 82 82 90 92 95 104 102 88
45 23 33 70 84 127 150 156 194 172 152 140 129 109 100 102 86 130 132 158 130 119 81 98 140 174 176 164 146 143 129 89 85 89 94 156 234 191 152 133 124 91 85 91 86 93 92 94 91 92 101 98 94 93
42 31 64 89 95 81 69 75 76 91 87 71 101 90 87 104 116 118 116 108 124 143 146 158 155 155 163 148 149 143 123 128 143 156 198 258 157 109 123 127 119 142 123 116 118 116 116 114 117 99 101 94 103 220
57 37 32 48 34 26 29 37 46 76 90 83 88 108 117 118 111 108 110 132 161 192 189 169 183 176 186 198 175 132 120 107 151 170 174 139 125 125 113 111 113 116 112 111 117 124 131 132 101 116 106 189 177 202
2 8 24 32 42 42 48 63 64 76 102 101 94 105 112 110 140 179 171 171 183 193 204 185 161 172 165 170 171 177 103 60 45 71 86 90 98 90 85 84 87 90 82 82 93 110 129 124 146 151 133 123 131 113
12 21 34 45 55 56 62 66 68 83 101 115 140 149 136 120 143 169 196 169 149 188 204 198 169 145 159 165 149 117 98 83 100 95 75 59 71 64 50 58 65 71 78 94 104 99 111 79 92 110 113 115 119 96
46 59 59 59 69 61 65 70 70 70 74 83 111 125 115 128 154 140 143 155 133 138 136 135 150 140 100 73 84 93 126 111 79 63 60 61 52 50 46 59 72 81 101 112 116 125 70 66 75 89 77 84 89 92
54 62 65 74 71 71 74 83 69 81 97 127 169 169 180 166 148 116 89 95 98 104 119 96 75 73 80 88 85 99 75 53 72 78 74 83 64 43 59 75 76 79 92 90 96 79 71 59 64 76 84 76 72 76

GFSWCAN_con_3kmhel_012.txt.gz
Helicity
130 109 127 123 118 122 113 99 93 92 102 115 139 158 169 184 176 104 114 107 70 92 138 160 174 180 204 180 173 156 209 139 154 156 137 121 129 131 171 147 111 131 158 154 212 206 125 122 241 240 150 176 184 222
114 122 131 134 132 128 116 103 101 97 95 110 124 151 177 186 174 96 118 119 89 88 87 127 170 179 129 103 152 149 100 85 100 142 132 130 152 151 174 167 182 173 164 133 153 115 143 103 163 193 230 241 244 299
130 134 139 139 137 127 118 112 106 100 99 111 125 146 180 205 206 104 103 117 98 99 123 123 168 203 171 150 90 131 126 99 111 116 109 120 133 147 148 122 158 129 209 185 219 144 131 133 233 262 284 291 307 302
188 174 159 151 148 134 124 115 111 103 107 112 126 146 178 208 235 121 108 119 98 97 117 116 122 157 173 180 141 121 132 204 178 153 144 133 135 100 125 136 145 98 190 168 213 213 274 286 254 299 373 373 330 298
260 210 195 171 145 145 140 137 125 116 112 120 134 151 173 193 207 134 125 148 112 90 68 109 114 136 144 142 142 138 190 192 173 180 176 134 126 154 163 199 190 173 180 220 206 137 193 189 233 284 310 239 249 303
273 224 204 174 156 152 141 125 128 116 113 123 143 161 181 201 140 118 124 130 159 116 119 124 97 116 160 165 146 132 156 165 183 154 141 145 161 171 172 186 120 117 142 143 153 121 168 200 206 229 264 282 296 336
251 248 192 163 137 135 127 130 127 129 130 137 147 168 192 198 137 136 116 113 175 146 134 139 127 145 148 166 170 183 194 172 177 191 191 175 181 205 211 216 200 173 138 130 183 343 351 329 273 290 348 386 430 396
178 199 209 201 156 133 113 98 113 126 132 142 156 180 203 166 160 189 213 205 183 170 172 167 148 155 168 185 183 190 188 197 191 195 234 199 216 251 219 205 176 166 144 194 249 293 231 292 385 406 437 506 385 261
95 84 89 137 187 143 121 82 83 92 103 124 151 174 182 188 173 164 213 209 163 167 178 201 198 152 186 197 190 178 163 158 205 235 252 254 268 266 242 172 163 148 175 184 319 379 374 391 497 587 581 252 218 183
85 75 78 78 102 139 105 97 96 110 97 99 145 177 192 154 162 172 159 166 194 209 227 205 223 222 208 197 206 188 173 172 198 178 209 255 315 292 245 201 189 173 158 279 405 473 636 732 717 508 196 154 131 127
104 86 80 68 56 78 102 107 132 153 188 171 173 187 146 171 142 158 163 167 171 194 182 228 232 234 219 229 218 203 212 227 192 172 230 246 287 176 220 184 255 300 348 401 549 663 696 551 295 145 86 99 106 115
138 108 90 87 89 91 72 78 118 173 190 181 152 169 178 185 182 165 162 205 199 189 279 251 230 256 296 302 279 224 276 291 227 274 324 300 248 252 280 371 462 518 643 725 695 664 358 138 96 66 103 110 103 93
154 118 99 98 113 132 134 118 96 66 128 169 184 156 132 164 151 151 189 218 239 312 273 244 226 195 200 211 230 249 278 302 347 337 340 322 358 354 423 523 566 473 383 279 168 101 91 76 87 103 78 53 64 73
124 128 112 116 122 121 126 99 63 69 94 144 163 182 194 180 204 235 220 216 216 198 176 158 186 137 217 159 157 211 272 342 383 431 408 410 400 331 290 276 215 130 94 13 37 84 117 102 60 30 31 71 90 78
107 112 92 129 113 124 124 104 92 55 85 101 119 207 203 163 159 122 115 137 154 144 156 175 182 183 203 239 228 250 305 364 357 419 402 262 213 199 157 87 51 52 74 91 79 80 52 33 45 65 72 69 77 90
53 43 93 105 95 97 111 75 76 78 117 125 123 125 104 125 116 94 88 91 77 99 109 124 160 179 226 296 280 303 336 433 422 345 173 113 69 44 58 66 90 74 73 66 60 51 57 65 66 64 80 93 101 106
45 9 51 65 87 72 77 43 59 77 96 128 162 158 117 120 96 91 79 89 66 84 105 128 144 152 157 193 226 244 255 173 83 62 13 -18 -20 14 55 55 42 33 42 54 61 71 68 69 88 98 93 101 113 121
27 47 50 69 73 47 42 42 32 37 61 47 76 80 99 112 106 104 77 72 77 81 94 114 88 122 128 130 132 101 29 -8 -21 -10 -16 -9 11 31 48 47 45 50 55 56 53 61 80 93 92 105 111 128 144 145
45 41 61 65 67 40 42 52 43 45 44 58 70 78 71 66 71 60 56 57 62 64 83 97 122 109 114 119 114 80 52 43 35 28 46 65 78 69 58 56 62 73 81 89 102 107 105 97 105 110 124 148 145 143
57 83 80 64 72 75 86 76 65 82 75 52 78 95 93 83 80 74 73 77 67 71 86 83 66 73 68 61 38 30 50 61 89 99 98 91 82 89 94 96 99 101 108 110 111 112 123 121 124 138 148 141 145 150
52 47 70 60 79 100 112 115 113 90 96 108 88 97 78 61 67 65 71 78 81 71 63 59 60 29 41 60 69 78 114 121 112 91 79 96 118 146 157 166 153 130 108 95 86 87 95 99 103 123 147 143 157 174
41 50 54 63 92 116 130 134 129 111 124 103 113 98 102 98 90 74 76 79 61 66 77 92 75 66 79 70 101 134 109 113 149 185 214 177 175 157 148 122 111 94 87 87 94 88 86 90 105 111 116 117 126 132
57 54 58 68 110 152 142 103 159 115 143 113 111 112 92 98 84 83 81 62 81 107 94 98 106 104 153 223 261 297 287 232 215 197 179 146 117 109 81 67 73 72 77 104 109 107 99 99 105 114 117 137 162 171
57 67 67 95 89 121 92 132 105 106 111 118 101 92 67 72 77 84 91 106 109 137 162 168 140 175 246 270 260 271 270 203 164 139 119 103 95 88 78 94 88 119 128 110 107 103 102 104 114 116 120 119 107 101
56 43 72 81 76 93 77 83 97 126 116 91 116 99 60 79 91 94 98 102 130 154 160 193 236 252 245 225 203 191 185 154 141 121 115 101 76 99 132 148 149 132 132 117 109 97 91 88 92 96 100 108 117 118
28 46 67 57 31 19 22 6 69 95 105 113 117 112 102 104 83 68 91 114 144 143 141 167 175 183 201 170 154 149 132 111 97 109 140 143 141 128 134 135 126 121 125 106 86 80 84 90 96 98 98 102 111 114
34 32 34 7 43 61 91 89 82 118 105 103 101 131 135 107 95 121 109 159 144 133 105 94 97 123 136 132 137 142 117 109 97 84 115 198 183 172 141 131 126 100 89 96 102 115 118 118 114 111 100 89 100 86
-20 -25 -28 -31 -27 53 64 74 85 92 88 84 108 105 105 105 109 111 124 119 114 100 119 118 126 155 166 168 149 135 149 142 164 200 187 166 138 117 91 103 134 155 148 138 124 129 138 135 131 125 129 116 112 161
2 9 23 18 17 22 32 35 31 36 44 42 55 71 86 101 107 104 107 105 113 128 141 158 185 181 204 187 170 141 124 121 155 188 187 156 143 127 94 71 56 72 80 82 87 111 112 121 121 159 164 137 134 129
-10 -10 11 9 9 17 20 26 32 46 68 70 72 81 97 109 138 152 145 157 179 202 208 199 183 194 203 206 182 139 115 86 55 72 95 98 98 88 61 49 53 61 64 57 75 90 112 145 156 140 141 124 100 81
21 28 30 39 47 48 38 41 50 67 84 92 115 128 125 126 148 174 186 141 162 195 199 199 195 176 177 180 158 141 139 116 119 93 69 66 74 63 44 49 67 78 69 69 77 98 115 112 101 91 85 79 86 78
52 56 56 63 64 52 68 78 83 83 88 100 125 133 128 147 150 145 122 121 145 147 122 116 137 133 105 82 82 102 107 79 82 76 78 69 58 49 57 71 73 69 71 70 73 105 111 102 78 73 55 66 69 65
65 75 76 77 81 84 72 79 80 82 109 120 139 145 156 134 116 86 73 75 75 75 90 84 74 75 77 82 74 61 78 89 90 97 98 81 68 65 67 67 73 81 74 72 77 97 105 91 81 63 49 62 59 50

GFSWCAN_con_3kmhel_018.txt.gz
Helicity
100 118 113 97 89 93 94 95 107 95 124 149 204 173 123 84 81 98 97 97 80 102 197 173 159 166 168 171 170 125 237 150 152 156 143 121 139 103 143 133 112 122 128 123 188 218 170 150 257 181 92 94 66 64
100 116 100 84 90 91 110 96 93 128 147 168 177 179 157 136 153 261 217 57 78 124 139 162 147 141 104 88 155 157 103 101 109 169 149 144 172 179 189 171 179 172 146 151 153 145 124 16 61 71 132 130 130 144
100 113 102 95 83 107 106 101 136 118 140 153 155 211 185 141 92 59 97 88 102 123 169 166 164 187 167 120 78 134 149 112 131 133 122 146 169 176 185 147 198 130 151 184 188 107 99 88 65 90 134 149 171 175
127 110 101 79 103 127 121 126 128 127 116 156 166 190 181 163 145 141 163 144 109 110 107 131 160 159 200 128 111 113 118 204 175 158 162 152 162 122 158 163 163 123 134 142 150 92 114 94 138 111 136 197 220 211
133 129 89 143 204 158 110 114 117 122 155 177 188 157 184 218 209 201 179 196 136 91 79 131 132 173 211 149 158 162 178 163 153 167 159 127 143 176 206 218 179 189 186 201 160 135 169 119 103 98 127 133 165 257
162 137 149 164 212 105 95 112 116 129 136 149 158 149 154 161 149 158 157 153 184 121 96 115 112 147 196 193 236 226 180 162 165 144 131 135 165 184 182 169 85 167 160 156 159 116 105 111 114 114 140 192 250 338
180 162 153 139 211 110 84 105 115 126 141 165 160 136 143 124 131 136 96 131 192 124 106 120 116 134 144 155 156 164 169 152 148 144 152 160 174 196 211 192 159 110 114 111 123 146 127 152 136 130 207 293 380 453
172 168 131 151 212 117 76 102 114 120 131 150 146 140 128 96 70 142 193 195 176 102 112 101 111 110 144 134 136 150 150 159 184 169 174 176 199 205 155 104 89 84 79 81 88 96 124 138 183 245 301 387 519 650
203 170 144 156 160 121 61 101 119 133 155 183 151 145 145 140 122 115 177 164 142 118 116 130 112 77 109 125 135 138 154 161 154 177 182 176 201 178 202 151 123 119 109 91 100 126 162 207 269 335 425 521 725 618
219 211 204 176 140 153 119 91 120 145 184 168 167 149 135 149 162 149 135 125 155 175 184 165 140 146 131 131 149 149 152 155 166 147 157 182 206 246 229 157 100 83 82 88 121 156 274 362 411 456 531 552 500 471
281 215 159 147 141 126 119 113 155 203 202 188 163 144 130 191 151 147 152 167 179 185 178 190 184 184 190 165 153 154 156 152 136 140 173 195 243 226 199 172 172 180 201 242 304 413 409 436 489 545 582 548 455 317
247 250 238 189 147 129 130 155 183 169 165 153 114 150 166 171 170 164 212 201 197 132 170 154 171 186 175 150 151 139 155 165 174 197 232 233 246 201 201 224 252 272 306 348 351 375 391 409 359 347 332 301 120 9
135 180 260 322 299 230 201 178 183 131 142 175 175 184 175 183 199 183 205 202 160 191 175 143 138 128 140 161 182 166 160 191 192 216 247 275 224 223 229 243 241 216 244 255 255 206 172 164 182 101 28 -62 -32 -1
144 178 201 199 178 185 208 210 213 184 182 181 173 173 162 164 184 199 221 185 171 163 151 131 120 112 130 150 142 179 196 207 216 239 272 253 224 233 270 223 180 143 102 73 14 -28 -30 -50 -56 -37 -12 17 29 40
112 157 221 305 181 129 85 86 119 141 151 171 206 182 191 177 186 151 160 169 162 138 123 124 129 116 119 130 155 185 226 239 247 273 298 237 181 214 236 144 133 106 71 58 33 28 28 31 41 50 55 63 66 64
72 95 240 275 160 123 83 71 76 82 80 127 166 167 134 170 170 130 118 122 106 116 125 131 139 153 165 213 253 258 288 269 235 185 149 118 128 107 86 66 72 55 47 43 40 45 43 31 22 23 34 37 30 28
60 71 208 186 104 76 93 71 95 112 96 115 112 119 117 127 119 110 105 97 87 110 134 135 158 148 157 162 196 222 220 180 152 135 146 120 97 63 37 22 22 19 20 21 27 49 57 56 55 76 103 101 86 82
35 78 94 91 51 42 52 56 59 80 116 109 124 129 132 144 133 130 115 116 107 110 119 141 123 189 188 184 167 113 90 61 58 60 58 49 37 48 48 50 61 74 83 95 102 112 112 115 108 96 90 87 79 85
50 62 86 74 22 4 12 23 22 33 36 42 57 70 80 95 107 95 86 82 80 70 89 104 128 108 105 94 97 79 69 56 54 63 83 101 95 102 111 115 122 131 138 128 133 112 101 95 88 80 74 71 70 73
49 72 121 88 49 31 35 33 37 35 44 45 60 68 70 73 62 60 70 78 81 91 97 93 78 91 100 95 82 91 85 83 114 138 149 159 148 176 190 162 145 121 109 116 103 103 82 66 56 56 71 82 87 99
53 79 79 43 33 64 51 56 65 55 58 92 76 91 86 74 93 110 102 93 117 130 130 112 123 134 146 161 157 133 146 103 113 117 130 166 186 186 169 151 128 112 98 83 67 74 78 71 70 85 93 99 112 111
26 46 17 27 37 55 67 93 69 58 82 78 88 98 105 105 120 135 132 154 150 115 107 120 141 145 182 196 200 194 149 172 183 206 259 209 179 162 159 139 107 91 82 72 65 65 65 78 102 113 111 114 112 116
19 24 20 26 27 54 47 46 64 74 101 92 98 122 118 122 122 103 165 149 134 107 112 130 160 199 212 210 248 263 223 196 211 208 193 175 162 138 118 109 93 82 81 92 89 86 96 103 105 107 104 110 116 123
25 42 35 41 52 68 51 101 74 94 109 116 110 129 126 117 82 129 154 134 122 110 129 134 147 193 209 205 202 198 194 164 176 204 187 146 138 137 119 113 103 93 95 86 90 100 104 105 108 119 118 122 108 98
75 57 55 61 20 54 80 89 78 71 77 84 128 126 73 78 101 106 110 103 114 127 145 167 170 160 153 153 171 187 193 159 133 138 150 130 116 122 124 111 103 108 103 110 120 111 107 106 102 101 85 76 70 66
32 -2 14 -5 -15 -8 -14 10 -10 -19 -8 15 9 33 55 66 71 63 83 104 121 173 175 146 122 136 166 157 142 141 131 106 96 113 125 143 142 111 106 108 106 95 99 89 87 101 102 92 83 72 71 71 73 73
18 3 12 13 33 35 23 25 32 31 36 36 63 89 77 59 69 95 87 115 108 126 134 124 93 103 109 115 104 100 97 114 133 135 123 119 98 80 56 73 77 63 75 81 81 88 77 64 63 64 62 75 71 82
13 24 26 18 28 32 36 49 40 33 23 28 42 41 51 50 52 50 56 55 73 86 97 101 118 119 124 120 116 117 139 142 150 132 121 113 92 74 67 73 75 65 74 81 77 71 75 69 68 67 70 77 82 91
29 24 40 28 20 28 32 32 27 24 11 22 44 43 43 50 50 56 68 65 75 76 81 86 111 107 120 132 148 151 155 124 128 147 126 96 101 83 93 88 77 82 85 82 65 62 53 63 76 85 85 98 104 117
15 19 41 40 47 46 38 34 25 22 37 54 69 74 76 76 93 97 97 113 120 124 116 113 99 92 88 107 119 144 141 116 80 88 83 69 62 58 62 79 91 86 74 66 67 78 81 99 104 113 116 116 113 110
21 37 40 50 50 52 57 47 54 70 83 83 86 95 92 84 111 149 149 130 123 119 127 145 152 119 130 130 118 118 105 60 47 26 35 39 42 62 70 72 62 50 49 55 68 77 75 78 82 85 101 102 90 86
63 74 84 91 87 82 89 94 82 85 106 99 90 97 105 122 132 133 130 123 137 155 126 113 115 90 62 50 44 33 37 34 39 39 34 47 56 61 59 49 44 57 65 68 73 74 73 73 73 83 89 89 80 72
84 93 100 100 79 69 63 68 85 68 83 86 105 111 122 127 126 104 92 91 91 92 87 72 62 48 30 30 36 36 35 31 19 22 29 40 46 48 52 54 53 61 70 69 65 66 68 69 73 77 84 88 78 67

GFSWCAN_con_3kmhel_021.txt.gz
Helicity
123 97 71 111 133 78 85 89 81 82 88 87 74 75 87 104 113 174 129 91 73 82 147 159 146 160 213 225 191 153 216 143 144 145 121 97 100 93 118 109 85 100 117 116 150 171 110 80 113 111 89 75 69 78
80 79 139 131 110 95 95 75 83 85 77 92 95 86 95 76 68 105 68 56 81 88 112 167 123 135 145 118 174 166 123 108 111 181 134 115 139 145 145 121 116 127 118 130 110 121 100 30 56 86 119 109 110 135
126 150 122 96 97 99 88 78 88 79 106 121 118 109 89 74 77 88 121 49 120 102 168 161 178 185 164 137 108 129 144 109 129 135 116 137 143 136 146 111 135 84 108 132 150 84 63 59 63 90 123 143 149 130
152 141 114 100 96 93 85 96 110 106 129 140 109 114 109 114 162 157 120 63 73 93 106 158 183 173 230 161 139 121 114 193 171 153 156 146 149 104 132 133 121 97 147 130 117 71 93 76 96 73 76 93 102 127
150 122 103 109 91 98 121 111 115 121 146 155 166 161 155 137 188 239 159 66 55 55 83 141 156 198 221 143 158 169 191 173 152 154 147 129 135 154 172 164 126 159 148 149 129 115 117 102 71 62 77 94 102 111
110 109 100 88 95 131 95 125 115 138 122 124 178 158 151 171 202 162 105 122 154 107 58 130 123 169 217 216 255 242 185 160 143 125 128 140 156 161 161 124 63 97 82 104 115 110 70 78 70 87 92 116 136 175
129 110 121 171 198 142 108 150 135 176 139 118 151 163 136 96 131 91 80 153 178 122 107 121 127 147 154 149 155 172 179 150 146 142 165 172 171 174 175 154 148 120 95 64 76 81 84 103 109 139 174 226 295 336
133 131 160 221 244 93 108 121 141 131 166 155 137 132 120 99 94 189 248 257 180 102 120 103 121 111 137 114 116 138 135 144 171 155 157 170 175 170 140 160 141 128 119 92 147 109 103 166 190 189 202 258 394 479
164 154 175 201 184 112 94 96 119 163 139 113 95 88 142 159 147 153 232 198 157 117 115 111 79 61 82 94 106 115 134 146 139 165 172 145 174 202 187 152 148 140 94 45 98 167 215 242 233 242 305 391 443 436
176 162 152 161 180 196 120 97 137 175 153 132 116 124 140 138 176 150 134 128 150 163 147 112 96 99 92 107 131 125 139 142 153 155 139 162 228 221 193 157 111 94 120 110 88 147 179 214 289 337 396 399 391 381
189 152 115 108 125 146 133 148 166 170 128 128 155 121 109 160 104 107 107 113 122 125 127 135 128 127 145 138 141 146 152 148 134 156 166 201 235 216 180 139 133 135 137 157 186 226 271 275 288 276 267 208 166 155
265 220 174 158 146 142 160 158 137 112 111 91 58 105 115 141 130 131 161 145 136 111 142 142 162 188 187 156 154 141 162 157 181 182 213 235 251 239 205 185 162 122 117 131 121 106 84 75 52 36 46 59 34 -41
283 274 267 239 200 177 187 193 187 132 134 148 130 125 110 134 153 143 127 145 167 188 184 155 157 147 137 146 156 144 156 200 197 210 227 266 250 223 189 155 142 105 87 64 63 64 65 51 38 12 -26 -42 -12 14
209 195 217 203 173 166 184 182 178 145 145 120 145 174 164 150 166 188 204 171 152 129 123 132 139 128 130 142 146 157 163 173 172 208 227 258 217 185 165 122 81 63 71 95 91 74 66 62 46 41 41 33 34 37
110 114 133 244 173 176 188 192 198 141 137 146 162 166 177 143 166 153 144 135 136 131 133 148 141 131 142 152 150 167 177 199 193 185 148 127 132 140 138 140 128 98 75 70 62 58 43 46 53 55 60 52 54 61
64 125 243 245 123 78 27 40 112 84 133 131 147 156 163 180 171 171 182 185 162 148 118 119 130 132 144 159 177 176 203 196 157 136 141 134 150 171 141 80 56 67 69 73 83 84 71 71 65 59 65 90 91 83
88 131 260 186 92 91 112 84 90 80 88 102 126 107 94 112 114 107 98 88 66 88 123 123 151 149 151 185 216 216 206 142 95 78 69 81 66 44 32 55 73 98 117 102 93 99 97 83 73 88 100 91 79 78
29 99 118 111 45 68 93 90 75 82 101 94 90 94 97 114 116 124 112 106 99 107 120 153 116 177 189 179 150 111 80 60 67 84 92 90 95 92 84 100 116 119 133 138 126 118 114 104 100 84 80 68 56 63
28 47 49 49 -1 -9 8 22 23 54 61 45 52 69 87 103 116 95 87 91 91 83 103 123 145 126 109 94 91 71 64 66 82 104 117 137 136 150 165 169 165 166 158 146 139 117 101 100 77 63 53 53 60 65
42 81 123 85 15 9 18 20 14 24 35 30 39 48 48 50 44 50 56 64 71 77 97 104 94 95 86 91 85 79 72 95 131 147 167 190 190 209 211 186 170 151 144 134 117 106 79 63 58 56 61 72 79 96
33 70 81 28 44 46 31 36 41 31 32 53 50 63 62 54 64 73 87 88 91 95 106 108 111 117 134 148 146 128 152 128 134 123 148 170 185 199 194 177 156 148 134 106 82 70 71 75 79 85 88 93 102 98
21 37 8 35 32 40 56 73 48 39 57 44 54 56 70 68 72 86 95 113 117 105 105 112 108 107 149 186 194 196 158 170 192 221 257 216 181 187 191 172 142 120 94 78 76 83 80 92 100 105 107 104 103 110
1 10 17 42 43 77 69 60 84 75 77 75 72 86 89 94 99 81 138 133 122 99 79 94 127 175 194 205 237 268 263 197 206 206 196 193 184 168 151 131 102 91 90 99 96 99 105 106 107 112 118 118 104 95
7 25 42 42 49 38 28 59 42 56 67 79 80 89 62 57 62 94 108 105 91 94 100 95 121 173 206 241 239 229 171 133 177 207 177 147 143 133 109 100 103 112 108 95 109 111 111 117 130 132 120 104 80 72
57 54 43 38 13 24 23 27 16 -3 -6 -12 21 37 31 16 48 69 79 81 73 97 105 134 141 153 154 149 154 167 183 147 133 147 157 130 108 102 116 120 113 117 120 121 129 129 133 127 130 113 85 73 74 69
62 6 -1 -8 -28 -29 -39 -25 -40 -40 -25 -25 -32 -6 24 21 17 38 43 49 73 92 136 141 125 130 143 120 106 123 125 103 96 107 112 129 135 119 120 126 126 119 115 94 91 106 112 109 97 79 73 83 73 63
19 1 -9 -10 -0 9 13 24 27 28 35 32 39 49 41 33 35 32 32 45 50 66 77 82 71 69 77 84 86 86 88 108 118 116 118 134 133 129 119 116 104 78 81 93 92 94 88 81 68 65 69 68 62 73
8 7 16 -2 10 5 13 9 11 25 26 21 24 36 33 38 47 51 52 51 60 64 58 65 77 80 91 98 91 88 114 124 144 141 133 122 105 96 77 60 63 75 85 91 93 92 84 69 64 68 71 70 70 78
3 -17 4 8 6 13 12 19 21 30 32 36 54 61 64 65 60 60 64 63 67 71 78 78 82 76 88 99 125 145 142 119 122 133 119 92 83 69 84 94 92 91 97 103 96 78 62 68 85 86 85 79 75 85
-11 -9 13 12 19 20 34 46 22 32 65 73 83 86 89 88 97 97 100 114 114 114 104 102 95 88 95 102 107 126 125 110 91 91 86 77 59 60 71 73 74 79 86 83 81 81 84 96 90 96 98 94 95 95
14 29 34 39 31 52 71 66 58 80 91 93 99 93 94 84 94 118 123 112 110 110 117 138 147 134 139 138 121 113 106 70 59 44 32 44 52 57 59 64 75 82 82 79 77 72 69 74 78 79 83 86 86 87
49 51 51 40 40 59 74 100 83 94 95 97 97 94 82 79 84 80 92 92 125 150 136 127 135 119 76 68 62 52 44 50 50 49 50 59 64 69 76 84 88 82 80 74 65 61 64 66 63 65 70 76 75 75
73 74 82 81 84 83 73 71 89 76 98 87 81 74 80 84 89 91 83 88 101 120 123 111 81 66 53 46 40 37 37 44 48 49 52 49 46 52 68 76 74 72 69 66 61 61 62 59 60 64 69 70 68 68

GFSWCAN_con_3kmhel_024.txt.gz
Helicity
78 122 113 165 49 262 149 115 176 146 102 75 90 102 77 43 61 247 228 222 156 125 86 153 124 149 187 163 181 184 214 148 138 102 88 75 63 59 63 83 59 69 94 102 133 141 104 90 66 95 140 98 100 98
136 108 164 131 85 113 165 139 105 73 53 78 88 81 62 37 77 227 232 192 188 114 114 110 133 152 178 161 182 126 166 123 108 142 140 114 98 102 91 70 77 92 98 127 95 127 109 38 67 102 113 101 88 97
79 99 87 141 206 145 105 85 69 63 80 83 70 63 52 48 69 222 174 107 115 117 118 128 142 162 156 181 175 163 145 113 137 159 119 127 116 94 110 89 111 74 86 117 106 69 39 40 56 67 63 68 73 70
171 170 167 160 135 117 101 88 86 90 88 68 54 56 70 73 98 203 135 110 85 112 104 151 166 142 185 153 137 139 115 182 159 166 157 130 136 93 116 123 110 117 74 79 75 46 68 64 85 85 89 83 80 78
197 158 133 127 123 110 102 114 109 85 65 48 50 74 98 118 172 135 97 77 54 84 100 166 131 175 181 130 120 104 106 164 176 163 150 144 139 138 155 137 110 87 114 120 112 153 104 86 99 77 78 103 119 119
118 108 107 81 103 128 130 120 88 90 102 86 107 157 178 125 122 153 119 -21 49 71 82 141 143 172 202 178 199 225 207 181 169 164 154 147 138 131 148 127 157 162 153 155 114 81 65 65 102 146 152 158 166 189
119 116 144 146 160 178 139 122 111 142 166 172 167 233 219 251 215 173 103 72 59 51 58 124 130 162 206 194 190 201 200 172 168 154 164 153 147 147 160 152 171 144 130 127 159 125 107 156 135 140 163 194 232 278
136 156 153 118 103 105 161 199 196 159 159 171 173 166 161 140 124 159 54 112 95 72 86 88 115 137 168 151 156 171 157 158 185 157 157 170 180 187 162 200 179 158 156 171 166 138 145 152 173 202 207 204 232 256
164 154 145 135 144 205 164 189 168 177 141 115 118 120 233 243 149 118 211 237 163 102 91 102 90 93 119 120 129 129 147 144 135 162 165 146 180 191 206 192 197 197 163 127 131 144 153 185 184 185 229 265 273 241
153 180 222 297 263 152 171 191 206 162 157 174 198 193 174 156 235 197 140 126 132 144 137 101 123 113 112 111 124 113 127 128 127 153 151 207 257 246 221 173 133 121 138 61 101 126 125 151 153 155 138 109 103 88
140 159 196 188 226 236 177 125 136 122 113 191 238 185 161 194 138 125 114 133 146 131 127 124 121 102 121 112 126 139 128 132 113 139 155 182 207 210 182 141 81 81 123 174 176 139 99 69 66 84 77 84 94 79
162 153 146 140 93 142 200 169 114 96 99 89 88 112 125 141 131 137 161 138 127 106 117 115 132 142 150 147 148 148 166 151 156 176 192 213 230 229 193 134 75 76 69 86 93 94 101 115 107 105 86 69 54 42
195 197 186 163 144 128 153 165 138 115 128 191 194 172 173 193 154 135 101 128 134 120 124 142 167 159 151 166 172 155 144 190 186 188 219 241 237 198 134 85 110 122 127 118 125 118 102 99 98 95 94 94 77 78
180 191 223 235 202 194 172 138 121 142 158 166 165 137 119 113 127 126 135 110 112 122 145 164 178 160 158 177 170 161 176 167 162 181 197 173 136 125 122 157 148 117 113 128 123 113 118 117 114 95 104 88 81 90
225 231 234 362 246 197 166 147 113 65 86 91 107 116 127 119 140 122 123 115 136 134 148 163 165 145 150 151 162 178 168 182 179 163 143 138 136 143 150 128 109 115 110 106 110 120 114 112 120 121 109 105 95 81
29 73 217 160 162 141 145 158 130 98 118 136 149 132 134 155 170 177 175 162 141 150 156 146 149 147 177 174 163 175 185 181 153 160 145 150 156 119 106 112 105 102 104 119 126 121 113 120 120 106 97 99 80 78
96 91 205 132 70 63 73 139 209 195 153 173 203 137 117 150 142 142 141 139 114 116 141 123 140 154 139 164 186 172 190 152 111 104 72 56 72 85 95 104 109 124 140 129 128 135 130 113 103 113 123 104 83 78
77 123 128 94 31 57 65 50 29 72 153 114 109 92 101 97 89 111 115 124 115 128 136 164 124 161 178 179 175 134 98 83 87 76 82 100 112 104 107 131 143 149 151 138 128 131 135 124 119 108 95 80 50 57
-1 17 32 32 -12 -1 50 81 70 83 107 102 98 109 114 113 122 98 98 111 111 104 113 132 166 166 152 141 128 108 95 94 116 147 168 165 173 177 170 176 168 150 143 146 148 140 124 125 109 89 71 56 53 63
2 87 101 66 -2 3 24 28 19 44 51 43 46 58 52 48 34 38 51 66 85 81 95 104 113 106 99 94 97 92 80 104 135 160 164 168 172 184 181 169 164 153 149 144 150 141 117 100 88 75 69 60 70 88
16 77 85 36 47 42 28 35 36 37 36 43 41 47 46 35 49 55 70 78 95 101 100 94 101 102 113 129 134 122 123 112 121 113 120 144 169 181 198 193 179 171 167 159 144 120 96 84 83 82 85 93 108 107
23 34 18 54 40 40 52 76 48 45 54 48 52 42 52 65 77 91 90 107 118 116 103 104 111 97 116 143 159 168 160 179 196 229 252 228 200 201 203 191 178 177 163 141 113 95 87 94 97 97 101 118 120 120
9 29 58 68 62 82 73 63 76 80 77 69 56 67 79 83 91 68 116 130 129 127 103 76 77 116 128 150 191 247 248 210 229 229 209 213 215 204 198 192 170 148 125 115 97 99 104 103 109 108 122 123 116 118
32 54 65 75 98 86 53 82 64 73 73 85 90 90 96 96 68 94 125 117 87 68 86 65 62 93 130 168 195 242 225 187 201 200 190 169 177 173 154 141 129 123 115 105 108 108 106 108 115 130 127 126 129 110
51 45 47 76 46 53 74 63 62 50 66 38 33 23 15 -4 31 51 65 34 36 61 74 81 84 98 111 113 104 108 154 131 139 158 172 157 138 122 124 119 118 127 123 117 123 117 124 127 125 128 120 111 109 87
77 60 43 26 -2 7 -1 5 3 9 7 13 10 17 22 25 20 22 28 35 43 56 81 87 73 67 92 98 72 82 114 126 107 126 137 132 132 128 135 134 128 132 120 108 112 127 126 120 112 103 99 99 90 82
27 14 -7 -15 -17 -5 2 5 1 7 23 27 29 22 9 13 22 25 31 27 26 28 28 35 44 53 60 72 82 96 109 125 129 118 109 132 155 163 155 151 143 119 99 107 94 87 80 77 78 84 83 80 83 86
-9 -10 -4 -15 -12 -14 -9 -7 -2 6 12 14 9 28 36 46 55 54 59 51 55 51 51 58 70 75 83 86 92 97 111 113 116 123 125 122 114 112 107 94 91 86 74 74 69 59 63 67 71 67 68 73 76 82
2 -7 -8 11 4 13 20 25 32 40 39 34 45 64 74 79 69 69 68 68 68 68 78 84 91 90 102 116 130 138 138 134 137 139 134 118 108 104 93 81 74 75 71 68 65 68 69 71 80 73 69 74 79 74
10 -7 13 19 27 37 41 43 50 54 71 88 93 95 95 89 101 98 101 108 109 107 104 105 108 110 119 118 125 133 126 119 115 116 109 110 101 84 68 73 76 78 73 73 79 87 93 87 76 69 74 79 80 75
12 18 26 32 41 49 53 47 47 80 93 103 110 110 103 85 85 107 113 99 96 93 96 114 128 130 138 148 141 128 117 101 86 70 56 55 57 59 67 75 76 76 72 69 74 79 85 77 76 74 76 78 74 69
49 63 58 51 59 81 81 97 94 105 95 93 93 85 75 64 66 61 80 75 93 113 121 124 138 140 105 89 75 64 59 58 61 59 59 57 54 63 67 70 70 68 67 67 69 70 71 70 68 70 67 65 66 66
66 73 90 89 94 104 110 90 103 88 88 83 82 76 76 78 87 85 74 90 109 114 121 118 94 75 66 60 56 50 50 58 54 47 52 50 54 62 67 69 70 67 65 67 68 69 66 64 63 63 60 59 56 59

GFSWCAN_con_3kmhel_027.txt.gz
Helicity
-33 -26 -25 -22 -13 -27 -10 -9 138 -29 -8 224 255 149 111 88 28 130 268 187 136 163 205 151 92 112 125 135 158 131 146 143 119 87 81 67 64 44 52 40 39 49 61 76 103 99 74 131 120 155 201 112 134 100
-49 -38 -27 11 69 93 -14 136 162 220 364 127 120 138 113 49 57 182 280 225 179 146 162 192 246 206 189 140 118 102 107 80 88 94 123 103 98 89 80 39 70 70 75 97 88 104 141 85 113 116 118 114 104 103
35 73 27 31 199 302 317 235 195 135 118 167 123 103 99 14 86 181 185 197 177 156 123 114 131 166 170 252 300 158 193 148 117 161 118 115 103 91 88 63 89 84 102 119 126 106 106 109 96 98 111 111 101 96
167 237 213 229 159 113 69 75 151 165 139 134 123 100 58 57 62 238 246 215 143 149 154 134 66 149 174 136 158 195 134 183 143 146 161 142 133 88 94 109 85 136 101 93 98 64 100 58 146 199 112 87 93 112
74 106 117 143 185 195 212 191 133 135 137 112 88 85 63 66 78 216 139 185 181 143 144 101 97 162 154 128 137 114 73 120 154 166 168 164 161 136 143 142 116 94 136 129 127 201 150 137 176 171 113 173 157 150
159 166 132 119 111 106 98 91 91 87 76 68 65 71 72 89 134 198 127 134 185 82 87 169 143 168 146 143 149 136 150 154 160 175 193 189 160 136 140 138 204 185 181 177 166 150 111 143 213 172 183 209 220 224
129 125 125 137 133 92 90 72 54 64 69 72 79 96 111 110 142 175 105 102 188 28 110 132 158 144 167 146 203 172 176 207 171 177 203 172 165 161 173 154 180 177 173 162 174 137 152 209 202 177 193 189 216 227
164 174 168 210 200 171 169 148 112 121 122 120 127 154 224 253 118 124 128 134 139 45 53 99 139 169 218 191 186 216 191 186 223 182 185 189 189 200 200 232 233 215 213 245 180 189 208 222 267 250 207 177 166 147
174 176 209 203 200 237 180 194 184 164 202 206 196 176 253 159 115 144 184 177 33 62 109 113 121 143 158 170 177 184 189 179 146 191 188 159 193 206 249 242 238 251 247 200 223 272 271 234 197 180 154 138 129 108
178 120 176 206 219 253 187 124 149 144 186 273 280 260 201 150 217 196 156 49 72 52 86 86 115 120 155 156 169 168 175 142 154 160 146 210 233 225 251 259 260 238 204 164 191 208 175 165 150 133 144 119 129 142
172 204 201 278 302 224 165 168 116 112 133 235 244 199 248 267 183 117 83 114 70 110 83 112 144 121 163 151 154 172 141 145 149 144 151 163 189 188 207 217 200 168 178 228 191 134 132 126 113 102 105 120 115 112
144 139 131 176 270 249 123 211 137 173 202 178 174 161 191 210 137 88 127 116 112 116 103 140 159 149 149 148 136 144 145 132 142 146 168 181 201 200 228 199 155 146 180 166 139 130 117 118 122 122 123 131 136 125
131 158 149 124 159 198 233 188 215 255 243 252 280 241 186 153 149 132 113 138 123 122 143 130 159 151 140 156 157 140 134 164 150 194 200 235 196 217 210 198 149 139 152 133 131 116 124 138 145 142 133 132 98 132
157 159 189 203 204 193 174 176 177 204 191 265 267 244 207 134 132 124 153 134 130 129 141 160 189 151 146 153 146 154 180 185 177 180 173 161 174 202 180 140 131 142 149 125 123 132 135 129 137 136 129 132 146 147
137 154 215 328 227 193 155 143 150 97 149 157 161 167 142 120 123 152 111 117 159 146 139 164 181 174 183 171 187 199 178 176 165 206 148 147 147 168 144 122 142 144 127 120 135 150 144 123 129 141 135 134 129 114
69 117 241 295 216 178 138 101 121 81 115 146 190 196 157 158 151 154 163 166 173 158 152 150 156 168 191 189 170 175 183 207 208 195 139 141 155 143 117 140 133 134 133 143 146 152 158 152 141 139 127 127 84 91
41 21 138 166 144 163 173 100 107 127 105 120 145 145 132 149 158 162 158 159 146 155 190 177 186 193 162 175 219 249 253 191 150 135 112 106 125 113 137 170 143 140 149 169 172 151 139 133 128 140 138 120 93 90
57 73 101 71 52 32 40 100 136 118 196 245 221 239 198 150 136 157 153 148 126 121 138 155 123 142 156 150 138 141 135 133 118 102 96 105 121 168 139 129 136 159 173 165 148 142 146 138 135 133 119 107 83 92
-9 18 66 58 15 29 40 30 48 127 170 150 135 112 104 95 90 82 84 95 99 95 94 110 122 155 173 175 145 105 86 96 111 139 152 162 167 163 181 226 203 165 161 158 153 155 152 163 150 131 112 91 80 84
-12 56 102 76 1 -11 16 39 37 48 66 78 91 98 81 79 84 115 151 159 163 135 163 174 186 176 163 156 158 100 98 115 128 155 171 158 162 191 177 164 178 181 177 168 174 169 147 135 130 111 98 78 76 77
7 66 57 22 49 31 17 25 36 48 44 55 58 55 57 41 61 78 97 114 108 132 126 126 129 119 118 132 157 165 163 85 78 100 105 131 147 178 199 215 208 214 208 196 176 161 159 145 118 95 83 79 85 79
21 44 24 43 25 29 40 66 57 53 70 75 84 82 87 94 104 132 123 128 141 158 143 132 149 130 131 174 188 209 169 153 182 231 286 269 200 215 234 225 208 222 220 202 182 155 132 119 105 86 78 97 93 111
16 36 57 62 46 64 61 67 82 92 87 87 80 83 89 91 98 86 124 137 136 127 113 86 82 92 104 113 125 172 272 233 215 233 259 270 273 248 224 226 220 204 179 169 142 127 115 93 99 94 108 112 114 133
43 52 62 68 89 91 75 115 96 108 106 107 104 104 108 98 61 100 132 123 103 78 91 96 67 53 61 92 114 145 151 147 195 259 157 135 164 179 175 177 176 168 148 121 116 112 112 113 108 112 120 116 140 151
71 72 51 109 74 102 128 116 114 106 123 107 91 81 55 6 63 78 66 42 40 46 70 85 82 94 86 88 104 125 157 108 94 128 172 159 140 131 143 126 122 125 122 126 134 124 119 110 111 124 127 134 147 135
104 111 77 71 45 59 60 60 50 51 40 37 30 20 11 22 41 64 53 52 49 55 69 82 88 83 100 105 101 98 106 111 106 129 143 148 150 131 126 124 109 130 141 120 108 110 104 117 123 127 128 127 114 102
82 68 15 -7 -1 6 13 17 15 19 28 32 31 33 29 40 58 65 44 48 51 54 58 62 69 72 69 66 71 81 92 112 123 112 104 114 124 141 154 158 157 141 97 98 87 96 111 115 118 118 108 94 101 102
16 7 20 5 12 7 11 15 20 27 30 30 24 50 63 87 91 84 84 72 71 66 66 68 76 82 87 91 91 90 98 96 93 91 97 108 113 110 110 97 94 78 76 101 101 91 102 98 91 81 82 90 88 80
18 -3 2 19 12 23 30 34 41 49 49 47 61 88 101 121 116 110 104 99 93 90 94 91 92 83 88 98 114 125 134 139 148 148 146 132 119 115 105 92 89 93 95 91 85 81 83 80 72 76 79 77 73 67
26 2 22 32 40 55 64 63 71 66 71 85 101 113 124 126 132 134 136 137 133 129 112 105 104 112 116 118 123 124 124 122 118 124 116 118 118 101 81 79 83 79 76 77 80 77 65 76 62 60 70 71 69 82
17 26 45 58 73 83 81 72 73 84 92 111 128 145 130 102 103 121 129 122 113 106 101 105 111 115 124 133 132 124 116 102 89 82 78 66 67 71 75 83 75 83 81 76 80 75 79 76 74 72 72 74 71 68
60 75 74 81 103 104 92 108 100 105 104 90 98 91 81 69 84 83 99 99 91 96 98 103 110 115 98 89 80 70 70 64 58 74 71 76 73 73 74 79 83 85 84 84 78 76 77 79 79 76 73 68 74 72
66 74 81 80 77 77 82 65 79 81 85 90 86 91 104 109 96 75 62 79 94 95 97 94 84 73 71 68 70 55 42 62 77 62 60 69 68 75 80 80 85 86 80 77 76 73 72 71 73 71 69 69 68 66

GFSWCAN_con_3kmhel_030.txt.gz
Helicity
-35 36 -30 4 35 45 62 72 73 70 91 65 38 31 24 47 -7 -143 -44 27 151 65 102 58 53 100 105 134 229 191 248 219 184 115 97 80 75 56 50 25 33 38 49 56 103 77 38 123 114 121 193 141 144 122
-38 -61 7 26 31 35 37 38 26 58 37 28 6 60 72 69 -148 -101 94 139 130 48 227 209 269 254 165 88 203 145 154 125 109 103 105 96 89 114 111 68 38 49 51 61 77 67 107 90 182 126 157 134 114 126
-39 -44 -50 -40 -27 -19 -37 -21 16 -3 3 40 129 109 78 -65 -146 -19 74 57 21 197 286 257 240 216 199 174 232 197 199 98 114 139 109 97 87 92 102 69 104 74 130 103 138 71 90 113 136 127 232 244 147 115
-67 -86 -94 -88 -101 -79 -48 -38 -64 4 72 58 226 247 150 -21 -25 21 130 370 297 212 293 255 177 180 214 214 208 192 166 251 200 195 146 123 107 70 90 85 115 122 161 76 101 87 145 215 381 401 271 233 236 188
1 21 59 53 77 62 67 20 79 145 84 228 197 97 62 62 11 36 312 347 214 156 165 194 131 175 144 147 139 183 156 181 196 180 170 153 171 155 161 156 133 108 129 151 134 273 194 283 309 278 311 268 241 224
287 343 319 246 402 373 279 192 287 190 128 92 70 70 176 135 98 199 314 168 203 101 100 172 171 175 147 140 109 113 124 137 138 212 216 224 177 159 155 156 217 267 232 260 264 230 210 276 262 252 273 249 235 249
13 43 62 30 37 44 27 36 110 127 123 129 141 140 117 105 168 268 202 179 258 163 91 130 153 221 199 266 334 217 204 236 230 255 247 193 211 211 176 162 226 210 206 207 207 197 333 306 325 314 178 176 196 214
125 66 90 106 94 80 76 115 121 136 138 126 110 97 111 147 84 172 127 191 204 147 125 131 160 210 241 239 285 370 278 239 293 221 223 225 233 234 228 270 258 221 269 261 226 300 450 446 321 248 216 182 209 207
262 198 151 120 102 88 56 51 64 70 85 92 106 137 218 121 162 122 143 256 150 161 217 162 151 246 218 253 243 241 227 241 190 223 231 205 227 247 285 245 261 297 286 310 378 321 284 269 252 238 227 218 206 154
257 317 276 251 168 144 154 120 96 88 84 57 119 259 207 187 109 152 125 132 156 57 65 130 157 186 234 229 240 229 221 181 202 209 198 232 246 241 252 287 271 266 277 267 262 244 238 244 216 203 247 253 233 214
183 319 360 412 293 198 169 164 122 40 64 350 313 266 166 197 195 144 118 146 114 195 95 110 98 110 199 191 192 182 158 165 156 157 165 177 184 170 222 272 277 268 303 230 194 197 193 213 212 227 182 170 163 157
112 158 320 344 303 242 220 157 241 290 291 233 218 306 295 165 132 127 105 146 121 228 150 143 133 136 137 152 133 165 166 159 150 140 186 184 175 166 200 226 228 237 209 232 214 222 232 216 184 175 169 157 142 114
135 156 202 300 318 286 318 237 256 224 244 309 275 239 206 223 107 98 75 125 117 79 129 147 176 149 145 147 154 135 161 174 132 171 164 208 170 200 242 265 233 195 178 202 216 226 208 203 203 166 165 160 129 150
105 173 207 242 204 281 267 269 226 223 285 198 177 166 140 171 107 103 104 89 77 77 142 157 186 156 155 166 144 153 161 148 148 140 150 150 180 223 228 205 255 229 237 206 185 169 146 157 163 152 141 141 154 153
130 174 203 352 259 224 209 184 161 183 299 261 190 168 160 135 114 93 80 117 147 122 129 137 144 149 169 152 161 157 154 140 126 172 137 134 167 203 199 218 205 206 217 179 162 161 150 107 122 141 150 139 126 111
84 146 218 257 254 177 188 169 187 132 192 179 146 128 164 167 172 171 193 175 171 156 155 161 154 154 171 170 181 198 184 204 220 178 154 173 192 188 172 190 141 128 165 190 156 148 151 167 138 130 118 124 76 83
33 123 218 199 165 140 110 102 131 165 121 128 168 215 173 203 220 192 166 159 161 117 141 157 193 222 183 210 247 259 272 212 166 163 124 104 137 136 177 203 221 212 183 162 141 149 150 130 107 137 154 144 114 93
44 24 42 45 69 155 142 126 98 85 139 172 173 201 180 156 160 173 162 183 132 126 137 158 141 210 263 275 257 205 146 139 122 92 95 109 136 175 164 167 148 165 205 191 170 153 143 122 157 159 156 135 115 124
-4 34 98 61 -6 -7 90 129 86 183 234 242 253 218 185 160 140 136 157 164 129 94 90 133 213 230 197 152 160 109 98 95 99 127 164 160 176 177 182 207 230 212 167 154 150 179 174 205 186 168 150 130 118 116
-30 49 80 67 -8 -28 -12 -1 9 45 131 82 79 106 68 81 84 107 155 144 120 96 122 147 162 155 148 173 196 172 117 97 111 135 144 158 165 179 174 178 196 232 231 235 254 226 174 167 169 162 144 124 119 104
-3 33 30 18 34 13 -17 -7 9 23 20 28 34 17 38 54 68 100 137 130 181 177 159 187 188 151 148 131 148 176 187 125 97 96 102 143 159 181 208 253 257 249 275 286 225 220 225 208 181 151 125 117 111 81
10 44 -1 15 2 4 10 45 30 28 42 56 73 62 62 70 88 126 86 138 124 167 130 127 137 121 123 155 162 210 181 190 218 286 365 317 271 281 254 219 264 315 294 247 206 184 178 170 141 122 110 118 96 103
18 9 19 18 10 19 12 38 55 71 67 80 91 93 100 102 112 88 107 127 121 143 133 96 77 80 91 122 150 182 181 147 163 213 266 308 311 287 281 296 257 191 169 167 154 155 145 106 124 102 104 123 108 125
20 11 10 14 33 33 38 76 81 93 94 100 99 100 102 102 75 107 124 109 99 76 94 99 110 43 59 99 131 174 171 130 150 168 164 175 199 192 156 163 169 161 146 128 130 119 118 123 116 121 131 109 111 143
44 39 37 81 57 76 71 64 75 69 82 80 68 76 66 30 66 69 66 39 35 48 63 79 63 99 82 65 79 109 136 119 122 150 156 106 85 96 113 98 104 118 115 119 122 120 125 113 111 120 120 116 137 132
90 90 70 71 57 57 53 57 53 55 42 36 36 16 3 21 42 64 51 54 57 60 68 81 94 63 78 96 92 102 108 95 72 107 131 130 135 116 112 115 95 118 130 123 124 126 119 124 118 117 115 124 127 132
99 97 59 10 13 18 28 23 15 27 37 37 28 26 16 26 54 54 59 66 61 59 67 76 82 82 81 75 75 82 91 107 109 96 87 103 120 138 143 140 141 117 87 103 99 110 109 114 121 126 122 122 140 153
22 14 46 24 26 21 26 27 31 44 45 41 29 59 71 91 95 88 104 88 75 67 71 79 88 94 98 105 107 106 102 85 65 62 78 80 70 79 83 80 60 28 39 81 78 71 102 103 114 107 116 125 117 108
35 15 25 36 33 50 52 50 54 61 54 56 69 101 87 100 126 131 105 98 112 129 116 87 69 52 55 74 100 112 123 135 125 122 127 118 101 113 84 78 77 84 87 89 85 89 89 89 85 88 82 85 79 78
39 18 44 50 54 71 73 74 87 78 72 74 77 90 109 111 134 146 142 142 133 123 112 111 112 124 132 125 107 99 101 104 105 119 113 119 110 90 74 76 95 93 92 100 93 92 87 99 97 89 90 88 89 107
19 27 50 65 82 86 91 78 76 83 83 100 147 179 128 91 96 119 139 123 116 141 123 110 126 132 125 126 127 119 105 97 69 72 72 55 60 69 87 102 93 90 87 82 86 89 82 82 85 87 86 91 91 85
44 57 56 72 105 87 73 83 75 84 80 61 61 61 53 42 79 82 106 132 99 97 110 119 121 113 97 81 71 75 68 57 59 79 74 79 84 97 96 99 95 82 80 88 82 73 72 76 79 78 78 81 93 93
29 40 56 67 68 70 79 57 70 90 90 88 77 80 89 109 95 62 46 64 87 95 93 83 72 64 70 64 63 46 38 69 92 65 70 86 96 75 74 76 91 92 86 85 86 80 70 66 75 83 85 78 75 90

GFSWCAN_con_3kmhel_033.txt.gz
Helicity
18 18 20 -3 10 18 14 -6 61 51 64 89 80 80 100 91 41 103 -73 43 250 182 98 89 113 52 60 126 241 203 379 253 302 295 229 178 99 83 101 79 57 78 103 94 130 95 43 89 127 105 109 208 163 160
22 28 15 11 24 37 19 28 57 59 54 35 53 78 94 70 66 77 27 -7 130 117 121 185 54 219 126 123 301 301 226 166 200 284 233 169 137 131 117 83 68 79 68 59 65 50 32 110 126 142 186 220 220 249
16 -14 20 38 44 34 38 42 68 88 70 49 63 92 72 77 158 -44 -164 -84 127 128 25 158 96 251 431 335 279 257 304 136 266 237 217 166 129 100 116 100 113 145 99 104 109 83 99 230 438 431 404 338 318 275
-63 -71 -33 28 50 52 53 61 62 79 63 60 51 56 29 78 -13 -109 -122 -7 172 110 330 107 188 359 491 325 230 150 196 178 224 236 212 156 134 84 76 70 124 117 160 123 113 178 331 410 422 415 472 462 383 340
-57 -43 -31 -9 35 40 49 70 73 66 67 39 23 29 20 116 14 -196 -153 -150 13 43 83 380 399 438 370 295 208 180 212 312 291 248 186 152 144 149 148 155 148 159 166 182 157 203 285 319 368 369 402 373 329 277
-81 -72 -53 -51 -40 -26 9 9 4 22 6 -13 21 10 80 111 -33 -168 0 -10 -8 -14 119 292 323 295 239 174 216 168 157 205 195 206 214 205 194 164 165 174 217 278 317 260 227 297 369 388 356 320 323 288 297 304
40 -8 -12 3 -40 -51 -44 -26 -31 -20 7 70 71 127 179 -111 -41 89 -11 37 78 59 84 199 302 246 288 274 329 327 278 271 224 254 239 210 235 218 201 229 250 291 293 313 335 353 353 298 288 269 278 276 299 302
308 298 236 118 -1 17 9 -25 -17 54 128 123 214 159 57 -66 -10 19 207 188 130 83 130 188 255 228 276 265 240 315 333 335 356 282 309 279 294 288 252 326 288 296 307 339 386 421 482 395 309 270 256 250 297 285
14 28 76 114 161 185 162 139 183 204 169 150 16 -6 129 76 91 76 119 209 142 79 119 127 180 222 223 258 338 338 298 259 247 248 279 242 288 275 274 259 333 250 269 369 404 380 364 336 305 290 274 267 267 244
113 45 2 28 37 84 51 98 130 127 107 64 152 220 124 75 48 103 70 135 125 128 137 153 147 125 216 241 253 260 265 223 227 232 245 250 268 309 411 352 363 338 338 334 344 298 306 284 256 334 343 324 300 251
203 155 53 43 49 30 35 90 97 104 90 278 207 288 226 142 259 141 144 120 116 136 102 137 138 141 208 208 236 208 203 229 222 235 242 232 227 220 259 294 301 304 287 298 266 259 231 346 356 322 296 266 221 195
280 308 254 160 90 62 72 52 24 225 272 177 144 197 330 149 116 80 99 75 61 107 90 203 178 157 156 188 167 196 166 172 169 157 218 184 172 169 233 227 259 284 296 284 274 309 371 339 298 278 240 201 198 177
184 236 337 387 240 178 85 35 189 117 143 176 218 152 96 197 110 109 111 89 82 77 146 146 130 98 99 126 129 130 159 187 121 150 157 160 138 159 175 228 275 263 278 389 412 368 345 324 273 228 213 168 186 199
245 222 216 272 237 157 194 238 186 203 186 142 116 113 61 117 146 41 102 101 94 90 132 176 155 105 100 129 117 156 163 170 187 189 154 135 132 166 211 274 286 286 344 270 266 267 263 245 233 221 212 177 156 156
210 287 279 406 268 163 118 150 109 116 184 155 138 106 109 55 99 116 82 91 111 88 133 152 146 105 149 134 144 145 159 165 165 154 135 118 123 172 296 310 343 375 293 262 216 188 164 162 184 189 161 152 142 116
142 233 340 419 252 205 171 118 226 199 172 138 116 107 147 133 134 158 168 136 176 132 98 105 118 143 171 179 200 225 203 198 169 155 130 140 186 271 287 288 259 221 195 154 146 143 147 144 145 134 121 108 83 76
209 174 261 189 213 244 202 162 228 236 152 147 229 206 205 221 222 195 190 175 164 160 198 197 202 188 171 186 222 214 205 188 158 162 144 167 233 244 179 130 190 174 154 155 165 182 175 141 117 120 139 97 73 106
132 171 132 104 56 153 158 176 178 138 233 255 246 270 230 207 229 240 219 193 121 121 142 165 149 212 219 220 223 210 184 187 175 155 126 137 164 168 163 171 185 195 194 174 161 148 140 158 191 174 166 176 177 158
5 29 48 5 -8 33 73 104 97 127 158 156 157 147 133 165 194 185 209 195 140 148 188 215 220 272 273 292 283 234 116 75 68 96 124 166 176 175 167 192 225 238 199 174 211 238 273 284 233 198 182 169 163 155
-29 64 56 71 -25 27 120 81 91 146 160 87 95 114 118 142 128 140 182 179 127 107 208 258 258 169 132 125 134 122 99 88 108 128 145 159 174 197 201 216 239 275 315 377 328 267 283 273 224 191 172 164 165 150
-14 42 24 20 59 -4 -53 -43 -16 -15 -8 32 -3 -2 35 62 97 106 111 131 175 179 158 143 121 116 146 174 224 186 224 168 118 93 119 169 180 239 270 263 271 278 261 287 332 314 271 222 193 166 165 153 130 122
-12 11 -9 21 -19 -35 -45 -6 -13 -4 14 41 66 54 49 72 80 82 80 180 147 185 119 98 101 85 103 153 164 201 170 160 214 390 493 372 353 363 348 324 368 386 367 299 241 204 192 150 135 145 155 115 130 151
-8 -8 0 -27 -41 -39 -47 -2 2 14 13 35 63 68 79 83 85 51 101 117 109 134 125 87 69 78 86 117 166 184 201 186 190 225 280 344 364 312 277 299 253 245 245 232 180 143 132 125 128 126 126 133 148 164
-1 -7 -3 -12 1 -6 3 47 49 47 55 69 79 89 92 80 55 85 90 86 87 67 118 104 84 19 31 81 117 146 143 130 159 195 180 170 192 216 197 192 199 201 161 126 135 137 128 113 114 118 123 133 153 152
27 23 23 30 28 46 54 50 80 66 71 78 65 62 43 22 51 55 55 34 35 50 86 96 47 88 74 59 69 101 148 102 105 143 191 120 79 90 115 129 148 161 131 119 123 122 120 129 133 128 130 141 145 139
69 65 53 41 46 53 38 47 41 43 30 34 30 7 8 17 39 51 40 26 32 40 59 94 74 36 59 69 74 92 105 84 79 116 137 143 158 146 126 96 92 104 106 93 109 130 136 140 143 151 144 143 142 159
86 90 53 2 8 11 36 30 24 39 42 31 18 18 22 39 50 46 39 48 38 36 49 72 88 88 71 53 56 74 94 104 95 89 86 106 115 115 105 100 85 51 59 74 76 87 94 103 112 121 128 137 141 136
33 22 57 29 33 23 21 26 36 48 43 35 30 64 70 85 87 75 91 82 60 58 52 61 74 84 96 103 107 115 122 113 65 99 95 90 105 87 68 35 28 11 16 28 31 37 70 83 97 97 113 116 116 118
23 -2 16 24 26 41 43 45 52 60 51 49 71 91 86 100 126 119 122 120 153 175 127 106 63 55 67 73 111 133 153 163 137 135 128 95 68 75 67 61 46 51 56 77 93 95 96 101 104 96 94 115 115 104
30 4 20 32 37 48 51 60 78 73 78 81 70 83 106 107 132 148 149 136 125 112 120 139 133 138 158 129 88 87 72 66 74 83 85 81 62 56 62 69 76 69 83 93 90 92 102 114 110 112 117 120 123 112
-12 -1 18 30 46 54 62 51 58 59 64 65 112 106 86 74 86 118 158 108 105 202 110 96 106 103 103 103 97 87 75 51 48 48 35 39 53 64 75 78 91 100 101 98 90 91 94 100 97 93 93 95 102 107
12 14 18 36 47 58 64 64 68 79 64 39 18 42 33 53 72 64 80 92 86 90 96 91 78 60 61 52 55 47 37 49 66 47 53 63 66 75 82 93 102 100 98 87 90 96 99 94 89 87 82 96 89 80
0 14 32 49 70 92 83 79 67 99 112 85 70 72 68 75 67 47 28 37 62 72 72 62 50 50 63 62 69 82 119 88 84 99 99 74 58 73 79 83 92 91 93 91 93 96 99 100 97 93 86 93 91 96

GFSWCAN_con_3kmhel_036.txt.gz
Helicity
69 57 45 30 19 12 7 19 8 -22 -10 14 32 38 72 56 20 119 -13 -53 57 279 262 131 164 86 130 119 145 156 218 285 300 266 229 239 191 201 203 136 145 167 187 178 220 165 56 77 156 130 99 166 182 164
49 28 39 22 -2 4 15 -1 10 6 -36 -27 -38 12 67 43 32 95 -52 43 -11 198 146 233 176 292 87 161 154 188 185 210 205 237 264 248 238 266 223 140 138 133 105 94 78 46 89 122 100 144 159 212 179 185
40 53 21 23 21 13 22 36 -7 44 50 15 -3 20 49 93 64 159 26 -62 4 39 76 208 205 127 77 77 167 200 258 181 270 276 146 223 250 234 220 163 155 113 109 109 118 143 202 281 337 302 263 276 259 236
39 28 37 16 10 15 13 65 24 66 61 50 99 80 100 104 104 130 -4 -71 -17 79 2 109 102 131 182 166 281 179 148 257 311 295 161 191 233 200 164 133 175 139 180 153 194 217 345 349 363 360 411 386 394 360
-14 -27 31 43 57 55 73 82 60 57 45 99 121 123 127 130 85 117 102 -183 67 168 -4 33 155 118 153 143 231 191 248 373 358 395 176 209 238 239 245 214 162 187 216 223 181 153 230 255 316 331 389 359 324 345
-51 39 51 55 60 57 62 58 72 64 39 65 91 85 65 58 49 27 -65 4 -104 73 164 94 111 158 211 159 336 154 262 356 337 323 281 152 280 237 229 205 198 198 188 201 182 287 324 392 396 342 371 347 343 340
-75 -64 17 58 58 49 53 42 47 53 65 78 39 33 49 9 13 41 98 108 47 113 123 158 195 145 247 271 392 254 313 328 341 313 294 204 245 219 202 180 188 285 329 319 364 453 391 325 323 358 358 340 349 351
-69 -62 -52 -29 52 55 54 54 46 48 43 26 13 37 13 -24 6 33 107 92 46 148 70 64 114 159 566 290 273 341 298 317 153 282 243 215 251 286 241 242 276 354 433 369 360 293 352 407 400 372 339 343 403 379
77 20 -7 -44 -46 1 14 12 28 37 41 33 18 11 42 119 -1 -180 12 5 44 122 60 39 86 247 339 359 350 281 217 244 211 120 164 214 261 233 258 256 295 291 293 366 415 377 382 391 350 329 347 354 351 326
101 99 80 31 19 -23 -30 -17 8 8 21 20 69 212 76 15 -244 -123 52 150 40 32 48 111 162 200 163 256 315 256 282 234 221 249 245 286 293 299 356 324 304 277 279 343 424 379 351 334 319 311 305 321 334 302
88 75 82 106 103 89 26 -19 -10 35 55 53 136 49 21 145 96 26 25 72 94 80 92 135 160 145 258 196 187 179 164 170 139 133 161 163 190 248 285 343 301 271 249 249 246 255 272 307 314 356 365 347 315 276
28 42 49 73 72 38 40 82 64 84 164 94 80 130 40 53 135 156 155 132 102 90 125 122 149 114 154 180 144 167 183 153 137 170 223 191 214 229 287 311 318 296 284 306 309 320 314 307 313 332 318 294 265 225
115 8 37 30 37 32 -32 29 153 130 78 63 179 89 87 88 88 101 127 108 83 69 126 120 147 129 127 141 141 134 157 164 145 161 161 171 184 227 259 272 332 395 410 401 393 378 396 378 324 337 318 259 196 182
260 184 94 61 16 -4 15 23 14 82 168 130 78 181 95 85 63 42 72 66 60 69 96 120 181 153 141 225 125 148 163 139 170 169 167 170 121 150 209 295 381 348 349 357 361 360 362 362 357 276 188 143 153 164
259 235 271 261 155 122 109 136 191 111 122 98 61 102 100 42 43 4 6 27 33 22 86 152 166 110 140 123 142 129 130 122 146 163 155 147 191 257 298 294 274 275 277 285 290 326 296 238 205 182 148 145 149 139
195 241 426 336 145 105 115 155 179 132 127 98 112 79 75 99 161 139 110 99 74 66 117 160 164 195 206 173 191 223 176 182 154 154 129 150 195 231 250 284 285 261 249 248 226 193 167 161 153 156 148 129 123 116
282 217 314 291 113 119 157 126 131 111 89 100 126 156 102 119 154 158 121 113 113 96 144 147 140 131 112 169 224 239 229 200 167 160 158 169 207 264 286 277 237 170 152 155 140 129 126 133 149 146 153 135 132 110
163 223 142 168 187 163 176 178 105 69 101 113 106 188 176 198 200 199 200 188 132 172 201 206 198 246 267 277 302 346 291 217 152 129 140 146 173 165 160 141 137 149 159 141 139 143 151 169 196 202 181 176 183 152
101 105 112 87 60 89 139 171 203 234 237 227 237 223 187 174 197 178 189 193 168 149 158 176 198 267 278 289 286 285 222 157 116 91 97 121 114 115 131 163 168 165 165 189 243 272 280 278 257 238 223 202 193 164
28 128 145 141 65 64 71 92 135 137 204 157 153 164 122 130 134 182 210 220 190 167 235 259 274 268 257 236 182 142 108 80 74 97 128 150 163 192 197 212 260 284 299 307 338 349 362 355 305 260 241 217 193 177
10 66 37 56 108 63 -8 -15 24 -3 -6 34 7 26 47 71 125 155 192 207 228 157 159 144 105 81 91 108 138 134 152 136 132 113 135 214 243 288 295 321 321 351 361 352 348 326 297 268 234 217 209 198 171 121
-7 9 47 103 -19 -66 -85 -28 -43 -27 -4 17 42 38 55 69 80 95 100 211 175 192 133 103 100 88 107 149 138 163 149 151 204 313 388 342 332 331 336 328 344 366 343 280 255 246 223 204 192 190 167 157 154 154
18 41 19 -17 -56 -75 -62 2 -7 14 16 32 42 55 63 79 66 50 97 146 146 143 127 45 42 67 93 116 151 189 189 163 185 209 241 272 280 276 274 280 254 243 238 227 199 203 203 177 146 129 131 141 151 165
24 -6 -9 -22 -20 -37 -15 35 47 52 56 60 71 78 82 81 49 85 89 95 89 74 104 111 41 28 56 100 114 121 123 95 117 169 165 154 183 202 192 211 236 241 197 175 172 162 149 133 127 127 133 146 159 150
23 21 16 26 21 40 49 50 82 63 59 64 70 68 47 30 56 60 52 41 42 62 74 39 35 42 42 49 64 83 100 78 87 129 156 107 87 103 136 155 176 176 141 136 147 128 128 129 138 153 160 158 155 146
69 54 54 50 58 64 45 67 59 58 55 56 32 12 26 38 53 65 49 39 35 41 51 57 30 37 66 68 84 107 94 68 74 124 147 143 137 120 121 126 123 118 93 74 93 114 125 121 116 129 133 153 169 181
116 118 94 24 17 11 30 24 25 46 52 49 35 53 53 69 74 67 46 43 39 32 42 61 66 71 73 80 73 90 105 117 107 101 97 127 134 120 84 88 82 50 47 50 43 47 63 79 98 115 128 148 147 147
84 55 83 34 30 21 18 29 42 53 47 43 59 93 85 94 103 84 80 65 54 56 65 72 80 81 82 93 107 116 125 97 107 109 114 118 114 116 109 67 41 49 41 42 42 53 69 78 94 112 113 118 128 148
38 -2 16 34 23 38 38 33 38 51 55 65 87 101 104 116 137 124 121 121 118 105 116 117 103 78 82 98 123 143 158 134 101 107 102 89 94 89 88 95 108 91 77 74 81 86 85 89 93 91 91 96 94 113
19 9 20 27 34 36 31 44 57 67 73 76 77 101 142 132 146 122 126 123 113 111 105 108 106 116 104 82 71 83 65 57 64 56 69 62 51 53 55 62 68 87 106 114 118 116 115 132 126 136 134 127 126 123
-16 6 24 21 21 -0 16 57 63 79 68 66 74 80 77 74 98 143 149 115 130 106 100 83 85 75 77 82 77 76 79 62 46 47 38 41 50 58 70 80 84 94 95 101 106 105 104 108 110 111 107 107 88 97
15 21 21 23 6 -5 31 58 78 106 73 52 35 52 54 79 75 56 49 46 71 81 78 76 69 58 44 53 69 78 92 75 74 68 73 69 72 71 74 80 90 101 107 110 110 113 115 111 106 117 119 109 93 89
14 30 39 41 40 48 45 96 120 143 117 80 64 65 72 72 68 43 36 36 38 42 46 48 55 68 110 116 91 77 71 61 65 92 109 108 109 96 99 105 107 110 108 106 105 111 112 109 97 87 85 90 91 93

GFSWCAN_con_3kmhel_042.txt.gz
Helicity
-6 -7 20 9 5 11 156 319 313 145 130 151 132 72 78 145 108 185 54 96 241 205 225 180 191 191 252 94 137 105 148 111 169 195 190 202 186 190 193 235 285 320 334 279 289 250 136 181 317 262 132 91 168 179
295 325 347 295 308 274 211 141 96 104 122 95 92 117 151 163 145 184 -113 -247 185 169 153 94 110 143 145 198 148 111 117 96 220 241 260 248 203 204 241 284 311 286 260 245 191 161 163 167 155 139 125 88 128 184
59 73 78 99 104 97 85 96 108 121 153 131 93 164 172 119 104 109 -195 -176 117 254 127 112 185 132 46 85 122 172 166 137 187 211 251 225 190 204 235 254 305 285 256 243 229 174 178 187 137 104 116 97 134 151
47 44 46 52 57 63 78 94 103 114 114 124 122 123 106 73 65 96 -224 -289 176 235 75 118 76 104 57 21 75 114 100 121 71 183 219 240 190 153 218 213 234 232 302 233 242 205 207 132 114 130 176 202 262 291
4 14 9 3 -6 -7 -3 4 13 34 51 63 71 72 73 73 74 105 86 62 52 74 126 166 108 47 37 41 87 66 67 73 90 184 236 250 173 119 188 234 252 239 254 305 198 254 305 142 180 195 256 272 283 361
26 27 16 7 -2 -8 -6 -27 -29 -18 3 11 13 23 33 47 69 150 -4 -72 74 49 172 209 122 91 110 68 59 94 94 168 93 136 180 208 211 200 171 181 171 172 228 212 204 235 243 253 344 306 358 339 345 359
-2 -5 -3 -20 -1 -31 -38 -17 -13 -16 8 12 29 12 20 44 104 154 115 4 25 45 -58 340 259 231 176 138 169 155 183 198 154 193 195 174 217 225 125 190 171 217 243 294 258 376 339 279 285 357 427 446 455 467
8 23 22 21 31 -15 -26 -16 -8 -2 23 32 52 49 38 27 52 141 199 47 56 91 11 264 227 230 103 80 243 208 239 251 220 164 227 222 198 234 145 225 259 277 330 377 362 255 211 389 457 472 465 484 537 509
42 33 26 18 16 -24 -31 -32 13 26 -14 -26 16 42 111 92 128 67 19 -29 -41 2 34 135 144 289 58 10 146 216 234 224 220 220 238 229 296 216 221 222 181 184 177 271 359 189 285 449 499 501 527 528 558 518
23 30 40 44 -38 -24 -5 -16 -19 -38 9 24 102 141 117 97 70 80 15 -34 -11 55 20 149 60 100 9 24 69 47 166 212 230 260 281 302 272 293 262 233 330 231 234 337 438 305 378 467 487 483 476 468 531 550
23 25 27 20 19 12 -54 -39 -17 -1 11 140 118 162 198 46 172 116 42 67 62 21 -4 63 20 29 5 22 57 74 94 143 287 309 295 247 239 281 401 315 234 242 91 145 176 241 269 352 412 478 527 535 550 394
5 26 29 35 26 12 15 37 56 52 65 149 99 119 72 59 155 41 34 67 30 -12 -16 -6 86 122 83 10 0 40 160 193 194 200 313 265 328 227 145 187 272 272 249 232 231 276 284 343 377 419 421 391 357 280
16 9 -13 -61 -72 -49 -39 -38 58 86 41 196 55 83 84 98 105 65 -11 -35 25 52 71 91 155 124 128 113 83 53 66 170 129 257 189 176 176 178 184 214 268 291 308 313 328 356 371 367 347 338 309 319 330 319
-53 -65 -47 -50 -67 -65 -42 -46 -19 -26 188 125 103 55 88 52 29 48 88 108 60 80 63 86 95 62 63 81 87 81 87 82 50 67 104 84 122 139 179 183 212 244 263 272 272 289 290 261 285 315 272 244 259 313
-21 -36 -24 -53 -42 -55 -78 -151 -40 -32 108 29 109 67 22 68 116 132 130 98 92 111 96 98 110 56 111 73 96 77 73 71 122 121 105 112 123 136 153 172 199 225 231 218 215 248 262 281 294 296 287 260 276 268
-9 -152 -123 -64 -24 -41 -73 -68 5 89 82 102 119 96 173 136 170 144 143 118 121 113 116 107 79 74 100 113 131 168 179 161 116 79 66 62 102 123 138 174 222 221 224 225 222 243 267 264 253 241 243 238 232 211
-20 -60 -116 -45 26 -45 73 30 63 77 111 69 113 151 100 82 97 124 135 133 135 69 78 88 77 79 79 110 140 147 133 128 161 103 51 65 109 126 152 180 195 193 191 187 211 232 231 200 211 226 233 205 200 187
167 83 97 172 112 20 60 76 115 78 112 109 112 149 116 140 157 139 188 176 50 49 74 87 89 134 125 120 132 174 191 232 161 136 162 156 150 129 120 141 141 154 169 193 186 165 177 192 199 187 183 181 213 217
18 -35 -25 22 -16 -10 26 96 51 62 115 96 115 110 87 118 173 156 145 163 160 105 63 79 101 173 203 225 249 282 268 203 185 156 181 210 176 142 141 156 167 174 178 181 201 231 240 238 229 216 210 212 226 217
91 131 79 -9 1 43 56 74 54 40 94 52 56 130 83 98 112 158 227 207 123 68 103 128 194 217 232 251 196 189 169 148 109 127 160 189 191 213 221 205 213 230 257 265 274 256 258 281 271 256 246 228 208 196
168 182 135 146 199 77 -6 -29 -23 -22 -31 0 13 39 30 116 187 208 226 276 365 215 192 186 176 167 131 118 129 109 131 123 156 121 91 137 170 180 193 199 219 254 274 276 288 302 296 261 223 208 202 196 186 187
86 134 203 255 116 3 -77 -32 -54 -45 -26 -21 24 17 14 40 99 139 158 250 214 219 178 162 157 110 122 150 139 140 114 135 155 163 183 162 192 200 217 199 205 239 261 250 230 226 220 203 187 186 191 193 181 173
25 80 72 18 -50 -97 -91 -60 -51 -36 -55 -37 -7 7 9 16 10 -19 23 102 105 122 111 88 88 87 91 105 128 164 151 126 137 142 139 137 154 165 178 210 197 175 183 195 162 153 157 162 169 157 146 141 138 143
28 16 -19 -51 -63 -77 -80 -36 -27 -30 -44 -22 2 -3 11 -11 -17 13 45 62 77 80 99 105 70 79 87 135 159 135 112 65 78 125 110 85 110 136 120 127 141 143 120 105 114 116 121 124 127 133 137 134 148 147
8 12 -14 -14 -22 -2 2 -7 14 -4 12 9 13 8 2 -11 9 14 23 35 49 70 78 83 92 89 77 73 83 93 102 74 68 98 129 77 38 37 71 73 87 100 86 86 98 98 99 105 113 115 114 114 131 135
24 21 19 16 35 42 12 48 40 38 36 52 37 15 21 48 70 89 80 85 89 94 95 83 69 70 91 83 71 80 74 47 48 99 114 105 91 57 56 70 67 77 65 38 44 57 62 56 64 86 90 87 93 111
46 51 83 61 30 35 57 50 38 58 61 52 24 39 59 107 103 96 100 106 97 96 89 88 80 76 60 56 66 70 73 77 64 38 33 63 63 54 53 47 53 37 38 46 45 42 47 56 66 68 77 99 96 94
61 70 95 73 85 62 54 49 49 47 28 27 53 89 87 94 101 118 121 106 99 94 95 88 83 68 68 63 55 54 66 51 46 35 23 37 42 37 46 38 40 62 56 66 62 62 62 63 71 77 89 93 100 103
69 32 53 126 72 63 58 33 27 28 19 39 66 70 72 88 96 105 112 95 99 84 78 68 67 57 77 94 108 100 92 61 60 70 58 41 45 37 55 47 52 57 66 76 77 80 83 109 111 101 107 116 123 120
92 9 51 63 55 42 31 19 28 27 63 54 55 85 146 147 139 108 107 108 96 81 59 63 57 59 47 53 55 70 66 51 30 18 27 25 30 41 45 47 53 51 56 66 71 78 98 110 112 119 125 127 131 130
-9 20 31 26 12 1 -8 -16 20 56 52 77 99 114 109 102 109 116 100 66 55 53 66 70 69 56 62 62 56 55 42 26 35 34 37 40 40 46 48 45 49 59 69 78 78 80 79 85 87 85 87 96 103 115
15 15 9 10 3 2 -15 31 44 57 47 65 70 83 77 77 69 43 40 45 61 62 40 44 57 51 35 24 20 16 30 35 37 43 49 53 51 41 44 51 60 67 73 78 75 74 81 86 82 84 89 86 89 96
28 33 28 29 24 20 26 69 78 85 94 99 94 77 65 71 64 35 34 35 38 40 40 36 26 14 22 34 44 47 53 53 45 40 41 41 44 45 50 57 62 69 78 79 76 78 80 84 90 92 90 91 89 93

GFSWCAN_con_3kmhel_045.txt.gz
Helicity
37 18 11 14 12 25 31 23 23 33 185 226 297 157 103 125 133 292 289 191 139 55 161 199 262 180 183 123 202 224 247 189 204 161 130 118 90 140 134 120 164 216 233 249 299 251 132 200 300 232 178 123 108 134
144 -9 6 15 22 33 31 25 28 189 298 266 135 74 129 110 92 284 236 203 174 124 99 152 295 272 268 102 208 141 149 147 236 198 173 145 140 156 133 116 124 186 210 219 223 260 238 149 162 210 181 129 100 160
59 132 133 34 18 29 38 87 243 378 153 71 184 171 135 159 138 289 286 204 38 -52 -196 -14 152 131 177 174 209 256 205 128 163 210 174 157 146 241 195 188 121 162 155 211 238 184 195 167 158 177 175 120 89 158
47 70 108 178 263 249 260 275 193 55 137 213 203 108 84 139 203 294 277 107 15 34 -125 -37 -19 62 28 43 90 109 115 220 204 174 129 196 180 191 134 146 164 133 210 199 238 210 183 117 152 193 189 157 176 228
72 71 76 82 99 116 117 127 124 142 189 180 159 154 140 141 208 231 141 21 -87 76 84 -52 54 92 72 21 28 62 67 106 164 190 207 149 173 185 230 215 181 236 208 254 206 190 205 149 233 239 203 179 195 304
22 21 26 36 57 70 83 122 160 156 150 136 141 135 115 97 179 190 125 47 -29 -94 17 107 -16 28 60 56 47 30 40 94 89 108 138 138 159 198 210 191 163 177 186 164 170 196 206 121 161 236 230 241 268 325
-12 -8 14 15 -9 -6 27 65 78 76 92 105 90 80 77 87 155 165 -22 -91 -100 16 69 6 138 35 82 63 72 84 109 127 113 107 98 113 163 168 199 167 183 208 190 170 154 150 187 103 161 253 286 335 377 396
17 44 43 18 -5 -10 -15 -12 15 51 75 81 69 70 62 64 106 137 127 -31 111 127 101 40 89 156 69 60 67 79 111 132 147 154 144 133 133 188 165 197 236 193 184 207 238 233 192 335 297 337 352 374 433 453
53 40 9 -16 -33 -31 -7 1 -5 -9 -4 -13 9 20 71 56 132 125 93 22 138 49 71 85 186 148 101 94 141 114 173 169 167 176 180 154 203 180 192 149 162 182 219 243 324 241 276 280 282 307 366 380 463 478
61 61 45 24 -57 -29 -3 9 -5 -17 -8 16 29 84 67 -1 18 52 105 100 27 -41 -52 -27 144 178 135 112 161 61 214 264 173 192 188 201 201 226 246 225 165 162 143 176 275 268 254 315 255 385 403 413 453 463
64 57 56 64 47 12 -14 14 8 8 14 42 -172 3 34 34 162 115 22 -24 -28 -33 -98 10 118 86 23 38 125 29 44 118 195 158 179 140 189 274 285 235 214 194 171 223 247 239 240 310 286 310 339 376 422 475
39 60 72 74 68 85 47 26 -3 23 -130 122 97 79 83 193 87 36 21 6 3 20 -1 47 56 59 24 -3 9 26 -12 54 68 177 183 171 253 284 283 309 310 286 310 295 188 158 233 165 244 326 362 414 468 480
1 2 14 27 42 57 -3 17 -27 107 166 100 101 154 103 108 -136 -94 19 19 68 32 56 49 77 51 34 47 22 26 45 58 72 140 182 141 208 353 349 263 247 239 187 235 263 293 282 285 320 385 414 397 424 427
-18 -9 7 6 1 -30 -84 -234 -165 75 41 60 63 69 86 4 -31 -44 -11 21 28 31 61 81 105 87 95 64 71 87 80 61 62 135 175 191 99 41 41 69 107 148 179 232 242 244 287 327 340 330 326 279 316 327
-26 -23 -9 5 -6 -28 -112 -186 -178 11 47 72 36 -55 -7 -7 33 41 50 63 54 112 129 115 77 63 74 62 67 59 87 144 121 113 113 107 83 73 100 132 149 172 195 220 226 251 271 296 328 327 334 294 267 251
-50 -71 -39 -25 -62 -146 -142 -117 -52 65 209 155 24 26 86 73 195 204 216 170 131 143 135 126 115 54 110 87 89 127 100 103 101 107 188 139 112 117 115 149 149 148 158 166 181 199 236 268 270 256 242 269 271 230
-130 -113 -98 -119 -107 -164 -112 7 52 45 95 97 72 131 97 125 182 186 161 159 165 61 60 77 63 87 89 101 130 135 134 179 246 264 131 119 131 122 107 122 142 152 156 167 183 198 220 222 240 262 268 221 197 200
-36 -29 -17 -38 -22 75 112 93 127 148 152 140 122 130 118 137 180 166 190 153 38 33 47 55 58 97 94 104 123 156 167 201 181 160 208 215 169 159 151 169 180 183 178 183 193 181 163 164 181 179 191 188 202 198
29 38 56 8 30 136 201 214 172 130 144 104 85 59 57 112 162 146 160 186 147 84 44 60 87 148 156 169 187 219 214 186 184 162 185 255 263 228 214 213 217 224 224 200 201 205 213 220 178 159 160 163 186 185
105 156 113 66 123 175 114 110 110 75 106 82 77 125 92 113 106 167 205 154 71 31 108 125 157 155 162 181 189 165 136 120 71 162 178 211 199 206 217 187 182 179 200 218 235 225 224 256 245 211 189 175 171 174
75 91 77 84 164 62 -37 -23 -32 -16 -32 -15 -3 34 12 96 202 213 217 253 284 167 81 72 80 108 95 98 102 90 121 124 130 84 87 145 167 171 185 191 194 215 224 221 222 240 245 216 195 183 176 169 156 156
-146 -148 -46 67 21 -16 -77 -13 -70 -74 -58 -54 -30 -35 -28 7 53 92 92 150 68 70 37 37 77 86 101 131 112 109 85 102 121 139 161 148 189 198 211 196 192 210 226 210 187 180 178 170 156 155 154 148 145 144
-125 -67 16 15 -31 -68 -61 -24 -71 -56 -78 -60 -31 -7 1 10 2 -32 -10 72 57 53 42 57 79 96 107 105 126 154 129 118 138 139 131 128 135 143 160 183 159 140 148 154 124 121 124 126 133 123 119 127 132 151
31 28 -12 -58 -61 -81 -84 -48 -24 -20 -26 -13 10 20 32 23 16 22 35 64 83 76 88 100 73 87 109 155 174 145 96 56 64 102 87 67 88 106 89 90 103 104 86 67 77 84 94 102 102 106 111 117 127 133
29 33 -19 -3 -37 -42 -32 -33 -12 -22 2 14 27 15 4 6 24 31 36 54 70 93 102 102 108 107 101 99 101 110 107 77 75 95 121 67 33 28 56 65 80 83 71 74 78 78 71 66 72 79 86 90 112 122
31 12 -0 -21 -16 2 -35 -0 -11 5 11 32 30 14 15 39 62 85 72 75 90 104 110 104 92 94 114 90 72 79 75 49 42 79 83 78 77 60 58 66 61 69 60 41 41 53 60 57 62 78 72 83 88 94
40 28 33 38 17 27 49 40 30 40 47 32 8 22 44 83 80 75 98 107 105 98 84 86 86 87 82 85 87 81 81 77 65 42 27 47 43 32 30 25 32 23 32 42 43 46 46 48 48 53 50 55 62 68
40 27 60 57 74 49 39 29 27 29 12 10 27 49 57 60 74 85 104 109 95 87 96 97 91 73 76 74 67 66 69 42 33 26 17 30 28 24 27 20 22 32 33 37 36 37 38 45 53 60 63 66 68 72
59 29 42 90 53 47 47 15 -4 -7 -12 14 43 49 51 54 63 86 99 87 74 81 86 81 82 76 86 87 88 81 74 50 47 60 51 45 51 46 54 44 43 48 49 51 48 52 68 71 71 65 59 57 56 54
47 -1 32 54 48 22 -10 -23 -8 -2 33 36 38 58 100 104 108 81 89 93 89 81 62 52 39 46 56 60 61 67 65 50 43 43 49 45 42 41 46 46 44 44 45 44 46 46 53 63 54 60 59 61 64 65
-7 17 29 5 -26 -55 -56 -55 -16 32 40 65 66 78 77 91 99 101 90 65 56 55 60 64 66 54 60 62 57 53 48 39 43 43 41 41 45 43 41 43 45 44 44 42 41 43 43 48 51 48 49 52 54 61
5 -7 -27 -41 -59 -64 -20 28 40 49 41 50 43 56 66 73 60 29 28 36 47 55 42 50 52 41 37 37 38 35 38 44 50 52 47 46 44 43 43 45 48 47 45 46 47 45 44 43 39 40 41 41 47 55
15 10 -2 -6 -13 -17 -5 47 59 66 72 64 61 65 66 74 67 35 31 28 41 45 40 31 25 33 46 53 55 56 53 50 41 35 34 41 48 44 51 56 52 50 51 55 57 55 51 50 50 46 43 45 47 56

GFSWCAN_con_3kmhel_048.txt.gz
Helicity
1 -1 -8 -18 11 1 15 12 24 -6 43 49 56 14 139 210 239 309 261 241 150 93 196 190 139 70 78 97 140 183 323 239 138 143 132 97 86 126 110 80 138 167 148 170 157 154 85 161 222 163 109 81 81 68
32 -11 -14 18 3 -4 -35 21 33 59 70 63 14 79 384 204 306 346 412 285 281 259 180 214 184 219 188 69 130 130 232 186 187 152 129 128 110 88 76 46 119 153 143 156 119 130 160 140 118 96 109 90 108 79
58 1 3 13 7 2 16 10 23 22 -1 13 25 294 236 150 323 353 407 386 332 169 54 61 198 182 155 110 142 118 149 152 157 205 172 128 99 68 99 75 54 96 107 102 87 86 73 69 72 144 117 123 143 112
71 72 24 -8 7 12 33 45 27 29 14 97 251 210 98 64 263 315 377 255 228 129 -36 -96 -120 138 109 98 66 101 95 151 135 139 148 131 94 86 60 41 88 89 103 116 67 64 76 59 87 103 138 159 155 130
71 94 119 129 99 86 186 211 231 198 219 256 157 153 193 326 263 320 221 179 136 166 -15 -169 -38 123 170 221 26 58 140 131 200 193 193 152 147 111 112 144 108 143 135 173 160 48 87 17 74 97 86 125 143 155
59 83 89 91 48 108 109 107 53 39 40 96 137 151 217 240 276 284 127 129 141 98 28 -23 -7 -60 60 55 60 -2 53 162 231 213 197 192 192 145 107 82 66 90 113 73 94 97 88 111 126 96 37 129 162 156
33 32 61 88 143 125 93 174 252 189 117 127 202 223 178 158 134 111 89 54 89 45 0 42 -38 -22 148 139 10 30 30 85 114 133 231 195 172 165 153 91 128 88 81 119 137 114 95 110 123 110 116 178 196 245
33 19 34 51 82 109 93 118 152 158 164 128 94 66 91 147 108 105 84 43 17 -13 45 138 54 44 57 88 42 53 56 59 65 80 120 104 107 143 126 56 54 118 153 145 138 155 154 135 188 211 190 181 272 278
28 28 4 -9 2 30 28 45 53 60 51 50 63 101 132 91 47 77 7 -7 142 105 -7 93 183 173 87 98 82 108 96 65 117 104 82 89 102 130 147 72 72 99 144 157 180 166 162 173 173 200 205 264 316 355
33 -7 -17 0 -21 -20 -15 53 105 100 89 93 133 145 73 -9 -34 23 20 54 120 75 39 24 76 62 68 89 68 48 83 89 82 111 114 142 110 156 195 196 168 116 46 76 142 152 182 182 166 215 249 272 305 284
45 38 -18 5 -22 -32 -34 -17 12 23 58 111 116 94 30 -30 122 104 114 2 69 33 48 24 105 155 88 75 92 87 61 59 83 147 159 135 185 172 228 223 189 177 139 129 123 147 127 141 202 276 293 275 303 503
48 57 9 -16 -18 1 -20 -4 15 61 35 89 60 203 127 190 203 154 81 -15 -11 19 21 53 -1 -16 73 60 109 137 61 14 73 158 209 190 224 276 207 207 241 275 222 195 251 236 219 216 234 262 320 359 493 442
48 58 50 19 15 85 38 -7 -9 -30 44 87 41 236 186 149 105 19 -10 -53 -11 31 23 61 6 26 23 33 45 80 93 42 56 95 160 232 300 298 274 238 280 310 308 308 312 327 313 371 379 374 361 348 388 469
24 28 51 40 78 21 -34 17 21 45 -5 162 132 114 127 -19 -33 3 52 11 8 14 46 84 84 33 22 17 45 58 106 119 117 115 133 181 219 199 138 147 128 133 144 140 146 173 228 286 300 294 293 311 339 343
16 15 17 9 -50 -111 -46 24 50 8 26 59 106 23 -11 -3 -20 3 -12 -41 0 29 61 60 57 60 100 44 91 80 107 128 161 144 135 206 232 110 71 70 85 97 111 139 156 191 213 226 284 314 268 253 285 316
10 34 -3 -55 -77 -136 -145 -73 14 -18 21 15 -3 14 27 -18 35 33 37 47 66 83 96 95 98 75 127 105 109 119 101 116 139 157 207 238 147 131 144 137 142 144 162 155 162 175 200 234 239 248 276 287 277 238
-2 -13 -13 -48 -80 -135 -161 -101 -6 11 60 -9 -4 43 59 50 94 160 172 145 113 85 104 137 83 83 124 98 103 114 108 130 171 184 193 206 142 129 135 154 176 175 174 167 155 178 188 176 176 214 252 213 196 192
-39 -72 -67 -83 -79 -65 -20 -20 50 108 45 81 79 90 115 142 172 172 180 146 42 27 66 76 62 103 99 110 118 121 133 163 136 140 154 172 165 179 172 174 154 148 157 161 164 166 165 162 170 153 159 159 175 175
-45 -28 1 26 41 67 88 175 175 165 139 125 85 100 129 117 115 122 118 113 88 49 21 55 74 128 129 121 129 131 111 106 110 121 136 180 204 195 184 183 182 178 179 167 159 159 171 184 153 133 135 134 150 142
125 97 78 90 104 118 122 114 110 67 117 89 88 88 88 94 76 114 150 112 54 39 116 102 99 77 76 96 95 84 75 70 57 121 151 146 153 177 188 155 142 137 154 184 211 195 181 197 198 179 170 167 158 164
110 88 101 117 128 148 31 68 83 102 110 64 111 94 79 81 225 274 284 207 252 124 47 11 19 40 58 71 83 93 113 99 110 83 86 106 126 138 151 153 154 164 175 174 175 190 200 187 166 156 157 160 148 147
14 29 31 141 16 14 -42 3 -61 -73 -70 -56 -17 -24 12 84 156 177 136 152 58 73 -2 -7 30 45 86 132 128 131 116 118 127 127 141 131 158 160 166 143 131 141 151 153 141 140 141 139 127 125 123 116 117 120
13 76 105 113 -11 -57 -63 -36 -72 -68 -78 -46 -35 -16 -4 5 -8 -41 -27 21 5 13 15 38 67 86 99 105 127 149 135 126 137 139 131 122 116 114 116 131 125 127 125 124 100 96 102 107 111 102 97 103 106 115
19 0 4 -39 -65 -95 -90 -68 -57 -56 -64 -42 -21 -15 -2 -14 -14 -6 -2 -5 11 12 41 69 56 92 100 130 157 150 115 80 80 99 97 83 91 104 87 83 85 89 82 69 77 86 90 95 89 99 105 111 120 123
11 27 -10 -8 -44 -55 -47 -44 -19 -22 -2 3 17 19 17 7 26 25 20 25 52 78 97 103 110 116 122 120 117 129 119 103 108 114 120 98 81 71 80 82 90 85 77 83 89 85 79 75 82 90 98 110 120 117
2 19 -15 -29 -18 -15 -13 15 10 25 20 29 36 25 23 42 63 85 78 71 85 100 107 113 114 114 120 105 96 102 106 78 73 95 104 97 93 80 72 68 60 61 67 64 63 68 75 75 76 81 77 83 82 79
44 43 30 28 36 47 65 78 57 50 49 45 37 42 53 74 83 93 101 104 117 113 96 87 101 105 102 95 93 83 80 79 80 64 45 48 47 50 53 51 56 49 47 48 45 53 58 56 52 51 51 49 51 51
92 76 93 92 106 85 65 58 49 42 41 32 40 64 76 90 103 92 108 118 108 92 97 95 86 79 81 78 67 66 63 43 37 33 31 38 48 45 48 42 44 43 40 46 39 34 34 30 31 37 43 40 41 42
128 86 96 148 107 90 72 53 41 37 23 33 58 72 77 74 85 122 121 92 72 73 79 82 88 77 83 67 62 60 60 44 33 51 59 60 52 58 52 46 43 42 36 29 29 24 26 30 33 34 34 35 35 33
114 56 83 104 87 67 50 23 33 29 42 59 61 75 101 107 100 77 76 73 70 75 68 62 56 52 59 52 60 63 58 50 51 53 56 62 59 49 43 39 35 37 33 31 30 28 34 33 31 34 35 37 42 41
57 67 84 72 38 22 26 35 48 55 61 80 84 97 102 87 78 68 76 69 65 58 54 58 58 51 55 58 55 54 58 54 50 49 47 46 42 36 34 31 34 34 34 34 36 37 36 33 38 35 38 38 39 37
32 12 -8 -18 -46 -37 -15 4 35 51 50 49 53 53 55 55 62 46 31 31 38 38 35 36 41 48 53 54 53 54 50 44 43 43 37 36 34 35 31 33 36 36 35 37 42 43 42 42 44 44 43 42 42 39
46 19 3 -15 -39 -50 -15 11 34 55 54 53 58 55 60 60 67 47 27 13 21 31 34 35 43 54 60 54 53 55 45 39 31 33 36 38 37 33 35 39 41 41 40 46 51 52 50 49 51 52 52 53 49 48

GFSWCAN_con_3kmhel_054.txt.gz
Helicity
10 16 25 6 21 29 31 24 49 44 36 68 89 92 99 101 155 184 250 256 306 318 231 221 151 151 109 86 67 101 133 103 189 122 145 117 108 115 131 60 48 56 155 119 140 195 124 98 42 59 55 6 77 47
41 26 -6 4 9 -0 1 9 10 55 73 53 61 57 33 135 209 167 309 254 348 193 135 177 162 194 118 103 92 101 83 169 110 225 286 190 234 137 160 196 47 50 78 94 202 191 243 78 103 88 76 74 27 33
49 -2 -5 3 8 6 12 23 28 28 19 14 17 57 321 234 159 416 395 347 305 267 113 184 94 41 42 131 109 91 135 100 187 194 149 188 124 168 156 188 159 62 -1 54 85 97 112 164 263 74 64 108 85 79
64 1 3 11 24 30 -0 33 19 67 35 -7 18 25 76 139 100 185 282 275 277 194 72 103 143 27 -0 101 156 153 146 151 -15 2 107 99 119 149 139 147 143 104 35 27 26 16 31 61 57 9 47 108 69 72
38 18 23 3 10 -22 10 -5 17 60 64 102 107 89 75 129 185 300 187 175 212 150 31 66 38 19 28 70 72 108 124 206 200 175 261 173 125 152 103 102 99 90 68 55 57 34 46 47 66 76 51 86 63 77
38 65 108 -4 11 2 -4 29 52 22 22 47 66 167 245 206 195 306 318 187 165 203 124 96 106 48 19 36 68 82 158 5 84 32 66 221 135 194 236 150 81 79 75 38 21 20 28 60 48 18 62 75 82 91
81 13 59 63 32 9 -6 9 45 69 73 90 106 108 182 168 254 218 152 169 194 156 175 122 66 71 19 19 48 -55 9 25 78 137 113 94 92 128 164 102 101 77 120 105 107 98 90 99 99 74 70 69 91 118
111 24 19 195 80 26 13 29 77 90 148 131 174 189 174 177 206 222 123 104 131 118 125 73 94 67 70 89 56 32 -58 -44 13 54 174 132 118 144 151 177 175 174 129 109 141 102 111 137 90 52 85 107 123 129
145 62 16 39 120 163 119 214 167 260 270 230 264 299 341 206 186 135 99 107 137 104 60 60 53 38 70 85 74 27 94 90 11 140 130 88 104 172 233 235 283 311 248 235 234 173 127 90 74 99 84 81 144 211
96 142 53 30 58 98 142 169 143 115 89 76 147 140 121 107 34 48 106 71 64 70 82 75 42 8 50 74 43 49 94 42 -23 46 131 148 153 198 259 218 184 214 287 237 177 192 188 158 114 105 96 116 139 192
55 124 132 94 75 65 36 10 8 39 136 188 143 151 81 75 48 67 68 64 50 18 -4 9 -21 -46 -48 -69 -67 60 27 41 46 36 76 75 130 152 185 142 177 232 227 212 208 226 232 155 126 141 194 260 321 319
31 42 88 101 92 95 142 164 214 201 84 57 45 37 15 47 81 27 26 47 31 44 40 35 29 -19 -13 34 37 21 -11 73 95 152 30 171 215 212 131 177 223 198 178 168 187 166 190 211 214 183 167 257 286 297
42 73 71 80 81 82 110 114 110 144 138 178 89 76 74 56 52 61 39 67 66 90 48 30 34 24 -20 -7 33 208 221 121 120 188 165 151 225 213 179 155 165 173 182 199 234 241 258 307 341 287 262 277 355 355
19 42 76 76 58 30 43 52 68 134 161 152 164 138 76 38 41 70 105 78 50 46 31 58 7 -14 12 47 25 108 161 111 148 146 181 280 281 216 196 193 197 201 196 195 224 244 290 341 351 349 352 356 369 393
24 36 1 22 35 25 28 -57 101 105 100 97 106 59 31 36 -22 -9 20 51 37 27 30 45 57 67 54 27 4 61 85 76 85 94 98 250 166 166 177 172 157 158 169 183 182 196 212 222 245 251 232 212 215 213
11 12 77 93 81 96 122 71 53 62 50 43 33 27 50 3 2 12 40 44 65 34 38 64 78 49 23 -3 14 84 120 122 131 136 165 168 153 136 139 149 151 138 135 141 160 174 194 219 216 205 220 210 188 184
59 48 14 14 46 44 62 46 63 71 45 38 6 22 24 -4 17 21 56 55 96 170 116 111 70 59 54 46 118 93 101 106 107 152 133 137 147 154 160 157 148 148 160 167 171 175 163 147 155 186 195 168 179 189
-4 -10 -28 -21 12 16 11 25 27 40 19 26 10 29 23 24 46 58 54 86 58 44 96 72 104 89 80 127 174 173 108 94 99 113 145 123 133 148 145 152 154 170 198 210 202 183 163 153 158 129 114 101 104 110
4 3 29 43 29 7 1 25 40 29 31 43 32 34 37 26 67 103 51 78 154 163 126 142 99 200 218 158 120 101 49 42 48 72 108 165 157 122 120 141 173 193 189 175 178 181 203 242 210 163 146 157 181 136
6 8 17 35 71 14 14 69 131 88 163 180 176 48 28 32 36 13 58 54 18 108 123 77 10 -52 -60 -61 -32 38 58 -4 25 82 129 135 139 178 204 180 160 151 163 197 224 191 170 182 173 160 169 173 147 162
58 96 88 96 155 162 135 141 125 123 135 110 154 103 75 39 93 164 158 263 354 128 9 -56 -36 -6 14 25 36 52 109 149 164 144 137 161 146 146 153 153 159 160 165 152 151 173 180 158 139 114 110 123 154 164
76 124 102 153 128 131 98 125 97 109 89 54 6 -8 -28 3 38 72 151 203 100 29 -5 -0 27 46 98 131 125 117 109 124 128 124 130 131 167 171 163 137 126 151 142 124 112 130 113 118 114 102 132 104 68 101
80 95 99 154 130 96 109 137 49 51 5 -0 -26 -27 -33 -28 -28 -39 -4 52 38 22 30 50 73 92 110 115 127 147 135 129 131 120 114 107 102 95 101 116 114 113 103 104 93 88 92 98 93 104 102 111 117 108
29 9 62 38 -45 -109 -86 -64 -51 -63 -72 -72 -50 -38 -28 -23 -6 3 8 7 22 26 70 74 62 97 115 141 167 165 112 91 107 125 110 96 113 117 99 101 96 103 97 84 75 85 91 85 103 93 97 114 124 113
-8 42 35 5 -40 -50 -40 -32 -17 -34 -22 -15 -11 -7 -6 -5 15 28 31 30 52 86 97 105 122 118 124 121 114 121 109 98 113 127 132 121 98 74 65 65 73 76 72 74 78 72 68 70 74 73 72 72 74 65
18 23 -20 -14 -5 -12 -11 -4 -2 9 8 13 18 14 7 28 53 76 65 81 105 116 133 131 118 133 154 142 123 122 118 82 78 98 94 78 84 74 69 74 69 71 64 61 70 74 75 64 57 49 48 56 57 51
10 23 33 40 25 40 44 71 59 51 45 45 39 36 44 79 93 73 100 105 121 119 120 141 135 143 131 126 114 96 90 94 87 72 56 60 72 82 96 94 88 64 61 67 60 55 52 45 45 44 47 44 53 45
54 74 92 100 142 126 100 88 67 65 65 45 46 61 65 76 98 103 112 105 117 118 126 139 159 147 137 111 91 77 61 49 28 31 54 55 59 62 69 66 45 46 38 46 38 32 37 34 34 37 41 32 36 32
146 139 143 202 161 137 123 97 86 70 36 29 53 68 76 81 84 119 111 110 100 102 120 114 107 88 86 77 76 72 64 68 72 70 62 65 64 62 40 34 28 32 23 25 30 39 43 33 34 41 32 30 33 43
175 145 153 190 168 140 125 85 88 60 56 60 64 99 129 125 135 94 96 93 112 131 110 87 63 63 70 67 71 67 60 57 64 63 54 60 59 38 32 27 22 26 26 31 33 34 51 47 31 48 53 53 54 67
181 174 196 179 146 102 62 22 38 71 84 105 105 122 107 88 85 100 102 94 89 69 73 74 71 64 60 57 56 52 71 58 41 43 43 42 36 35 34 24 27 30 32 38 40 45 54 55 54 52 53 56 55 63
217 179 129 137 87 24 13 25 48 62 52 74 90 87 62 79 111 86 57 50 56 71 77 63 59 76 72 60 56 52 60 53 50 40 36 30 32 44 27 22 30 38 39 43 44 49 57 63 62 58 57 56 59 64
192 175 134 93 56 40 23 30 45 54 64 74 86 89 97 108 121 92 49 48 67 84 77 80 71 72 68 59 59 48 25 59 49 44 44 42 34 27 24 28 36 37 35 41 46 51 57 60 70 69 64 62 60 65

GFSWCAN_con_3kmhel_057.txt.gz
Helicity
0 -1 6 4 13 0 13 25 34 48 51 53 73 76 83 123 87 139 137 204 268 289 117 313 218 255 158 151 164 95 57 45 96 63 70 135 123 57 16 -44 -130 -83 10 120 90 93 123 132 203 167 114 113 35 28
-2 -1 4 -23 -4 18 29 36 49 38 28 46 74 63 72 97 107 119 247 274 177 153 137 255 294 30 64 158 155 119 84 57 151 121 122 120 186 108 24 -41 64 91 100 7 -9 21 117 174 139 77 123 319 134 63
48 38 5 1 12 22 30 29 26 9 22 56 50 47 72 70 108 119 247 278 182 93 105 143 123 292 143 156 255 175 85 86 142 98 119 170 171 180 29 40 68 115 156 144 120 24 67 131 26 2 -71 28 217 191
28 25 18 3 15 27 10 33 30 14 31 82 39 41 61 86 93 97 210 179 207 167 108 56 82 88 93 84 140 132 122 106 147 130 85 139 186 68 112 81 73 139 202 108 90 79 49 22 89 52 68 1 191 247
26 28 30 22 18 -9 1 34 24 14 10 42 40 47 50 67 74 145 192 143 128 212 107 149 82 93 66 83 59 90 78 61 131 148 165 145 120 48 61 128 114 96 90 118 40 24 71 -29 26 -19 -14 16 -5 209
16 31 12 14 2 20 22 50 17 -6 -5 5 63 -4 10 101 219 216 128 235 244 297 182 31 53 35 25 48 64 78 80 71 84 48 144 212 143 50 75 60 71 113 142 87 76 101 96 62 97 77 45 63 57 -36
47 8 30 -4 4 25 48 45 61 34 46 20 9 226 361 303 201 326 183 198 180 180 85 52 44 79 13 41 39 60 57 57 79 123 56 102 53 165 110 142 286 233 235 139 259 148 103 139 92 98 60 74 52 34
69 36 14 14 6 12 19 28 118 138 63 22 101 137 210 235 229 216 85 181 179 214 165 99 75 66 56 73 54 49 43 53 72 73 79 17 88 66 169 268 266 203 255 241 333 271 189 148 136 90 37 47 70 115
67 78 -1 12 25 42 28 61 70 108 168 165 193 183 274 359 285 199 140 193 178 153 126 91 69 41 95 67 67 35 31 43 120 47 44 25 72 113 145 130 170 209 190 165 244 262 239 189 149 56 54 111 114 186
71 206 121 116 171 170 120 152 131 135 160 197 201 184 198 233 65 126 131 100 78 73 39 9 18 34 27 43 33 76 45 43 62 45 15 62 212 302 304 177 113 131 179 185 159 195 200 196 153 202 171 160 155 148
65 122 106 100 94 85 104 133 181 172 135 105 181 143 75 111 92 110 87 78 59 41 31 29 12 26 20 14 44 86 71 77 37 -33 9 81 93 290 244 129 123 123 130 139 155 172 165 146 145 160 189 193 208 229
66 39 63 77 123 192 198 169 143 145 111 53 46 30 49 69 63 58 83 98 78 59 33 26 28 -22 -84 -21 27 90 93 72 19 104 55 17 137 111 143 148 149 95 72 116 163 192 215 242 225 214 204 199 210 229
64 69 75 102 127 139 137 159 135 94 113 140 80 135 94 54 42 55 58 64 58 85 74 35 31 -11 11 14 -13 -58 21 58 65 151 171 156 140 100 108 140 142 174 177 159 201 265 297 328 389 353 313 291 278 325
54 57 37 58 96 90 65 123 116 132 37 90 99 67 35 39 28 33 66 85 76 54 37 72 45 5 20 22 52 -5 37 109 68 133 240 201 194 161 126 160 162 192 234 262 275 301 321 319 334 351 325 307 320 356
33 61 40 64 61 75 134 140 46 18 70 88 60 41 33 31 15 30 47 82 32 56 46 51 45 22 19 8 34 87 159 164 225 94 111 144 148 200 194 137 146 169 190 218 206 206 201 193 210 225 216 198 197 196
37 76 124 111 51 52 107 64 45 42 33 26 29 35 48 18 22 17 49 56 57 93 43 64 56 13 17 8 18 66 95 116 124 134 154 177 231 168 145 138 139 122 116 107 109 114 128 142 137 129 154 162 158 156
104 60 61 66 74 15 57 65 39 17 4 14 9 39 40 24 16 46 17 74 101 88 57 56 49 51 38 25 15 -3 5 84 144 140 167 164 156 138 133 155 145 124 120 111 110 120 112 96 104 140 156 135 152 164
27 28 39 66 70 47 98 83 45 21 25 47 22 41 18 35 59 54 52 97 87 114 92 53 27 60 51 19 21 23 76 99 124 143 108 101 117 155 174 179 183 195 216 235 250 247 221 197 192 154 127 107 121 134
30 33 52 72 59 27 31 77 56 24 71 83 75 80 115 93 64 132 75 103 152 122 70 55 41 61 19 -13 70 26 14 27 66 98 149 202 183 155 152 176 210 238 245 229 222 197 193 214 198 187 172 179 179 116
16 25 48 51 34 16 53 76 135 111 150 175 94 -20 -13 51 112 75 68 33 20 60 105 -26 -150 -74 -11 9 78 33 7 29 59 95 127 136 132 155 166 143 129 131 152 174 196 185 158 157 162 157 172 190 191 192
26 60 81 89 120 156 139 118 92 110 137 132 151 143 150 113 157 220 223 293 268 149 79 55 45 43 55 81 96 116 147 145 135 114 95 108 92 94 106 105 103 107 122 131 154 177 185 162 141 113 124 123 145 156
62 100 99 126 153 125 75 119 92 107 109 87 66 58 93 126 195 216 303 331 187 86 50 51 94 126 126 103 67 76 82 100 100 102 111 109 134 143 146 119 113 137 130 118 124 140 137 129 128 153 166 102 118 122
77 97 136 151 124 109 124 134 65 80 37 64 56 44 31 29 -6 -40 1 93 19 -4 2 30 55 73 96 106 115 112 95 95 96 91 100 110 119 124 146 170 158 120 102 106 84 93 112 99 87 105 126 182 157 117
53 90 109 85 49 19 80 68 72 36 -6 -27 -31 -35 -23 -12 3 -3 4 -8 4 29 18 21 26 78 105 146 175 138 98 102 146 194 103 79 91 100 97 107 123 141 114 68 62 70 73 98 89 56 86 123 155 122
83 116 71 4 -36 -73 -51 -32 -11 -45 -35 -32 -24 -23 -22 -8 3 4 2 -5 15 42 67 96 92 79 88 105 135 165 121 109 131 155 158 161 75 46 53 57 79 103 112 126 99 83 82 89 106 77 60 70 85 81
-7 60 -37 -81 -44 -38 -38 -22 -21 -13 -7 5 12 4 4 23 39 51 26 51 73 102 117 76 93 139 158 129 123 122 139 78 80 107 99 89 115 117 109 88 66 70 71 85 96 80 66 50 50 54 60 43 55 56
-20 -30 -5 33 2 19 25 50 37 30 28 30 23 23 34 61 65 50 80 74 106 115 129 152 122 127 118 112 98 78 75 77 60 53 43 56 64 68 75 69 63 36 26 38 46 52 46 47 48 45 50 52 41 43
35 39 41 69 97 119 70 63 52 47 42 22 38 50 55 56 60 67 82 88 102 107 127 153 174 169 156 138 105 77 55 28 34 64 53 47 40 30 26 22 18 31 30 30 26 39 43 47 51 52 56 55 52 49
96 73 97 170 142 123 109 83 67 51 2 3 35 40 38 34 51 79 61 62 71 89 113 118 109 90 92 81 78 70 70 99 81 56 58 72 49 22 27 29 23 18 25 31 34 50 57 55 56 84 67 54 58 75
136 111 121 171 157 137 118 69 71 37 15 28 28 68 137 103 60 30 50 56 110 121 93 78 54 70 65 62 59 70 63 64 76 80 76 60 31 29 32 21 25 21 30 38 41 46 54 52 67 89 83 72 73 66
142 157 212 202 169 73 20 11 46 74 65 51 50 57 31 18 41 74 81 71 76 78 91 80 74 71 83 85 77 87 64 33 40 55 59 46 42 57 40 32 28 31 36 43 42 50 58 65 71 76 75 69 66 71
164 144 133 132 65 8 -23 11 34 19 11 24 20 26 19 55 67 46 29 41 49 72 54 61 105 71 58 63 71 81 78 60 53 52 55 52 50 37 29 38 42 49 50 46 44 50 60 68 81 88 92 77 63 59
256 222 158 117 75 47 -9 14 27 30 33 36 38 47 53 71 82 54 29 46 51 100 113 108 97 100 106 90 66 56 63 52 49 53 51 48 43 34 32 34 33 37 42 42 43 54 60 66 81 92 88 77 70 66

GFSWCAN_con_3kmhel_063.txt.gz
Helicity
1 -6 -9 2 1 7 9 5 10 15 19 23 31 35 42 53 41 94 234 185 256 218 287 268 211 177 170 247 249 124 105 111 163 193 173 139 115 103 98 130 177 195 174 173 140 21 -103 -7 109 36 183 280 102 168
41 33 45 79 55 25 12 8 10 11 37 39 30 29 35 49 57 102 222 176 174 209 148 177 92 220 236 168 207 194 145 106 149 178 174 175 170 172 118 132 165 206 221 110 102 42 66 14 7 -25 71 232 403 186
48 89 74 51 21 12 19 9 14 17 20 22 24 23 31 42 42 99 210 208 233 182 132 168 158 56 143 74 80 188 164 143 107 174 163 138 165 120 175 147 146 166 157 192 122 44 75 146 79 5 -52 -2 52 186
37 7 8 17 14 11 18 14 17 33 42 41 46 34 29 37 50 100 179 217 257 200 186 123 93 12 89 122 112 99 87 184 138 152 175 184 149 127 132 132 135 129 111 59 32 22 60 17 10 39 -24 -57 -29 7
62 10 -10 13 10 4 4 11 23 48 56 54 61 59 48 37 42 110 250 265 198 254 66 94 85 89 63 60 27 93 103 147 150 166 206 191 136 140 31 142 160 196 119 71 39 84 70 37 5 31 29 53 44 27
5 -8 -1 11 -12 -6 11 27 36 11 21 18 53 66 78 55 50 161 188 152 180 129 123 70 90 105 72 84 39 85 99 121 92 96 169 122 148 114 60 103 151 90 141 65 29 82 62 51 9 52 69 117 133 103
17 24 26 40 29 28 -1 7 1 11 9 -2 11 20 37 41 78 162 126 88 177 130 29 78 79 118 125 124 90 60 93 107 90 75 90 97 70 68 95 194 192 244 271 168 97 64 70 105 105 167 164 122 89 90
30 15 28 6 52 38 9 23 10 7 26 41 56 62 49 155 209 128 112 59 223 127 4 61 89 132 96 128 164 89 101 125 83 104 92 57 27 183 82 136 283 189 181 180 280 100 113 115 151 180 179 148 137 116
20 -14 20 49 224 170 72 94 81 93 99 62 156 200 300 245 172 142 64 166 208 74 -19 113 89 57 75 120 76 111 101 115 121 151 102 92 154 87 105 158 177 149 135 170 226 150 112 135 104 129 156 182 144 150
7 75 90 70 118 137 102 208 264 171 136 118 186 147 137 118 166 252 134 108 30 64 88 61 83 62 54 78 85 70 79 81 93 176 167 171 118 170 137 93 83 83 93 101 141 154 160 104 85 108 112 119 125 119
120 110 121 123 116 85 85 138 98 59 13 192 188 192 216 200 253 177 80 78 123 105 95 92 85 52 43 51 41 31 60 70 52 71 114 114 161 149 90 78 73 96 83 125 124 170 146 158 102 69 102 130 133 177
109 109 123 124 125 114 100 97 86 37 51 101 223 195 217 196 202 121 137 116 110 79 104 93 89 76 68 53 42 40 39 53 48 119 115 65 86 115 113 108 109 102 75 89 144 113 135 135 163 181 160 161 171 225
97 100 118 121 106 79 88 165 235 166 142 141 158 152 110 133 64 54 65 98 82 108 117 124 78 63 58 68 44 32 38 49 68 115 110 102 91 89 101 108 138 113 177 188 171 151 141 194 234 197 179 170 204 272
75 81 88 98 112 100 102 121 141 67 62 49 45 38 39 50 45 83 126 123 132 130 103 82 81 57 42 66 63 70 95 98 79 85 110 110 119 114 106 116 151 207 241 243 221 239 247 245 255 277 273 243 254 278
47 44 82 108 115 95 47 19 24 23 30 16 35 30 41 93 135 172 172 125 141 146 90 70 44 28 51 41 87 97 106 95 100 117 129 157 142 136 127 133 136 155 194 213 196 218 229 215 224 232 218 187 175 176
46 53 125 140 36 48 2 -15 13 18 5 15 32 57 123 102 201 190 167 136 141 114 73 57 -2 -24 5 -3 3 39 54 103 65 79 174 179 178 160 145 139 131 109 112 119 130 127 126 128 119 109 129 153 153 139
7 54 134 81 8 66 32 -14 -17 -33 -3 25 46 90 103 93 124 162 155 152 129 69 20 6 -14 -18 -17 -12 26 43 71 90 117 216 214 177 124 109 105 118 116 110 127 130 119 113 95 84 85 112 132 109 116 122
13 53 42 39 21 70 118 -14 -92 -54 -2 70 62 113 80 82 135 118 129 126 53 33 30 -1 6 23 19 -3 -4 20 55 62 88 64 86 110 110 136 133 127 119 116 116 114 115 120 124 115 113 85 78 76 105 119
14 35 54 27 5 -2 -10 -22 9 16 32 56 117 145 117 106 154 139 115 120 114 55 33 29 21 44 46 36 16 4 -3 9 21 38 75 96 104 101 99 110 130 147 138 131 128 114 105 114 91 83 80 83 93 86
35 45 78 44 -0 34 24 91 118 110 137 124 142 150 168 178 209 187 141 117 48 28 41 81 93 43 -29 -12 4 11 8 12 32 53 61 70 73 106 127 117 113 100 116 124 136 122 122 146 148 122 114 112 110 119
53 73 85 97 185 171 100 101 110 169 192 187 152 160 175 203 224 233 216 265 312 261 117 19 19 29 28 35 29 41 43 45 54 59 62 95 94 111 123 122 122 132 151 149 144 147 148 118 85 87 94 98 88 93
92 109 106 152 161 172 120 102 93 118 147 178 186 140 194 282 312 310 250 282 129 64 -11 -10 13 35 54 54 38 51 64 104 109 122 125 109 135 149 152 129 124 132 124 109 98 99 98 77 74 77 81 74 79 80
98 96 158 167 143 122 119 115 93 86 61 80 60 67 52 68 88 50 37 97 -5 -28 -5 34 69 64 66 62 82 100 96 121 158 148 143 138 132 126 131 135 113 99 94 86 71 73 68 71 94 103 97 103 91 87
76 104 133 112 74 63 68 53 54 38 15 13 20 17 23 12 -42 -59 -57 -78 -64 -76 -43 -6 17 58 91 132 149 141 126 105 135 137 112 122 130 121 102 94 90 79 54 55 70 74 85 81 79 84 74 72 63 56
104 123 89 125 102 54 49 36 8 -85 -85 -79 -63 -61 -44 -29 -29 -38 -53 -62 -33 8 21 62 90 105 120 115 116 114 89 87 102 115 88 69 53 56 70 74 81 77 46 80 75 81 63 53 50 47 43 48 59 65
77 121 67 67 72 30 7 -55 -60 -43 -26 -22 -23 -22 -19 2 12 12 -7 4 30 47 57 85 102 122 134 104 102 103 84 64 91 106 81 50 51 50 47 54 61 63 64 45 47 48 42 37 40 45 43 42 52 67
51 66 42 68 -40 -16 -4 15 -7 -9 -2 -9 -21 -2 19 36 29 25 37 34 64 60 73 81 109 129 134 130 114 90 77 74 79 71 62 77 71 55 50 53 48 24 22 32 29 29 34 35 38 38 43 52 54 68
66 82 21 59 34 50 37 16 7 5 -2 -14 13 30 48 48 40 27 28 48 88 126 142 136 116 105 119 102 73 89 92 83 92 91 85 76 58 42 40 35 26 26 26 25 36 40 40 43 48 50 58 60 60 71
119 96 71 155 116 72 47 30 20 10 -22 1 35 40 36 30 21 43 54 52 80 127 169 174 150 118 118 98 87 63 68 77 80 63 66 53 30 18 -16 8 29 30 31 36 32 38 43 46 48 56 63 80 79 90
137 121 103 137 130 113 107 65 43 21 16 24 23 60 109 82 52 37 58 65 83 93 84 85 73 86 66 68 52 59 59 41 38 55 60 49 28 19 7 9 22 25 28 37 34 32 51 67 71 84 96 100 104 99
137 136 156 220 202 146 83 54 78 99 83 94 91 86 52 26 40 35 44 46 73 86 108 87 57 50 74 55 44 45 26 24 36 32 35 49 52 37 23 19 22 31 41 42 43 49 59 70 80 84 89 94 93 100
124 126 167 206 144 68 82 75 61 97 67 59 46 24 17 22 21 18 31 49 87 83 54 67 84 46 40 43 38 31 38 50 39 35 47 46 39 28 28 36 39 45 52 54 55 62 71 84 94 100 98 92 95 99
215 247 256 213 143 76 44 69 66 60 50 31 15 9 14 34 39 30 17 20 27 47 58 41 36 46 37 38 39 31 37 29 20 23 30 35 34 28 30 37 41 47 52 55 59 63 72 80 89 93 95 96 93 94

GFSWCAN_con_3kmhel_069.txt.gz
Helicity
-9 8 17 12 5 9 26 35 34 34 21 20 19 25 33 18 -8 -42 -103 -11 -28 60 11 -6 -18 24 175 159 141 141 157 86 102 114 95 86 61 68 68 73 71 66 78 102 85 66 24 33 41 79 42 10 26 73
24 29 34 13 8 7 37 40 63 52 52 16 15 33 28 7 10 12 -88 -78 -82 42 64 62 27 5 64 216 154 216 129 74 95 111 112 90 92 75 60 73 69 90 92 96 88 91 96 80 85 54 -28 -45 -33 13
71 69 20 44 32 67 36 23 37 56 43 38 6 15 41 42 30 39 225 210 197 198 118 63 58 115 263 196 179 182 107 75 74 76 91 92 77 67 102 102 92 76 54 86 78 76 14 26 62 76 -7 -45 -98 -50
6 3 21 6 -1 27 28 21 10 37 46 28 15 13 17 35 50 168 212 230 308 305 137 41 205 130 137 125 129 107 147 160 94 115 90 106 97 80 85 94 83 72 91 71 60 40 57 37 88 43 48 24 7 -1
93 26 16 12 14 28 31 12 21 21 34 17 4 23 10 12 21 156 163 204 325 260 162 221 167 112 150 121 156 158 106 135 153 155 151 141 142 122 131 116 106 98 97 101 87 133 100 64 46 46 60 66 48 45
22 1 1 -5 16 26 12 29 25 31 11 9 1 22 75 37 82 161 174 119 221 274 164 178 165 132 89 85 100 126 108 102 106 95 36 38 110 157 92 83 105 135 138 142 133 130 72 8 16 71 45 55 47 45
-8 25 12 30 5 8 10 15 19 30 25 24 33 31 57 38 185 154 148 84 89 198 191 172 99 21 60 93 75 -3 36 6 92 114 82 84 118 135 130 117 148 153 132 105 132 113 74 138 84 59 71 69 52 79
17 45 13 17 25 -12 15 3 2 25 28 5 29 37 39 76 149 145 123 73 136 186 146 140 129 98 78 89 71 70 39 77 84 63 109 104 110 41 80 199 173 154 126 111 187 150 117 84 95 80 79 105 101 93
17 -17 46 37 56 31 12 13 27 31 52 38 42 84 162 232 85 102 67 88 65 61 66 67 61 59 66 93 109 123 131 97 116 113 119 100 163 144 162 170 163 135 118 84 43 51 140 196 149 112 114 117 107 89
15 7 4 60 67 7 97 11 40 34 112 126 231 197 164 102 -8 34 79 60 80 70 53 25 38 28 71 81 52 94 180 158 99 96 104 185 217 227 213 179 188 131 102 96 91 86 60 119 87 108 128 124 163 152
59 25 22 14 24 54 125 155 117 142 204 218 203 199 116 127 99 74 92 91 73 49 16 -4 10 48 33 50 65 78 91 114 113 135 147 165 202 216 201 181 156 132 123 101 73 78 116 126 94 92 120 140 120 148
56 37 26 3 20 41 161 80 81 107 104 119 139 194 148 96 79 68 74 55 55 -4 41 22 51 65 52 105 61 49 58 61 103 181 214 166 155 161 133 140 141 130 97 99 107 93 139 122 135 140 142 150 170 169
62 47 52 19 -21 34 92 45 66 153 231 231 132 96 61 32 52 66 78 81 42 89 114 95 58 71 70 73 79 57 -13 11 65 138 186 192 178 174 156 135 127 121 115 108 116 142 137 140 199 186 174 169 193 248
50 75 76 48 60 144 118 78 44 62 160 104 56 36 38 56 31 53 87 84 82 103 155 149 78 53 80 46 48 -67 73 74 -78 -59 47 136 133 126 114 102 104 125 153 179 193 178 187 208 215 214 198 165 168 203
-5 49 71 69 36 73 27 141 91 71 99 91 58 46 33 71 93 125 132 88 109 142 124 89 66 40 66 5 10 -56 -76 -72 -8 2 121 204 180 158 152 135 127 144 166 187 174 179 178 172 178 183 168 136 122 101
-26 15 108 58 46 25 29 96 123 48 32 22 22 10 76 68 134 123 131 105 132 134 117 80 -4 -27 -26 -48 -26 2 -43 -37 15 221 209 189 205 205 199 182 179 148 130 123 112 100 96 98 92 87 94 97 86 80
13 -8 28 51 72 95 54 69 76 56 17 -18 10 85 62 66 109 124 122 122 133 64 9 13 -7 -10 -18 -16 0 19 6 -16 179 210 198 198 175 176 168 133 126 111 114 105 87 87 82 74 69 86 108 85 85 88
12 34 42 22 52 92 84 58 33 37 22 56 38 125 131 133 156 149 143 127 57 18 2 -22 -27 -8 -7 -25 -32 16 57 88 104 109 108 118 116 101 64 78 76 76 80 86 91 81 74 77 86 75 59 52 64 71
-15 10 5 12 26 47 55 75 62 12 39 59 86 100 107 147 146 131 121 121 79 31 -22 -24 -43 -57 -36 -20 -14 -11 -23 -21 2 21 55 82 73 73 77 83 92 104 115 104 91 92 87 98 74 58 55 59 76 62
-41 62 40 -9 46 51 26 16 74 33 42 76 104 119 95 99 119 115 123 111 60 5 19 -4 23 -2 -13 -27 -27 -7 8 7 14 36 46 53 56 80 105 98 100 87 91 92 98 86 84 106 104 89 81 81 83 90
-33 0 3 71 99 76 52 66 111 120 114 90 104 105 100 129 118 116 106 94 70 125 49 -16 -16 -11 -21 -6 2 12 23 28 42 56 65 85 70 78 91 99 90 98 93 86 94 106 111 102 84 79 84 79 58 54
48 27 51 117 148 157 125 122 85 113 121 100 121 107 96 136 181 206 194 192 94 9 -36 -42 -27 -5 16 34 45 50 58 82 93 102 101 90 99 107 113 99 100 122 125 111 97 94 89 69 55 51 50 44 56 61
39 56 126 167 130 95 130 171 131 130 85 93 99 97 77 75 68 -12 -58 59 17 -34 -32 -15 9 37 63 64 82 97 90 117 138 138 140 141 135 123 119 112 90 87 87 84 61 58 64 57 62 62 58 63 51 39
44 45 100 93 64 66 89 65 89 67 48 45 36 16 -2 6 -61 -52 -22 -32 -27 -25 -3 18 29 58 74 98 126 131 124 105 144 141 112 108 115 109 90 84 79 74 66 57 64 66 67 66 54 47 29 26 21 16
55 84 71 89 86 46 34 31 22 9 -7 0 -25 -44 -68 -63 -31 -22 -15 -21 -18 -7 10 32 58 81 103 113 120 132 95 103 123 130 96 80 77 70 72 66 63 59 43 47 53 55 52 33 25 26 25 21 23 24
61 107 63 77 74 35 39 21 11 -30 -79 -68 -76 -64 -52 -15 -4 6 9 14 21 28 36 62 82 101 113 105 124 128 116 77 89 90 69 50 52 54 56 59 55 59 60 53 44 30 25 24 26 25 23 23 23 25
60 92 86 93 71 15 -31 -6 -28 -65 -73 -66 -50 -30 -12 10 20 13 35 31 46 48 58 63 80 111 134 138 129 106 81 72 78 72 55 58 59 54 54 55 54 47 37 33 26 23 26 25 22 20 20 26 29 34
93 121 10 133 68 74 11 -21 -38 -42 -33 -26 -7 4 22 35 38 20 20 36 75 95 109 109 113 116 121 124 96 105 103 74 78 62 52 60 54 46 49 48 40 35 23 17 24 27 24 25 25 28 31 31 38 51
124 150 109 136 100 56 17 -8 -11 -7 -12 -2 26 29 30 20 10 27 40 52 68 98 128 141 135 109 119 98 76 67 71 68 62 59 46 32 27 27 32 30 31 29 25 26 20 31 36 33 31 33 35 37 46 57
163 162 81 92 78 42 40 50 49 27 19 26 17 40 87 75 55 28 35 45 66 89 92 97 94 85 87 81 76 62 52 49 54 61 49 34 28 30 29 22 23 26 26 29 33 32 45 51 56 50 49 55 65 70
157 135 128 157 155 135 112 118 111 110 87 95 85 80 38 8 12 25 34 44 79 96 117 99 85 67 81 78 74 73 60 58 54 48 42 40 49 37 29 25 24 26 30 33 33 36 38 40 40 39 41 47 56 66
150 119 156 233 149 85 132 132 112 107 69 55 40 22 15 18 14 0 24 55 88 91 75 77 80 60 56 59 49 45 49 67 65 63 66 52 43 34 25 25 25 26 31 37 40 42 41 41 39 40 44 46 57 62
171 222 266 237 206 148 111 127 112 91 71 51 31 18 18 28 33 28 41 38 44 70 68 59 62 71 70 62 62 65 65 65 62 60 57 53 42 37 32 26 26 28 32 34 36 35 37 38 41 45 48 55 58 64

GFSWCAN_con_3kmhel_072.txt.gz
Helicity
38 15 -10 14 26 37 24 17 14 16 32 33 30 22 25 19 10 43 28 90 83 66 -38 -10 57 22 -53 -32 -3 -0 125 117 90 71 65 71 71 55 73 85 72 80 92 88 48 37 32 36 15 24 111 68 35 29
38 49 71 48 34 35 28 52 9 -2 36 43 30 33 29 47 27 103 154 140 9 53 58 19 -17 33 8 -37 -23 65 99 70 60 53 74 83 74 73 36 63 31 63 60 57 52 38 55 69 61 66 2 2 2 -9
18 47 28 29 -2 8 -1 11 45 14 40 50 47 38 30 46 29 84 181 165 89 67 9 -44 3 -17 28 -24 75 65 70 91 108 59 89 75 79 40 54 38 48 32 37 46 46 52 41 89 58 48 38 6 12 26
32 53 68 22 -8 1 13 -6 36 25 17 25 60 46 34 45 28 75 59 27 6 123 63 -43 -12 -8 -31 -16 -7 20 34 31 46 43 60 58 63 37 33 38 37 38 63 31 31 27 45 42 86 67 67 65 59 73
88 74 48 22 -1 1 5 5 21 2 6 31 52 49 56 24 40 67 187 124 36 133 7 27 -8 -46 -2 51 60 53 55 34 55 75 88 76 41 60 38 45 33 39 28 39 42 104 86 43 53 51 39 57 68 74
69 50 14 38 5 -3 -4 19 21 16 -8 45 49 47 57 35 119 219 193 216 212 225 87 -8 30 -9 -37 43 67 28 6 54 89 89 128 102 68 62 34 32 39 102 123 138 121 95 64 38 37 58 56 41 52 43
22 22 50 35 4 4 30 17 9 14 20 36 11 48 82 59 161 184 198 148 234 198 97 42 -1 63 14 52 74 80 114 121 120 130 111 109 64 65 58 35 110 108 115 117 109 82 48 125 109 84 63 95 90 71
37 38 55 -19 45 14 7 12 22 17 31 19 26 93 88 127 99 130 89 172 228 173 113 100 80 50 30 63 63 93 95 37 42 67 88 96 86 75 72 166 166 143 129 93 119 78 61 51 124 108 86 100 111 127
19 2 46 27 36 -3 4 33 29 40 51 81 88 276 206 125 106 124 52 177 249 146 138 107 54 45 85 67 61 63 58 37 23 60 91 55 130 125 183 164 133 71 99 94 82 77 67 83 103 110 108 103 108 131
11 12 69 30 23 19 25 16 75 56 110 163 235 184 143 112 73 137 99 104 84 99 151 112 111 78 33 58 85 72 79 105 64 110 117 149 179 192 187 179 163 177 171 161 146 121 114 91 95 117 128 104 107 108
15 -0 14 62 97 124 172 79 70 86 130 167 216 212 187 223 173 108 74 83 74 65 38 61 45 2 81 58 66 112 78 90 90 99 113 99 106 161 190 166 147 134 125 115 89 79 96 133 82 109 113 120 127 151
23 20 12 70 48 113 110 148 98 105 99 113 129 74 116 110 119 80 86 69 67 45 14 8 78 42 38 20 47 59 26 27 87 155 136 92 140 167 155 147 148 148 136 112 111 102 124 112 107 101 146 128 161 187
37 32 -42 15 40 33 81 129 86 57 120 169 122 88 87 81 69 99 81 71 48 99 114 91 71 58 7 31 65 77 57 61 67 132 149 160 148 158 156 140 138 147 128 113 109 124 124 168 165 152 164 165 182 220
42 75 59 65 57 15 42 57 77 23 57 78 82 41 32 57 54 57 64 84 104 118 134 111 80 59 81 53 101 72 48 5 -4 71 134 148 143 131 135 120 121 129 143 147 158 163 179 187 192 199 185 158 157 170
34 74 79 113 76 60 18 29 12 21 47 46 32 31 33 60 89 95 87 85 102 145 126 63 43 50 54 27 43 6 -28 -35 9 8 165 180 180 196 194 167 143 138 141 159 153 154 162 170 183 184 161 140 118 101
6 16 82 52 69 97 96 112 87 56 50 24 22 25 48 68 68 85 85 88 115 142 119 68 15 -0 -5 -8 -13 -8 -44 -20 -28 174 201 200 226 208 195 188 155 134 128 114 103 96 99 108 104 96 93 91 86 82
7 8 4 26 27 96 145 97 61 13 -5 3 2 44 62 60 70 82 85 83 116 92 34 20 -12 -30 -47 -46 -27 -6 10 128 157 175 183 192 179 170 156 141 96 81 76 71 71 79 82 74 70 80 109 82 82 80
46 38 31 52 38 64 106 71 40 11 2 37 24 65 69 81 80 78 98 88 59 21 10 -15 -19 -5 -8 -13 -8 -25 88 87 85 80 86 97 106 92 61 77 58 62 72 81 87 85 77 74 85 77 61 59 68 78
16 25 32 39 55 56 37 47 42 15 26 38 51 64 81 89 103 109 104 85 71 59 21 9 -26 -11 2 3 13 4 -7 -25 -9 4 28 59 60 68 62 69 78 90 100 98 94 102 95 105 94 77 73 69 78 75
13 114 93 115 71 79 55 36 64 21 29 33 55 64 78 81 79 71 69 75 56 18 13 10 17 6 -3 -13 -22 -8 3 15 20 32 33 31 37 55 80 76 87 81 86 91 94 81 80 98 108 106 99 95 88 93
18 -19 21 126 185 81 35 52 53 63 62 51 64 75 66 56 44 43 47 52 29 54 56 4 -6 -12 -11 2 12 17 19 14 40 43 78 92 82 80 98 103 106 105 117 116 115 123 128 123 113 99 102 99 90 88
25 2 51 126 202 79 37 89 52 75 74 56 63 65 56 69 96 110 109 154 105 22 1 -10 -4 6 18 35 38 40 51 69 85 99 114 103 133 137 144 137 130 136 133 126 117 110 105 96 85 76 71 72 79 84
66 66 87 143 137 125 136 182 138 127 71 66 85 68 69 93 93 100 -48 64 38 -9 -9 2 14 31 55 59 73 86 83 95 121 133 139 145 147 140 135 130 117 110 103 95 80 75 77 71 72 71 73 75 69 56
34 50 84 87 79 73 91 80 111 97 61 41 43 49 49 41 -12 -43 -8 -11 -6 -1 15 29 33 54 66 81 96 107 109 103 131 134 122 118 118 108 93 88 84 83 80 71 69 71 72 76 64 72 65 52 43 36
88 101 114 80 92 57 48 57 77 63 26 47 2 -33 -9 -57 -38 -25 -9 -4 2 11 17 30 47 65 85 99 108 117 89 99 117 126 104 88 82 70 68 67 70 73 63 66 72 75 76 67 55 44 38 32 26 23
76 85 54 49 58 38 44 38 18 -0 -25 -34 -56 -61 -47 -27 -17 7 17 19 22 25 34 51 67 85 95 97 113 115 111 76 80 93 79 59 55 50 55 54 54 62 61 58 50 43 38 28 27 26 24 23 24 21
56 62 64 77 51 16 -12 13 -2 -55 -63 -56 -43 -32 -23 -1 12 23 36 29 44 44 52 51 53 77 106 114 113 87 69 60 71 84 69 59 55 54 51 47 48 56 44 35 26 17 20 23 24 23 24 27 29 29
86 112 76 102 74 85 18 -37 -66 -63 -45 -25 -11 -4 16 24 34 16 5 22 54 62 68 75 90 99 103 98 89 85 93 81 75 64 60 58 56 54 55 58 56 51 41 36 38 38 38 37 33 30 28 29 34 39
131 151 136 141 115 65 22 -24 -31 -22 -12 -2 19 32 35 14 -1 14 23 39 51 66 89 108 119 97 96 75 60 60 62 62 61 67 62 58 49 53 47 45 41 37 31 30 29 26 25 31 32 32 33 35 43 45
161 171 102 106 82 39 43 34 42 28 24 27 26 42 68 45 12 15 31 41 53 79 92 96 86 73 80 67 71 63 54 52 50 48 49 50 51 55 45 40 33 32 28 28 30 29 35 31 36 29 33 37 42 47
173 159 140 172 133 128 112 125 130 115 85 102 80 77 47 13 -3 -9 4 27 60 75 89 92 87 69 68 62 57 58 62 65 61 56 53 60 64 57 48 41 34 29 27 25 25 25 29 29 32 33 36 41 48 55
156 129 129 215 168 123 173 162 137 139 106 77 72 35 32 21 18 -0 13 41 65 81 74 74 68 57 51 49 49 53 57 78 73 72 71 63 56 50 44 38 34 31 30 30 31 32 33 33 33 36 38 41 50 55
162 203 260 237 205 173 136 149 151 126 91 69 45 23 27 24 38 23 23 18 34 59 62 55 55 63 67 67 71 72 71 74 75 73 70 68 57 48 42 39 34 30 27 26 26 25 24 25 29 35 38 44 46 50

GFSWCAN_con_3kmhel_075.txt.gz
Helicity
17 49 37 18 25 43 40 43 56 38 19 -3 37 68 83 54 15 21 -84 -41 16 71 -3 9 39 60 68 80 16 49 121 70 62 60 45 56 67 67 75 60 46 53 87 94 74 93 61 47 41 40 118 113 141 157
44 29 6 12 37 36 14 16 16 0 -1 4 15 40 55 52 36 39 11 34 1 40 24 10 6 31 126 -5 44 19 32 18 9 21 33 51 56 71 45 59 23 46 47 50 48 48 40 42 91 118 96 83 82 43
34 14 14 16 25 49 47 25 10 -4 17 44 20 32 26 30 30 34 91 182 75 40 65 -24 5 -24 -2 55 46 2 21 16 41 27 28 58 53 47 46 46 60 31 53 33 80 56 58 6 49 55 30 30 3 0
36 36 39 54 35 15 5 6 8 14 11 45 25 63 34 17 15 58 146 108 221 332 146 4 -4 19 43 -4 5 -26 -12 12 3 19 35 38 64 55 39 45 67 44 37 40 46 53 46 37 97 93 82 57 61 73
67 79 65 38 2 12 23 15 19 14 21 41 8 23 28 22 24 101 196 169 217 107 13 48 10 47 4 39 -12 7 10 17 16 39 56 43 23 28 24 28 42 44 60 83 72 137 156 134 142 68 23 68 63 62
86 55 2 39 56 13 32 11 15 14 18 -8 -16 32 50 37 69 133 153 96 -13 3 1 71 39 9 6 3 16 5 -1 32 48 40 56 32 41 65 34 13 3 65 125 132 110 106 85 50 0 59 46 59 61 30
18 33 46 45 43 -1 1 -6 12 25 26 7 27 60 76 88 108 191 137 43 34 80 11 -3 19 27 3 -2 18 33 42 58 80 33 16 34 37 40 22 25 57 153 125 98 77 69 34 79 52 57 33 25 46 90
34 27 39 33 -16 4 20 25 22 15 35 26 89 93 87 147 132 172 140 69 193 120 44 23 17 12 46 68 52 76 107 106 102 63 31 59 20 69 37 142 141 134 125 99 99 87 101 78 51 51 46 52 54 72
31 27 22 4 7 8 19 18 8 20 29 71 130 138 188 107 86 79 62 118 232 146 54 18 24 34 35 24 47 37 43 74 56 39 50 36 31 64 124 144 122 102 113 104 96 75 56 31 41 73 70 66 78 100
10 28 23 65 19 17 3 52 70 70 111 240 338 173 86 78 40 203 216 156 110 150 103 59 63 53 14 48 35 34 42 82 39 61 55 84 132 181 163 115 104 97 82 89 106 151 131 110 104 105 95 91 115 109
23 36 42 208 7 7 69 76 115 166 216 241 255 145 91 142 133 105 69 127 129 92 70 70 72 32 56 38 63 54 52 61 83 56 102 76 112 137 144 163 158 145 126 111 95 96 113 122 134 101 91 117 148 145
28 26 41 91 66 47 -14 -9 51 144 112 128 185 199 137 82 96 84 104 99 108 87 104 100 103 116 51 75 54 52 55 51 65 104 104 87 138 167 167 154 162 169 163 163 165 126 137 158 154 154 142 165 165 172
35 -2 12 51 83 79 44 45 -23 -70 79 256 225 104 116 73 67 70 58 54 42 88 94 88 79 71 56 39 61 62 80 140 45 92 163 177 119 105 109 88 95 124 135 126 152 170 182 203 206 181 193 195 191 214
72 36 -21 -5 75 88 42 43 101 99 75 137 106 84 109 58 52 51 96 94 85 98 107 58 72 46 8 21 63 48 65 51 61 77 102 108 91 93 129 116 89 124 125 120 135 147 168 191 202 194 184 171 187 207
74 105 80 41 25 37 1 -22 1 47 38 56 38 81 71 55 66 91 115 123 113 127 149 87 85 72 84 45 60 69 63 56 88 126 175 143 146 159 158 154 170 169 160 154 145 152 161 161 169 184 180 171 164 153
42 49 77 99 74 67 77 -11 -17 29 16 21 33 59 109 97 87 91 136 119 136 155 138 67 40 53 47 30 22 38 17 51 92 149 158 154 162 165 170 157 167 155 139 124 117 110 109 110 111 105 103 108 106 96
30 85 43 15 22 56 104 24 37 29 30 24 32 74 74 55 66 77 96 116 157 145 59 50 21 9 -5 -29 -30 30 17 127 162 194 205 213 194 175 158 134 125 108 101 94 92 92 94 82 73 82 107 70 60 56
37 7 30 72 84 72 110 66 13 -9 -8 60 41 61 58 93 74 73 84 100 81 48 54 18 20 5 6 -8 -12 89 127 105 94 86 80 83 93 85 73 90 70 71 80 85 86 81 69 64 78 74 51 39 48 61
48 48 32 36 97 71 42 29 31 1 15 36 49 61 68 74 83 87 84 72 66 70 43 33 12 7 14 80 69 38 20 20 33 41 43 49 52 55 60 67 74 84 90 89 88 92 96 110 92 79 82 83 89 83
56 58 58 72 127 57 33 33 45 21 10 18 56 61 70 69 73 77 78 95 64 45 32 17 32 81 51 29 12 17 24 32 43 54 57 55 49 66 87 90 99 101 105 105 100 78 80 101 104 115 114 107 98 95
58 71 108 95 106 71 27 36 32 24 25 21 46 43 46 42 40 50 50 42 46 31 27 6 7 8 8 19 26 35 52 46 67 69 97 105 88 93 104 112 116 119 133 125 120 119 126 120 113 99 98 104 98 92
63 109 107 130 94 71 25 72 21 52 53 40 57 55 40 30 33 44 47 58 40 19 -2 0 3 7 27 47 55 61 70 81 92 107 117 95 127 134 140 133 130 140 136 128 123 118 115 111 95 85 84 83 81 89
46 82 124 118 44 26 25 116 73 76 50 43 65 50 51 68 77 79 25 36 17 -22 -13 6 24 37 55 65 78 89 89 100 122 130 138 143 139 130 130 129 120 114 109 107 98 94 100 80 89 80 76 67 72 69
53 71 96 64 25 36 80 80 83 84 76 65 55 64 70 64 44 5 -9 -19 -16 -7 13 31 39 57 62 74 99 115 105 104 122 139 117 128 132 126 109 101 96 96 92 82 77 77 75 82 58 73 73 67 61 44
112 87 102 70 114 75 72 56 80 91 46 79 48 7 -9 7 -35 -20 -6 2 11 21 30 34 42 56 87 96 104 117 96 102 133 142 126 107 102 85 81 78 80 80 62 63 72 75 78 72 66 60 46 38 39 32
110 107 81 70 93 83 76 58 47 55 19 -2 -30 -47 -45 -32 -31 -1 15 31 37 44 47 54 66 79 94 102 115 126 126 88 83 115 99 77 79 70 71 63 56 70 69 70 61 55 53 42 39 32 33 36 36 26
74 80 86 111 77 51 29 60 27 -26 -41 -49 -41 -27 -25 -13 7 24 42 40 58 57 57 58 64 82 114 126 115 100 83 78 95 99 77 72 72 71 69 60 60 80 57 53 46 38 34 35 32 32 31 29 31 31
82 102 76 113 74 103 90 56 44 -72 -58 -23 -7 -10 9 25 35 34 22 43 59 62 68 80 94 107 116 112 96 85 81 74 71 67 68 68 69 70 68 72 73 69 57 49 49 43 43 42 40 37 37 36 41 40
108 136 120 176 146 109 67 35 -51 -44 -23 -2 10 23 34 35 27 27 41 44 49 60 79 98 110 102 104 88 72 69 62 61 60 68 59 64 64 78 59 56 53 44 35 38 37 32 37 38 39 39 41 38 43 44
157 177 119 138 126 71 66 88 48 54 39 41 47 91 127 81 57 21 31 37 48 72 90 98 94 89 109 95 91 77 61 55 58 56 60 70 79 79 61 54 47 47 34 36 37 36 38 30 36 31 29 33 34 39
177 161 148 158 127 130 131 100 105 145 172 167 101 118 95 43 14 11 29 43 69 85 100 117 118 105 97 84 73 70 74 72 66 71 70 80 76 68 62 51 44 38 38 36 37 34 38 33 30 33 32 35 40 46
173 146 129 198 167 128 181 147 170 183 166 149 136 88 73 58 52 21 14 47 71 98 110 111 109 104 77 69 67 74 82 81 78 77 76 73 70 59 52 47 45 41 40 35 36 35 35 34 34 37 39 39 49 54
137 158 210 246 224 185 173 190 191 164 138 115 95 65 61 53 62 44 44 58 94 110 102 101 88 85 86 83 81 76 78 83 87 83 73 64 52 43 34 44 38 36 32 30 31 34 33 33 37 42 46 49 51 54

GFSWCAN_con_3kmhel_078.txt.gz
Helicity
12 11 20 31 36 17 -6 9 17 16 13 34 24 -1 -21 -11 101 44 -43 49 10 -10 -76 42 47 72 80 75 26 25 -12 64 131 42 30 34 22 36 29 7 28 48 63 69 67 89 74 53 26 33 142 236 241 286
9 31 46 51 27 1 13 18 14 11 -1 3 4 -6 58 66 119 82 149 -18 44 -8 -47 56 10 46 91 83 15 6 31 105 91 66 6 32 27 48 57 71 32 49 31 62 58 56 18 61 85 125 154 80 137 240
21 43 56 43 26 23 23 38 35 31 19 -6 0 -4 54 85 80 96 61 82 47 -43 -124 -42 18 25 15 30 -15 52 9 57 27 48 17 2 19 38 41 53 30 41 43 38 43 15 76 157 370 185 211 179 163 114
4 50 55 63 62 56 22 14 7 0 3 -5 -15 29 48 73 72 99 53 73 85 77 32 19 11 34 14 27 -32 -14 22 36 9 -48 -14 44 -18 28 60 52 89 37 45 67 32 74 82 146 174 142 163 103 45 10
52 98 156 84 39 18 10 0 18 23 23 16 16 43 50 55 45 33 119 169 128 142 17 22 3 -7 -29 0 28 -39 16 -9 -9 15 8 18 9 12 20 38 34 67 34 33 94 118 82 47 76 106 45 5 1 20
142 107 18 20 9 11 30 32 19 29 30 31 25 42 30 57 21 101 151 135 30 8 57 -24 45 18 1 -1 -7 9 1 26 28 27 21 11 18 33 35 42 87 76 150 156 102 109 75 -40 18 59 25 -12 -12 22
81 38 16 6 15 21 -3 49 32 24 37 26 32 21 21 22 98 177 125 52 83 40 42 -38 43 52 29 33 27 23 3 27 57 43 12 37 38 44 46 37 28 91 123 63 111 159 58 43 -16 1 -6 6 13 49
53 14 -2 18 36 15 17 15 16 35 6 27 15 20 58 85 167 176 149 38 73 62 55 28 44 28 38 43 62 93 92 74 63 18 29 37 29 4 20 111 121 116 112 97 102 58 10 26 29 82 103 95 69 76
23 -11 31 57 22 -3 8 11 40 54 20 35 70 165 295 217 171 104 64 42 93 97 16 11 26 25 42 86 78 62 78 33 62 58 48 43 30 78 97 119 96 96 107 102 110 153 131 83 65 66 64 72 83 80
18 4 64 68 14 16 12 -1 33 41 119 285 238 197 141 105 93 140 148 142 103 54 29 22 25 30 13 55 68 56 31 39 28 48 104 134 151 151 149 149 131 79 67 74 118 134 121 130 89 81 81 104 123 117
42 6 10 15 18 11 -5 62 168 242 239 237 195 160 103 77 179 122 120 107 76 47 17 16 48 57 52 57 61 43 52 42 24 49 72 104 150 113 104 96 96 111 125 126 113 122 150 158 164 131 118 138 157 154
28 16 -14 -24 7 55 124 142 170 188 159 134 125 169 151 109 129 117 114 112 97 70 71 40 63 100 58 60 45 43 40 38 51 42 64 96 126 131 125 114 158 163 146 148 163 167 176 198 189 170 177 197 204 211
4 18 16 7 -11 14 -13 47 84 14 179 223 183 124 55 28 92 80 97 104 87 124 108 142 116 99 70 55 52 43 72 95 59 58 117 148 159 119 99 85 100 116 151 168 165 174 188 199 217 198 197 206 219 240
-8 41 68 37 71 95 149 170 270 234 200 156 163 101 89 64 76 93 154 121 105 127 133 122 128 102 69 60 51 40 69 58 81 89 140 149 112 72 85 97 106 117 116 129 145 179 171 182 190 184 182 173 178 200
-25 -1 50 90 64 65 27 96 112 68 100 100 92 53 40 37 56 89 103 98 107 122 100 55 75 56 49 22 39 47 49 67 90 135 199 139 116 100 99 95 86 84 92 110 124 145 152 156 159 168 160 151 158 160
-7 42 62 52 42 36 14 11 13 37 53 60 58 50 113 46 91 146 130 112 132 171 167 79 59 58 63 55 50 85 75 88 108 145 136 130 142 152 148 139 132 117 112 108 106 104 100 98 96 99 92 96 94 92
96 54 33 15 18 19 19 -31 37 33 46 56 64 116 114 112 110 115 154 175 206 163 109 76 68 74 41 50 21 73 61 145 140 166 178 171 143 122 111 98 81 69 68 64 61 61 62 49 43 57 84 51 40 37
88 23 10 59 103 52 77 49 25 1 17 62 64 68 100 123 88 103 155 175 114 64 53 35 47 46 37 5 7 67 110 130 92 67 58 61 59 55 54 65 63 68 76 74 72 66 61 60 78 68 45 23 28 46
42 61 66 97 113 77 54 43 12 1 35 42 58 61 62 65 73 88 105 72 80 84 40 29 17 7 27 63 96 62 33 27 34 42 51 64 69 70 73 78 88 97 102 101 103 109 118 131 103 76 70 80 93 79
58 48 48 84 92 41 19 24 27 20 32 40 57 50 67 78 87 83 94 105 67 51 44 31 34 96 105 79 48 40 27 24 26 48 71 75 76 96 110 99 99 95 97 92 94 79 72 93 107 130 145 147 128 112
65 114 116 103 133 84 30 29 21 22 36 43 43 51 52 49 68 63 63 70 52 28 5 77 107 106 94 56 41 48 62 49 123 113 125 131 110 108 111 114 119 121 133 121 111 127 152 133 121 116 116 121 119 114
93 134 97 123 107 75 23 46 21 28 35 42 48 43 27 22 30 34 15 43 27 95 18 14 13 15 32 47 51 62 75 101 133 149 149 108 139 147 152 140 133 151 154 152 152 146 134 140 111 82 79 86 100 109
132 135 124 96 56 38 23 82 55 48 31 35 48 34 26 21 25 13 16 45 9 -33 -14 13 33 47 60 67 81 92 94 111 130 138 138 144 136 128 140 139 130 123 114 113 105 111 120 80 92 81 66 44 66 72
119 153 113 53 28 1 52 55 55 70 72 62 40 29 40 39 44 50 -7 -26 -10 0 16 31 40 55 63 83 109 115 120 122 134 138 123 131 139 135 120 114 110 112 120 102 97 99 88 93 77 73 87 80 86 77
104 105 70 12 19 17 26 33 63 54 44 48 54 48 49 41 -12 -16 -6 9 21 36 38 41 49 65 99 108 113 123 117 127 157 163 137 112 106 83 85 90 95 87 65 62 72 82 95 79 71 77 63 61 67 46
79 79 63 43 61 55 46 40 33 26 56 26 -60 -55 -17 -35 -34 -15 6 40 57 60 56 62 79 100 118 122 130 149 139 108 102 144 121 93 102 96 96 85 77 112 80 80 74 60 68 57 58 44 32 47 44 41
90 63 65 130 91 75 79 88 56 -32 -57 -70 -46 -24 -25 -25 -7 15 67 65 89 79 79 93 97 117 144 137 142 129 110 108 135 136 100 90 91 96 112 129 132 121 79 70 64 63 62 49 40 41 39 39 41 42
59 95 86 111 102 126 137 108 85 49 -65 -23 -19 -24 -6 13 26 41 44 70 79 87 107 127 145 150 150 139 121 108 100 86 75 69 71 77 65 68 76 80 78 91 71 66 71 55 56 51 46 42 43 48 47 48
109 112 112 169 155 126 113 81 37 37 88 9 -3 11 24 39 34 67 59 57 60 75 99 113 124 126 132 120 109 92 81 77 78 88 82 84 89 109 72 67 65 54 42 47 53 39 42 40 43 45 52 43 43 45
130 137 101 127 116 83 94 88 55 46 58 63 79 129 186 142 74 32 44 47 65 92 103 111 110 117 137 132 121 104 83 73 73 82 83 108 123 104 78 68 59 61 41 38 38 40 38 30 27 47 44 25 28 39
147 141 129 140 125 103 100 123 166 161 150 156 103 124 102 61 43 67 69 66 85 95 108 128 139 128 135 118 103 82 116 82 76 82 84 91 88 90 89 65 52 42 43 42 39 31 37 30 23 29 34 44 49 47
159 125 118 168 151 116 144 173 205 204 182 171 160 121 95 82 64 29 26 46 64 102 115 121 142 159 115 98 93 100 111 91 82 83 80 72 88 67 55 47 46 44 41 33 37 38 39 39 38 40 43 46 58 64
151 143 161 214 199 154 144 187 188 187 162 143 112 90 79 69 70 51 55 88 125 127 158 169 150 127 107 102 95 90 95 95 101 90 78 70 60 41 28 36 34 36 35 33 34 37 41 42 47 49 50 55 58 65

GFSWCAN_con_3kmhel_081.txt.gz
Helicity
15 26 27 18 7 16 -21 -26 -3 -11 -4 -3 6 -6 -23 -34 13 107 70 68 -1 28 -28 -13 2 40 76 106 52 64 32 20 67 91 78 46 16 11 17 -10 24 92 82 86 85 88 65 67 77 134 162 391 384 437
19 22 9 12 12 -11 54 16 -2 13 27 -1 -7 1 8 -11 -5 43 73 44 72 -29 -69 40 -18 -33 5 49 81 29 18 69 64 81 55 42 27 -7 -27 -18 -45 83 77 65 63 36 48 125 182 128 138 282 382 339
14 -2 4 -6 -16 32 38 28 30 31 28 13 16 4 3 -7 14 25 213 220 212 172 -35 -132 -78 14 -6 -6 14 37 5 43 20 50 31 32 -34 -32 -21 -6 -61 -5 27 15 51 108 133 210 520 346 248 221 122 71
4 -3 -19 -19 34 58 71 66 54 22 11 17 24 -8 -2 34 23 128 267 267 228 227 43 -129 -7 13 29 -20 5 73 52 -8 50 17 18 -25 -23 -23 -14 13 30 11 12 50 120 34 54 141 273 203 201 253 142 83
1 13 -24 65 154 140 52 33 20 11 -0 -10 -3 11 23 75 70 76 124 136 132 111 -35 -58 34 35 -5 24 -30 17 27 -0 23 19 -14 4 -40 2 -37 -14 16 37 26 5 59 128 205 145 173 127 126 105 119 98
60 17 94 116 52 28 21 8 -4 32 50 28 15 10 19 68 67 97 61 40 62 74 -1 -80 6 8 35 -25 29 12 37 60 19 8 4 8 13 5 21 18 98 162 85 85 -4 31 89 50 49 57 39 82 96 110
58 91 82 34 8 3 13 28 38 49 58 35 23 19 36 71 65 130 63 31 146 118 68 -36 27 8 45 64 80 39 71 35 15 -3 -0 24 25 4 18 45 101 94 56 61 77 -21 53 51 51 80 100 89 91 110
86 75 35 5 6 34 55 54 48 35 45 34 29 25 60 72 158 141 146 50 96 147 70 -27 -20 23 75 52 74 103 96 83 24 1 15 15 5 26 21 83 81 96 89 90 157 97 109 138 100 74 120 110 125 121
75 34 8 19 18 9 1 5 11 9 54 36 18 62 262 214 151 112 82 73 95 102 48 -4 26 16 66 65 57 81 83 12 25 -40 6 1 72 78 71 64 83 72 69 67 112 140 138 57 50 64 76 102 99 88
33 21 35 32 10 -0 -8 5 42 38 49 64 187 178 152 175 88 253 126 57 65 80 48 -0 -21 14 24 53 52 47 43 -5 -68 -71 28 94 112 189 181 169 138 112 86 76 76 95 88 76 42 49 51 59 59 78
39 1 22 -2 2 22 20 56 40 101 204 261 200 192 134 182 160 83 93 69 49 38 -21 2 10 9 43 17 68 53 35 45 2 46 87 91 132 159 172 99 35 47 46 59 91 117 124 132 115 86 91 114 136 151
12 25 -3 -0 21 86 107 176 209 205 141 171 222 212 200 114 94 64 85 77 28 43 33 40 50 40 60 66 68 56 50 34 31 38 60 130 118 88 48 49 54 86 80 114 120 110 122 148 139 140 151 154 143 157
18 32 20 85 188 209 151 132 76 -8 124 227 223 132 73 78 102 78 78 104 46 66 58 77 62 147 69 54 52 46 50 57 55 90 91 119 116 85 63 53 64 75 100 112 113 124 146 165 171 185 181 174 170 178
64 65 73 55 100 176 165 123 181 274 216 156 135 129 101 101 103 114 133 136 78 84 116 124 122 85 73 70 44 43 57 53 72 94 88 115 89 85 76 59 61 84 96 108 121 142 159 161 166 163 164 139 141 153
46 47 58 117 134 204 182 141 156 125 197 147 117 51 42 63 132 100 95 140 136 144 156 147 154 101 107 68 62 44 42 56 60 98 109 99 109 113 100 86 82 84 96 111 105 107 105 102 114 119 112 112 114 117
16 49 65 65 86 88 105 109 163 114 95 92 78 47 66 50 126 170 157 144 146 141 140 132 115 105 96 61 40 58 52 79 74 93 100 114 120 104 94 81 72 67 63 54 46 47 46 49 55 68 78 86 86 84
80 65 53 29 7 26 36 95 88 76 71 33 72 174 122 95 106 138 167 182 190 163 96 64 69 67 32 51 67 98 55 98 125 142 127 74 58 57 48 41 33 33 36 36 38 36 34 26 23 43 61 36 35 24
59 29 44 66 75 35 66 67 15 14 121 107 71 123 156 142 109 127 173 198 105 100 77 42 41 69 62 46 30 67 119 128 109 74 66 57 47 40 44 63 67 69 70 67 64 59 57 59 73 60 40 14 20 45
-2 36 84 99 80 53 40 33 9 40 58 83 57 83 90 98 135 163 160 155 149 137 69 40 41 26 22 55 82 76 64 55 74 75 71 54 60 74 89 101 106 105 104 108 115 125 132 151 132 92 60 57 108 74
74 63 71 89 79 42 17 13 13 35 49 48 75 101 101 94 86 115 160 148 90 48 44 32 32 92 87 108 78 53 42 52 52 49 57 69 85 101 80 93 98 96 105 104 118 93 106 114 107 125 161 203 192 172
132 147 135 99 84 43 14 24 28 38 45 45 40 57 56 62 83 88 92 103 51 42 33 71 150 165 136 113 84 88 132 82 69 86 105 121 104 118 123 123 126 120 127 117 117 152 186 178 148 132 130 122 113 104
136 137 115 131 65 34 20 42 15 20 37 37 38 40 34 47 57 58 41 57 35 82 48 32 27 45 67 66 63 70 86 133 182 181 159 134 149 166 176 159 165 174 183 170 165 168 145 133 136 104 99 86 84 95
153 133 119 104 39 30 24 68 41 32 19 27 39 32 27 27 26 3 -0 54 54 56 26 39 43 59 86 93 109 106 96 123 153 159 155 156 160 161 177 188 191 182 151 143 121 113 100 94 115 109 79 72 74 46
139 101 73 52 24 3 44 40 36 42 47 45 31 27 31 22 26 33 16 -0 -22 -16 7 24 31 41 51 94 128 133 104 112 153 175 146 146 168 145 128 112 113 126 133 115 114 99 84 73 87 85 86 85 82 87
79 96 42 28 30 20 29 49 52 42 48 47 40 40 47 53 25 1 -11 -3 1 10 21 37 41 63 116 98 106 128 178 147 148 179 165 145 115 95 107 112 106 94 88 95 96 105 76 83 96 90 77 67 72 68
39 59 28 38 50 18 18 27 26 39 57 44 28 37 48 39 -38 -35 -17 22 50 47 45 61 96 163 155 116 144 145 125 138 140 173 122 108 124 133 155 142 159 120 90 92 116 96 72 69 71 51 49 48 46 43
10 22 57 111 94 76 75 101 126 67 44 17 -2 6 -17 -34 -15 -7 48 61 106 100 120 119 115 164 171 173 173 139 128 151 153 129 102 100 100 99 113 143 150 117 98 92 107 106 112 83 56 45 38 47 42 42
52 81 71 130 110 145 107 104 70 40 23 49 -13 -22 -11 -3 10 27 53 109 157 157 179 203 213 189 169 145 129 130 117 91 91 108 107 93 68 81 77 74 82 98 82 65 68 68 68 71 80 79 74 60 40 40
93 106 113 176 134 133 108 83 42 49 77 58 -21 -8 11 33 57 124 92 74 70 96 129 149 148 163 179 180 159 142 122 97 91 79 81 106 109 73 63 70 70 64 64 68 53 54 57 51 48 38 35 32 28 30
110 86 87 111 106 83 106 66 46 57 60 52 71 140 239 180 113 21 21 36 64 80 81 85 84 110 127 145 150 130 94 85 103 124 136 134 105 106 133 114 96 73 60 58 56 52 40 45 36 44 69 49 45 53
75 79 91 112 109 130 88 86 108 120 141 182 149 177 147 111 124 127 101 84 96 104 110 122 147 151 166 150 133 144 94 63 83 111 121 120 125 103 81 69 55 58 60 51 46 45 41 41 44 45 48 50 49 63
88 76 85 162 82 15 145 123 162 152 169 174 164 122 111 94 72 17 15 41 34 68 75 130 162 153 120 113 115 117 113 87 96 102 121 115 98 82 62 49 47 50 48 40 40 43 52 57 51 49 52 52 52 56
136 126 144 189 171 123 124 165 182 196 200 179 151 104 94 79 75 33 37 53 80 162 178 180 168 155 137 122 114 104 104 93 98 99 88 79 72 64 60 54 51 59 54 42 37 43 44 47 55 56 56 60 65 74

GFSWCAN_con_3kmhel_084.txt.gz
Helicity
23 13 13 21 27 31 12 12 -2 -50 -60 -13 -24 21 12 -8 -23 45 142 106 154 77 52 33 55 62 105 84 106 129 71 54 66 54 52 -0 35 27 27 41 38 2 -19 88 128 90 61 56 37 87 111 275 293 343
24 13 18 18 14 8 7 -6 -37 -26 -20 -9 -4 11 15 5 -3 26 84 161 105 69 13 36 4 -2 28 37 64 44 77 26 38 37 60 80 67 51 34 12 4 15 155 177 110 88 109 91 108 230 242 301 311 331
21 17 19 6 3 2 -15 -28 7 35 22 25 28 23 21 13 -2 -1 98 185 245 73 -19 -61 -24 -36 -30 -24 19 37 16 -22 25 73 123 74 48 17 8 -3 -49 -53 41 79 68 90 164 227 258 291 352 303 269 219
33 22 19 20 6 -6 -15 16 43 49 40 39 36 26 37 6 -4 30 185 174 186 184 70 -17 1 -50 2 -10 -30 -13 24 17 -97 14 90 51 26 2 -7 -31 -41 9 -0 30 101 233 226 227 224 283 402 327 221 179
32 19 22 22 25 42 75 135 104 50 16 15 15 23 30 -1 25 134 156 133 178 166 -1 30 16 15 11 -39 -62 -5 -2 19 -15 45 54 34 11 -0 -3 2 67 28 -7 -56 17 81 224 232 179 74 81 209 189 86
26 35 31 52 56 74 109 58 37 24 11 10 2 1 10 51 179 150 83 76 153 169 57 59 34 2 47 -18 -8 24 -8 27 10 20 57 22 13 7 -4 20 45 83 55 72 -13 24 45 37 75 57 27 52 78 61
42 42 64 61 62 79 41 27 30 25 18 -1 -12 7 14 87 156 134 41 22 96 121 -1 -1 -10 40 31 99 125 87 62 49 45 13 26 27 21 -22 -12 30 50 59 46 114 31 -12 30 74 35 82 73 52 70 84
52 71 60 62 66 33 16 14 19 28 33 21 -6 9 15 104 150 102 74 42 129 123 35 16 -36 14 63 72 82 99 101 85 52 22 8 3 5 21 17 65 49 64 57 130 109 110 88 92 112 102 83 67 76 65
67 59 83 58 26 -1 -3 9 34 46 60 44 3 51 115 205 171 103 95 61 97 64 37 -34 -59 -31 62 29 56 87 69 58 17 -2 9 2 48 53 74 77 69 61 53 71 75 104 80 79 65 79 92 85 70 81
70 86 33 42 39 37 18 -10 -5 -5 -26 25 194 102 120 214 166 251 122 71 51 36 40 -30 -3 5 36 57 60 48 26 20 -25 -9 7 52 85 127 100 86 57 55 58 64 50 89 75 71 70 79 94 107 124 136
96 89 60 33 1 -8 14 20 5 -11 153 285 149 117 154 188 140 99 59 56 47 33 4 28 11 32 5 31 29 36 12 -16 -24 -10 -22 36 88 120 95 72 79 85 66 58 66 81 107 98 61 54 64 80 92 116
120 49 24 -3 17 33 39 83 210 293 207 197 198 282 315 129 129 83 96 66 28 32 5 12 70 56 14 53 32 22 10 6 -25 27 71 78 130 95 54 43 56 51 52 61 70 64 106 124 108 102 104 105 105 125
36 101 124 91 82 94 46 166 75 87 138 283 293 192 163 134 141 91 69 76 32 21 22 43 67 59 21 46 40 36 -17 -21 41 79 89 70 79 72 60 40 47 56 72 75 76 97 109 133 144 129 126 116 125 145
74 93 137 148 104 95 145 190 223 195 228 238 181 161 138 144 125 88 66 81 82 60 70 94 78 40 60 53 43 6 32 30 67 88 51 58 77 73 60 51 61 62 80 89 92 101 114 123 131 127 122 107 116 133
83 101 144 174 159 139 127 205 203 178 193 147 152 125 98 106 140 101 70 105 118 85 112 122 106 74 84 58 49 48 54 55 24 30 29 62 74 81 83 81 89 88 86 91 85 93 92 86 90 97 89 87 89 85
32 74 132 143 148 134 151 188 173 134 104 118 63 78 105 135 205 177 134 142 140 142 140 124 89 77 67 47 81 67 27 17 40 59 70 82 100 93 66 56 51 46 50 47 44 43 51 59 64 65 69 72 77 80
40 57 80 159 108 115 124 107 175 126 74 83 58 110 85 103 145 163 142 158 195 114 112 110 91 55 62 77 49 50 56 63 101 119 110 72 67 60 53 55 53 50 50 48 47 49 48 46 51 60 80 57 54 42
77 65 17 8 63 100 156 117 25 31 38 91 52 112 103 119 119 148 196 183 110 105 83 59 46 45 28 22 24 31 93 128 135 99 67 57 60 63 66 80 73 73 70 64 62 58 51 48 68 67 48 21 26 46
32 51 63 48 33 64 91 41 27 86 124 89 89 103 106 107 157 136 145 155 132 121 77 55 40 32 20 5 51 97 108 87 81 79 69 65 77 85 89 91 86 84 86 92 104 121 127 130 113 76 53 49 94 94
38 53 64 60 40 45 29 24 23 65 67 83 98 110 100 90 106 149 192 176 121 78 46 31 15 20 31 68 50 27 42 69 92 90 86 81 75 87 92 90 98 104 119 126 120 116 138 151 138 127 141 155 152 121
104 123 105 88 86 35 8 23 37 74 79 75 76 90 90 104 112 123 118 121 57 33 23 52 108 137 139 99 80 82 58 49 50 55 67 96 75 119 125 107 88 82 107 132 158 175 168 126 91 98 111 103 93 109
143 111 94 95 51 37 33 47 34 44 66 62 57 59 59 70 71 60 57 50 40 74 69 101 91 64 67 73 76 83 77 144 160 144 130 120 148 159 167 156 163 171 156 148 135 126 122 103 93 86 77 59 84 94
123 129 111 65 26 36 48 71 49 48 30 33 53 39 36 32 28 23 14 41 83 89 29 24 37 63 100 92 99 108 114 145 154 148 161 173 164 144 169 170 146 156 152 116 101 97 93 87 106 94 85 85 85 72
126 93 72 48 23 11 46 35 36 41 49 49 31 27 37 25 27 21 29 46 10 -22 6 31 65 103 116 131 128 111 120 153 181 168 122 160 141 104 111 118 131 135 108 93 97 90 79 78 83 107 92 91 85 74
55 92 31 23 41 14 19 41 42 44 44 39 35 36 50 42 18 20 4 -17 -13 -2 4 17 40 70 90 107 115 131 129 128 168 193 160 109 112 132 146 152 151 132 94 130 113 104 96 91 95 90 74 66 68 66
26 68 20 35 52 27 28 32 37 50 71 49 42 55 51 43 33 7 -18 1 -4 -0 6 26 71 106 99 87 108 110 110 118 147 149 110 93 112 119 122 158 148 120 99 88 104 95 98 89 79 68 59 45 55 69
-0 43 56 75 79 64 65 71 98 68 47 24 42 44 29 11 2 -3 18 15 31 46 47 78 106 127 140 138 127 114 116 133 113 116 97 105 104 101 109 149 142 106 85 98 95 101 116 116 94 78 65 61 57 57
13 42 51 134 82 105 79 99 74 48 41 65 47 25 1 -9 -0 1 8 58 124 124 141 158 150 148 134 118 124 154 166 153 157 146 138 129 105 94 92 94 93 91 87 84 84 80 85 83 82 78 74 64 47 41
42 97 91 146 105 90 83 68 53 60 87 67 39 19 -20 2 10 57 79 85 94 143 170 180 173 179 198 207 192 164 128 106 125 109 94 101 93 80 71 72 77 72 70 69 57 74 79 74 76 71 66 68 62 58
101 101 76 90 76 71 75 60 88 114 98 35 43 100 217 232 135 52 55 52 61 76 79 105 109 134 133 161 160 153 121 101 88 101 112 111 88 98 114 101 87 76 71 78 76 69 68 63 54 65 67 68 67 71
69 72 80 93 97 73 -1 29 119 143 133 171 197 239 214 144 129 99 58 12 53 94 124 125 109 99 134 140 139 144 115 78 95 101 108 120 108 101 78 63 62 69 74 72 72 69 66 67 66 64 63 60 57 60
61 45 54 107 75 -62 127 118 112 130 146 166 175 154 161 126 93 33 13 27 83 114 97 120 141 125 114 132 121 101 104 111 110 107 117 112 103 77 76 76 63 67 70 75 76 73 67 64 58 58 60 52 54 63
66 79 99 134 114 75 83 121 129 157 190 163 135 101 101 102 83 20 -1 15 53 106 109 105 119 115 115 115 108 101 102 97 92 94 88 79 74 67 62 58 66 70 73 68 64 63 64 63 59 59 59 65 69 77

GFSWCAN_con_3kmhel_087.txt.gz
Helicity
56 52 42 35 18 18 27 24 14 -1 1 -15 -48 -39 -40 35 43 46 98 146 176 94 62 41 30 54 57 57 31 70 66 51 32 37 44 38 38 49 57 28 31 38 49 35 43 88 99 102 46 79 53 216 191 240
57 48 42 28 23 26 27 11 -2 -5 -14 -42 -55 -45 -35 24 5 -7 93 141 122 116 13 4 -1 -8 18 29 54 82 97 91 59 66 59 34 69 56 53 52 49 47 39 27 74 71 215 176 137 192 216 252 257 238
43 39 36 28 37 27 17 -1 -12 -24 -42 -54 10 -1 -7 7 8 -21 96 177 154 62 51 -0 39 18 47 46 71 55 41 28 26 -36 59 70 57 50 41 25 29 3 -34 31 59 125 199 183 194 215 224 233 245 219
40 41 31 43 28 25 24 -8 -18 -22 -26 34 23 14 11 18 9 -0 182 209 178 36 -18 -2 -20 -14 10 43 82 61 64 35 9 -48 24 85 60 38 35 24 2 -29 -17 -5 112 235 213 294 238 182 199 225 247 249
47 38 49 37 25 30 14 10 23 47 105 70 38 24 31 26 41 42 229 196 177 121 10 16 28 -47 18 41 36 68 29 20 22 -9 31 77 45 27 33 -13 34 44 45 -0 22 21 112 262 226 200 161 180 219 143
43 42 44 31 36 31 33 37 62 88 72 32 9 9 32 28 142 181 93 91 124 117 66 15 19 55 51 44 62 53 9 39 31 16 21 49 16 24 25 5 21 54 4 25 2 21 37 14 13 31 30 7 8 10
48 49 38 36 41 51 43 47 87 60 52 34 29 -7 13 141 117 125 46 31 161 177 90 65 62 49 48 74 72 69 46 32 24 26 18 43 38 11 13 25 48 42 43 51 65 -9 17 59 12 18 38 35 35 18
53 40 45 45 51 49 42 55 56 43 46 26 6 -8 81 119 114 101 65 77 157 88 39 66 50 62 47 92 113 141 83 64 30 39 22 34 16 35 37 78 72 68 42 69 74 56 54 43 58 53 45 34 38 41
53 51 47 44 42 47 51 39 20 23 23 21 1 20 139 143 115 128 48 84 63 39 27 17 15 9 42 53 55 77 80 76 38 13 19 19 39 29 56 77 85 77 56 50 62 88 106 106 79 64 58 63 51 60
53 52 47 34 38 45 33 23 14 21 12 5 89 123 95 135 187 115 121 66 50 54 39 -9 39 -28 2 33 25 84 42 45 35 31 72 58 56 138 146 110 79 76 84 107 84 96 94 88 76 78 91 104 105 106
65 59 57 42 21 35 13 11 2 23 27 98 94 183 99 274 167 148 89 75 62 39 28 51 -21 13 21 33 14 14 4 12 6 12 19 35 68 149 111 72 46 59 64 75 84 100 122 118 80 74 110 128 123 131
84 95 94 91 53 10 -31 -3 21 149 169 153 219 334 254 118 94 128 91 76 36 31 42 44 25 39 23 53 13 14 9 -2 -0 38 32 11 78 87 63 55 48 56 66 74 72 64 87 116 115 110 111 120 136 155
136 77 38 66 31 3 -9 15 164 114 102 325 336 200 129 91 113 115 119 81 43 36 47 84 75 45 29 24 45 24 -2 -2 21 18 11 35 79 51 45 46 59 61 55 62 75 90 102 116 128 115 109 106 116 138
68 81 54 73 155 147 117 119 178 156 334 254 202 170 124 168 127 74 86 84 88 68 47 91 61 30 33 36 23 7 30 42 12 -5 -7 69 56 74 72 57 60 61 81 89 96 106 117 117 117 116 107 96 106 115
89 153 208 185 149 185 233 185 200 224 352 170 168 123 82 98 111 108 90 93 110 88 87 91 91 47 68 35 56 27 9 -16 -11 33 24 48 70 79 83 81 77 69 53 44 35 43 44 51 62 73 72 75 77 72
124 197 211 140 142 129 145 219 278 228 156 131 133 112 102 127 156 147 129 116 118 102 119 95 47 38 49 37 33 36 67 38 21 42 73 98 90 80 64 51 42 37 45 42 46 43 48 61 64 65 73 80 80 76
94 121 89 133 149 179 163 174 214 189 139 114 117 153 138 148 125 130 130 119 167 98 94 68 43 21 45 46 84 83 47 33 64 105 97 85 64 52 49 49 48 52 54 51 50 60 66 67 73 82 112 76 81 74
115 78 105 56 40 150 186 132 126 92 82 131 72 112 145 143 152 173 132 152 152 85 77 47 49 63 70 26 -11 30 78 103 111 112 68 57 58 53 56 61 57 60 63 71 82 80 84 78 85 97 90 61 63 59
69 59 23 34 114 80 47 57 62 15 71 100 76 80 101 116 159 159 153 182 133 89 69 75 63 40 16 22 38 70 75 98 82 55 54 52 66 79 87 87 83 90 102 107 110 127 120 122 119 105 90 81 98 96
40 32 20 39 56 87 48 50 54 31 38 51 56 81 99 113 123 146 177 166 130 90 55 37 19 14 6 31 43 44 40 55 76 85 78 65 73 89 85 91 101 120 129 131 130 126 129 129 120 106 106 114 140 127
105 100 70 70 88 50 12 34 55 78 67 60 73 84 97 123 119 113 104 91 47 41 26 42 61 74 86 78 47 44 41 40 43 53 56 67 63 88 102 99 101 110 131 130 132 132 132 111 86 85 92 93 98 96
110 77 86 77 34 18 32 73 69 70 71 72 67 61 72 89 92 78 72 55 40 48 34 35 71 78 67 54 41 34 36 61 72 91 107 116 133 145 140 117 127 128 130 117 112 110 103 89 88 90 93 83 89 96
104 87 84 60 30 49 60 103 90 88 55 59 75 69 62 53 42 49 25 28 64 100 88 70 49 60 78 70 88 88 85 125 129 127 136 146 139 123 125 124 109 120 120 97 101 104 98 92 93 88 87 88 89 88
114 84 53 33 29 37 49 48 61 71 76 69 45 35 39 20 39 14 11 61 105 39 8 38 60 87 84 79 96 102 103 115 141 152 125 138 138 114 115 120 111 93 73 89 102 111 107 97 82 94 93 91 86 76
59 90 28 20 40 21 20 41 45 37 44 39 27 23 33 33 34 40 15 19 -26 -17 19 28 56 82 108 94 90 91 81 100 129 155 118 91 133 153 146 138 128 112 84 110 103 103 99 105 107 101 91 85 80 75
29 60 11 23 43 19 24 30 36 43 66 45 37 50 52 36 20 19 6 -18 -10 7 24 52 70 71 81 74 94 92 95 101 125 143 117 99 96 128 136 143 134 112 100 100 105 95 95 100 99 92 79 64 67 74
5 25 42 65 65 49 44 54 71 58 46 25 40 46 31 18 24 33 -7 -8 6 10 11 37 63 83 94 90 92 97 119 121 123 137 119 117 112 101 104 124 131 112 98 88 87 86 92 94 96 90 79 75 69 71
-0 50 47 111 74 89 61 87 66 55 46 60 62 39 29 18 13 -11 5 38 102 107 125 123 117 130 129 117 115 153 185 181 184 161 142 132 118 110 111 105 102 99 85 74 80 77 76 79 84 88 89 80 69 71
28 72 77 123 92 74 73 68 57 63 87 69 41 51 56 56 59 62 93 95 98 139 167 180 177 177 182 173 164 149 126 137 162 143 126 105 102 94 92 87 83 79 72 74 59 75 71 70 65 64 64 67 63 68
63 90 64 77 60 48 91 83 92 110 105 68 41 81 148 207 202 115 79 80 85 100 103 113 105 126 126 144 143 147 125 101 94 123 118 101 84 91 101 101 88 76 74 83 81 68 70 80 78 83 81 81 82 78
105 90 73 77 67 83 20 61 101 117 121 117 206 263 274 212 177 125 64 31 72 118 151 143 125 98 122 119 125 140 124 92 98 95 96 107 103 96 90 75 64 71 74 80 82 80 76 77 78 74 70 67 62 69
90 64 56 67 102 82 127 114 113 161 164 175 188 176 198 161 130 79 27 28 79 91 72 88 104 79 82 101 104 97 116 123 111 106 111 102 92 74 66 62 64 73 80 80 74 74 75 73 68 71 71 64 64 69
76 65 60 110 88 67 88 96 96 105 138 138 131 125 124 135 125 62 15 27 56 76 70 82 110 119 118 126 130 122 121 112 101 101 96 87 78 69 64 61 71 75 77 75 76 78 81 79 79 78 74 74 72 76

GFSWCAN_con_3kmhel_090.txt.gz
Helicity
60 38 8 41 44 44 28 25 35 44 33 16 3 -4 -36 -44 -31 29 58 117 124 56 51 25 -2 35 69 48 43 49 41 50 49 53 55 74 72 76 85 65 53 30 26 13 20 25 25 56 7 44 67 125 89 92
85 35 37 44 43 44 36 27 30 35 16 8 8 -24 -47 -44 -34 10 53 82 130 93 18 7 14 12 -3 9 31 56 45 45 69 56 75 61 70 59 72 88 42 46 20 28 14 36 156 145 98 139 151 176 157 127
35 15 51 48 47 36 34 34 32 21 4 -2 -30 -72 -58 -49 -36 2 39 67 152 82 20 20 35 56 62 70 68 16 24 29 39 20 53 55 60 47 85 71 54 39 32 19 21 124 213 157 132 142 141 165 147 128
48 39 45 37 40 34 27 28 28 20 -6 -24 -53 -59 -44 -25 -13 -13 12 124 156 80 8 2 -0 4 9 77 71 63 38 56 17 -9 57 62 68 31 45 27 16 38 14 11 -5 38 74 191 216 141 162 157 156 165
26 41 51 48 40 43 33 17 27 11 4 9 43 4 23 13 -2 -17 8 157 165 82 -13 24 26 14 53 71 82 80 59 54 29 -53 42 69 47 31 28 25 33 15 53 49 15 33 48 83 130 144 108 131 133 91
47 47 38 45 39 48 29 41 43 19 51 130 129 -0 9 -2 -1 119 101 128 146 188 39 19 6 27 62 83 60 36 42 48 19 44 23 27 33 38 49 41 30 30 -6 49 20 7 -7 1 -4 -9 -16 5 9 -14
25 14 26 39 47 41 47 52 32 55 87 95 35 14 -12 15 118 69 43 40 162 133 81 28 52 50 40 58 45 43 31 30 27 27 -1 12 28 31 34 47 47 24 32 46 35 -4 7 38 20 13 18 19 25 27
31 20 33 45 52 48 52 39 40 71 100 67 47 -0 29 101 144 90 73 61 132 106 66 50 40 30 44 47 61 56 50 40 35 30 18 24 29 32 27 68 44 50 29 42 46 35 41 46 55 55 34 23 34 43
24 37 43 51 48 45 47 55 74 81 85 52 48 25 132 102 72 46 64 66 54 29 23 17 1 -4 41 72 89 97 84 43 41 31 24 36 30 19 42 51 47 66 59 46 32 49 71 87 72 58 51 50 40 42
44 40 50 50 45 39 43 53 68 93 67 41 44 126 54 84 140 190 86 69 42 44 21 6 30 7 20 43 36 37 40 58 44 -1 20 63 36 117 128 110 86 62 62 63 61 71 90 81 78 65 54 46 58 64
54 52 45 48 50 35 54 62 59 64 41 56 80 113 106 221 119 95 85 81 68 35 24 13 24 24 21 39 40 28 11 14 36 24 16 -10 7 102 126 115 104 80 76 71 76 91 98 94 83 76 85 94 101 116
59 59 47 32 36 41 39 39 48 52 69 71 110 215 165 80 68 94 77 84 46 29 14 23 3 41 -7 3 3 -2 8 -17 7 32 4 8 71 114 93 78 69 71 72 88 107 114 121 127 131 120 118 124 137 134
18 -4 32 37 42 23 16 47 37 107 118 187 139 157 143 88 110 86 96 109 49 11 25 44 65 21 16 -9 5 -0 -10 -17 31 -15 3 60 99 108 82 67 74 78 80 96 120 121 125 134 140 129 130 124 128 138
112 189 209 75 45 6 -3 -18 122 182 298 149 123 245 200 139 114 79 62 89 74 55 39 71 85 31 10 13 -2 -18 -6 2 -2 6 16 68 98 84 95 88 88 89 106 96 69 56 48 50 62 68 66 60 77 87
51 145 165 60 -5 25 92 229 341 320 215 161 192 265 198 133 131 83 97 95 104 94 63 83 70 35 17 -6 16 18 2 -14 -24 -7 21 60 94 99 101 93 80 64 45 30 14 26 29 34 49 61 61 68 75 82
140 195 182 256 286 278 405 358 339 385 115 258 235 189 265 128 133 119 101 90 135 82 90 77 75 51 30 12 29 -20 -9 8 50 52 68 109 102 99 80 50 31 22 29 32 33 36 53 68 74 72 80 92 94 88
108 112 89 161 172 188 198 249 232 214 114 144 147 155 178 145 115 116 113 122 126 92 60 83 60 23 41 20 11 67 94 87 67 65 89 93 87 52 41 49 53 51 48 51 63 76 79 76 86 103 130 97 97 86
194 112 92 117 176 227 225 166 108 226 149 160 122 141 125 153 138 130 129 122 99 53 43 50 36 25 -16 -17 35 68 89 86 74 82 94 71 48 44 46 50 43 53 64 74 77 71 75 84 104 110 104 78 80 80
109 97 86 95 102 149 91 208 127 94 135 140 103 142 154 158 195 158 152 143 120 88 37 45 35 33 62 58 39 28 47 64 72 77 52 46 50 57 54 58 64 81 85 76 77 92 96 104 117 101 92 83 90 107
80 126 112 102 82 86 58 86 112 99 86 78 79 87 102 115 140 172 167 181 137 89 52 46 33 25 24 10 -9 -0 42 72 81 82 71 57 52 68 83 97 99 99 109 119 120 117 121 118 115 103 104 97 109 126
66 116 108 116 109 62 32 49 60 59 97 82 77 88 91 113 120 120 119 122 74 56 20 15 38 42 62 62 75 62 45 43 46 55 53 71 65 102 101 91 101 106 121 117 114 104 107 93 83 90 94 96 98 92
81 52 77 68 37 26 29 81 54 86 93 86 87 83 80 75 87 85 86 60 48 53 44 30 56 64 97 73 32 33 49 63 74 97 103 97 112 128 137 115 126 121 117 106 105 99 90 86 93 100 98 85 89 96
84 74 69 40 11 33 58 111 83 82 55 59 73 66 54 50 53 67 32 39 44 73 85 105 109 102 95 78 86 75 65 84 96 101 109 129 132 123 127 119 100 117 110 91 97 103 94 82 88 89 94 90 87 82
83 54 44 33 28 38 65 61 58 61 61 65 45 36 54 32 57 35 11 40 92 103 102 75 74 87 92 85 90 79 78 107 137 134 112 132 159 145 113 117 105 101 86 89 107 108 103 93 81 88 88 84 82 75
44 70 29 36 46 39 39 58 64 46 71 68 58 55 58 54 26 21 -7 41 84 11 29 40 55 63 88 82 81 85 70 83 110 136 114 107 136 148 141 130 121 105 93 111 102 104 98 99 99 95 90 88 75 68
42 59 29 38 54 29 36 42 42 35 75 55 45 54 51 28 22 16 21 -4 -11 -10 7 41 60 72 76 61 71 70 73 86 123 141 117 109 107 125 126 133 124 107 108 104 106 94 83 91 91 88 76 69 67 73
8 27 34 59 58 47 44 56 66 48 43 20 31 36 41 25 38 46 66 40 -16 5 22 36 55 71 74 85 95 96 116 117 130 139 128 125 112 95 100 113 113 105 104 95 93 88 84 81 84 83 74 75 69 70
7 18 13 75 49 68 32 64 50 49 49 62 61 40 25 25 33 70 84 75 105 116 109 104 92 98 110 102 106 142 177 174 186 168 149 139 121 109 102 95 96 96 87 81 83 84 80 83 81 77 74 70 66 73
18 59 50 89 65 53 52 52 53 63 80 71 37 40 53 53 88 133 119 99 104 138 144 151 153 160 171 154 136 137 137 142 157 156 152 128 115 93 96 90 87 86 80 72 58 71 75 80 76 74 69 71 63 69
42 64 48 64 51 48 75 70 82 86 91 87 47 70 113 163 231 199 133 110 112 126 109 113 97 120 123 136 133 130 112 96 104 142 146 125 103 93 99 98 91 80 74 82 75 65 75 89 89 83 79 72 78 79
69 68 58 66 56 68 47 109 111 88 102 107 147 187 245 247 252 227 153 100 96 110 135 132 120 95 116 106 108 123 114 100 106 103 106 116 113 103 86 74 68 71 82 86 83 80 76 78 79 75 68 65 62 76
84 62 52 58 93 78 118 104 101 150 184 168 185 176 221 193 161 121 87 63 83 99 77 82 93 64 65 81 88 89 104 134 122 114 118 110 97 77 69 66 68 82 88 83 77 75 76 77 73 74 76 65 67 68
99 96 84 97 95 89 100 83 88 91 127 112 116 121 130 138 142 108 66 49 63 58 70 76 91 109 105 108 119 124 137 136 122 115 105 93 83 72 67 66 76 78 80 76 76 81 83 84 83 80 71 69 70 74

GFSWCAN_con_3kmhel_096.txt.gz
Helicity
37 61 72 84 41 24 7 14 39 41 33 42 31 38 31 27 16 15 12 54 29 15 0 27 -2 -6 -2 11 36 56 35 29 50 49 36 39 60 64 44 50 45 46 34 47 54 57 66 50 38 33 33 50 12 47
68 67 76 65 73 66 34 21 43 31 28 51 32 38 29 9 6 -10 -2 28 64 25 11 16 35 32 6 6 18 26 48 53 62 53 50 34 49 66 74 49 58 50 66 54 54 45 28 24 46 52 60 59 79 50
33 61 69 61 62 61 -3 -2 34 32 27 35 11 16 12 8 0 -13 -18 22 43 12 0 10 17 19 -22 -2 -4 15 12 35 43 40 57 39 40 39 66 58 56 35 34 32 5 27 36 41 21 33 58 67 77 67
39 48 26 12 13 29 -3 6 28 39 35 25 18 13 9 15 0 -19 0 21 21 7 14 36 24 6 -1 -13 46 24 0 -1 16 23 50 48 48 39 42 49 42 41 27 39 28 11 8 46 74 63 54 48 46 57
42 49 63 68 51 31 5 19 37 37 37 21 12 10 5 16 -7 -23 -25 7 19 -4 6 27 68 40 -2 -15 -32 33 19 -2 9 32 56 44 31 39 24 20 39 43 40 51 48 44 60 57 56 47 50 61 64 63
43 38 26 29 30 13 -7 26 38 26 36 22 19 10 0 -5 -19 -9 -31 -21 29 13 -8 -10 14 -8 -5 -17 -37 27 36 30 12 21 51 33 28 32 60 56 46 30 26 42 27 16 33 13 6 18 14 13 19 33
28 33 14 31 36 20 29 38 33 44 32 27 17 -28 -40 -3 -1 34 21 36 19 139 10 -5 -26 12 48 68 76 47 28 14 12 5 16 14 25 16 16 48 37 28 31 31 31 29 20 16 29 23 22 13 10 33
37 39 25 28 25 31 35 41 45 37 29 29 32 41 140 124 37 -2 -7 11 82 94 30 30 45 34 26 19 23 22 21 23 15 -2 12 11 17 11 25 47 37 39 32 44 47 64 77 49 36 31 16 13 26 42
55 55 41 38 24 20 42 23 23 36 38 43 60 108 110 148 143 61 36 63 44 43 39 38 32 15 15 18 30 29 16 21 26 -16 1 19 13 -6 40 23 38 60 53 44 37 45 52 52 42 41 41 55 67 80
77 67 38 23 10 27 39 35 25 41 35 42 71 97 67 56 110 124 90 51 48 49 44 12 4 -14 -10 19 30 31 13 12 -25 -4 -3 11 24 68 80 109 91 83 81 62 13 25 27 37 44 53 57 61 73 82
51 32 25 18 21 31 47 44 47 36 31 75 70 97 103 165 164 88 84 58 50 24 18 8 -22 -21 -19 1 33 -1 1 4 27 28 6 -16 0 30 67 86 89 84 76 79 84 76 70 68 46 44 47 59 70 83
24 21 20 21 37 45 60 55 52 57 85 90 66 186 135 79 83 73 60 45 23 17 14 13 -14 -16 -14 -8 15 10 8 9 39 -30 -33 -12 -5 72 61 68 67 55 47 55 57 56 70 81 81 77 70 84 95 75
18 17 19 30 32 35 64 57 57 59 73 109 121 189 112 85 56 26 24 29 17 3 9 14 -1 -13 -11 -6 -4 8 13 25 -6 22 1 11 61 72 67 69 76 64 58 66 80 93 89 89 98 90 75 41 19 32
15 20 37 46 65 60 73 77 60 62 113 121 112 95 135 68 20 21 13 24 33 22 28 13 26 13 11 -2 -6 8 -4 0 28 15 2 41 64 68 60 59 72 88 98 98 86 71 70 69 65 47 33 24 31 54
27 39 52 61 67 60 79 75 64 34 153 77 152 123 53 49 51 45 36 49 46 44 50 31 53 29 20 9 6 -2 5 12 8 -12 47 84 69 63 75 92 101 84 64 57 51 53 50 45 51 66 65 74 87 93
26 37 29 41 50 53 67 65 126 53 70 106 84 92 81 55 39 37 43 59 49 53 53 34 32 28 10 -3 -19 -10 -6 -9 -5 54 113 112 90 84 98 103 84 69 72 80 80 85 88 90 104 120 120 117 104 91
16 -28 36 77 38 52 65 153 147 102 113 131 75 110 102 90 72 84 82 62 64 46 52 33 7 17 33 -13 -26 -26 -26 46 84 116 116 106 100 96 85 72 73 81 97 115 131 142 149 142 128 124 133 111 100 105
-13 68 41 -9 -11 113 229 153 176 165 65 52 79 92 125 131 117 143 113 112 105 66 60 49 36 29 9 -13 -30 4 78 105 117 111 109 105 86 66 70 93 100 115 128 132 136 136 133 127 127 123 105 95 86 81
158 146 203 239 298 307 251 180 157 152 106 101 146 157 114 102 129 111 95 123 102 98 64 54 33 26 22 30 46 68 90 88 98 96 75 72 81 92 99 107 112 117 124 118 108 103 102 93 93 86 80 73 71 73
153 143 125 202 393 357 221 203 171 83 31 32 73 107 133 131 144 134 119 121 106 90 45 50 58 38 41 42 49 72 80 83 71 80 82 76 83 93 102 97 100 112 110 107 100 94 96 95 86 86 90 95 80 83
153 244 195 156 240 158 103 158 93 77 150 156 130 137 116 123 112 114 103 133 81 59 35 42 28 31 30 50 81 89 81 49 52 51 78 93 87 92 100 102 102 100 106 123 117 119 100 95 111 96 94 96 97 93
120 150 177 104 119 61 64 123 89 122 133 131 120 123 99 86 76 80 95 73 62 62 47 45 62 68 73 99 103 79 70 69 72 106 116 114 108 108 106 106 105 124 123 116 108 105 109 110 104 97 91 93 84 87
130 160 132 61 34 62 64 141 118 158 93 100 107 60 50 57 69 92 47 54 42 59 71 82 93 95 114 128 109 89 73 86 93 93 97 107 112 112 118 123 117 126 128 122 104 112 117 117 112 94 88 78 73 73
86 72 69 59 56 30 85 89 112 106 88 100 67 29 50 44 61 49 13 23 60 80 86 92 99 122 120 93 81 85 82 82 93 101 104 112 121 127 125 132 129 129 123 122 116 121 119 108 103 86 87 78 82 78
50 59 37 27 52 63 68 70 80 70 54 79 68 31 31 53 35 20 12 27 61 87 92 94 93 67 64 80 82 85 71 63 80 112 108 107 125 126 128 132 137 133 114 115 115 106 102 98 92 86 83 82 82 79
32 48 37 44 51 53 49 45 38 36 74 61 39 36 61 46 40 12 18 30 74 99 84 66 62 75 79 73 93 87 85 78 89 107 108 98 105 112 128 140 146 150 117 114 109 99 93 91 86 78 74 79 89 76
23 36 38 51 62 50 45 52 71 73 52 36 36 49 54 33 22 28 41 93 96 87 86 76 58 67 96 108 106 105 98 91 99 119 125 122 125 126 130 152 158 157 114 106 102 102 98 91 85 82 79 74 71 69
23 49 33 59 46 61 54 61 52 47 38 51 60 44 36 36 34 51 84 124 116 121 121 125 114 94 107 101 100 111 118 119 132 135 133 133 133 138 138 136 126 116 102 89 85 87 79 76 72 71 70 66 65 68
23 42 37 59 53 44 45 45 40 41 65 89 49 37 42 48 72 99 106 85 78 94 132 131 130 112 124 122 113 96 99 94 110 121 117 125 134 146 124 112 102 94 78 69 72 64 66 63 61 60 59 63 68 72
25 45 16 31 35 33 42 53 53 64 87 86 46 60 82 93 129 191 133 114 111 126 127 103 87 80 96 96 104 102 87 81 84 101 115 131 150 143 119 101 90 82 68 74 79 72 72 66 65 69 71 74 75 78
48 36 30 41 36 49 62 77 72 70 88 88 98 75 84 118 192 224 197 172 136 108 104 112 98 76 78 86 87 102 108 92 98 112 127 139 133 119 104 95 82 70 71 79 78 77 76 74 78 78 76 76 76 80
54 45 32 30 45 35 76 77 81 105 122 104 124 100 121 148 171 160 170 138 110 112 92 81 89 86 77 85 94 99 125 133 123 120 120 113 107 99 92 82 72 70 82 82 82 83 84 84 84 81 78 77 87 90
41 53 57 52 54 53 65 70 75 74 89 95 97 113 119 121 108 130 118 115 107 92 100 96 98 97 96 104 123 136 135 126 125 120 112 107 96 89 81 72 67 80 80 83 85 88 86 84 86 91 94 99 99 97

GFSWCAN_con_3kmhel_099.txt.gz
Helicity
19 45 60 45 37 42 52 20 26 15 41 47 59 15 30 26 24 34 43 33 36 45 4 -11 0 3 20 29 58 42 62 25 39 65 56 41 46 46 39 34 48 50 39 44 31 37 54 138 62 89 73 54 59 65
24 12 45 62 78 55 8 6 10 23 46 48 50 29 33 33 29 36 32 -8 10 15 -4 -5 -30 36 -6 -11 31 39 41 43 45 51 45 38 50 44 36 23 61 32 56 38 55 58 47 38 57 62 72 63 80 62
27 17 27 59 83 50 25 31 15 25 42 31 41 24 31 34 26 13 23 1 39 32 -4 10 35 30 13 -24 -22 18 15 45 34 38 28 27 36 31 43 41 48 25 49 30 2 42 49 43 26 34 49 57 46 33
36 66 85 65 65 88 72 36 14 14 36 32 37 26 26 29 15 -3 11 10 39 7 12 24 25 25 23 -6 -17 -6 15 19 26 14 32 35 39 29 34 35 42 46 35 39 27 17 7 31 56 53 52 46 43 42
43 54 69 61 39 5 23 22 14 7 31 31 29 11 26 21 19 -5 -12 12 -3 -8 2 -5 34 38 30 -6 -13 -9 -11 -2 6 19 27 29 28 37 22 20 45 41 46 47 53 42 54 53 48 47 46 46 41 41
40 45 45 42 20 24 25 26 16 22 40 44 34 24 20 20 28 23 21 -7 17 5 -32 -22 19 7 4 -18 -6 4 28 -13 5 10 17 19 17 20 32 39 40 37 31 33 23 24 36 16 7 10 20 33 30 32
52 54 46 40 23 35 43 34 18 33 30 35 16 24 26 27 27 44 51 38 25 71 17 -8 -20 14 -18 -18 11 29 44 30 4 8 -3 4 28 22 26 39 39 13 29 34 18 0 13 2 25 18 26 15 13 40
29 56 49 22 15 17 28 22 25 37 37 21 23 8 -18 3 21 -30 -22 18 98 129 40 2 0 10 41 14 8 20 19 26 17 10 14 12 17 22 35 43 21 26 25 34 37 44 64 43 32 34 29 22 24 40
28 57 52 36 41 32 22 28 39 45 33 37 -16 -54 6 48 42 -25 16 -19 36 27 24 25 10 5 24 22 23 13 17 4 26 7 -1 7 13 21 53 41 42 52 35 37 34 37 45 59 64 64 64 61 67 64
52 58 54 45 32 26 38 39 45 39 40 10 27 87 71 64 145 207 87 52 37 34 34 20 8 -2 3 -1 15 10 3 -4 6 2 31 19 15 28 73 97 74 45 55 44 16 23 25 34 52 71 76 78 83 84
64 71 71 49 37 41 45 43 27 41 40 42 76 56 91 177 108 91 79 68 48 22 18 27 10 -18 6 3 6 0 -3 -1 -11 7 1 -22 7 67 43 74 82 79 72 74 91 88 77 66 49 52 63 75 79 89
70 72 59 50 41 33 37 36 29 48 31 79 81 92 159 77 79 80 66 65 22 16 23 15 8 -14 -3 7 -6 -5 1 12 32 13 -18 -5 20 33 63 61 57 59 69 78 75 78 83 89 84 82 85 104 113 96
57 56 45 45 39 12 25 41 46 79 62 66 105 124 121 108 84 57 47 60 34 4 14 39 28 10 18 17 5 2 14 26 9 -6 -13 0 48 60 57 55 68 72 75 83 93 102 110 109 103 85 77 63 59 69
45 45 39 34 27 31 46 70 72 20 59 93 141 155 143 78 55 31 37 28 61 26 -1 27 11 23 -4 -10 -1 21 2 10 27 17 -3 14 70 65 53 50 59 84 103 101 89 79 75 76 85 86 79 65 63 70
41 32 24 18 24 42 55 74 41 25 86 153 98 139 87 72 73 54 59 48 40 12 28 23 29 16 11 3 2 5 17 24 16 -14 22 83 104 95 80 84 95 98 79 69 67 78 85 80 77 83 78 79 78 74
27 40 43 23 37 57 57 101 70 95 57 88 122 95 89 63 43 30 28 54 24 32 24 16 26 24 12 17 3 14 7 -2 -21 33 103 131 120 96 96 100 87 72 73 82 82 77 77 75 73 87 85 87 82 81
13 69 43 33 55 69 84 85 98 91 93 115 123 127 97 108 60 60 67 39 48 24 46 25 18 18 17 -9 -12 -12 -2 35 77 98 104 106 102 116 103 88 84 76 72 73 73 74 78 84 79 71 73 109 64 99
49 52 44 42 70 186 178 168 136 89 136 127 102 99 109 136 78 65 66 56 54 53 46 40 27 14 -8 -11 -8 22 53 87 112 131 117 117 88 79 78 87 75 71 76 86 97 104 110 103 93 120 104 102 83 66
55 42 33 43 110 185 220 143 143 68 72 86 107 98 69 64 97 103 85 109 111 118 79 41 19 18 28 42 53 73 82 105 121 111 93 83 87 89 89 94 94 96 105 103 102 113 132 122 125 117 117 106 101 89
124 37 2 -1 87 221 192 131 116 52 17 42 56 75 105 92 80 105 92 102 84 74 54 41 44 31 35 46 58 82 98 98 85 75 81 79 81 86 92 77 91 106 96 107 105 104 114 105 98 106 114 111 106 101
273 44 52 -32 192 168 126 93 131 81 52 75 54 74 136 82 87 91 82 88 64 62 44 39 35 61 70 55 72 85 83 57 53 59 75 79 75 85 84 98 100 91 99 113 114 135 116 120 129 117 103 98 105 87
422 431 389 222 123 109 118 189 134 82 62 -20 75 60 87 101 102 105 91 86 69 70 69 31 46 60 83 82 74 103 112 107 105 117 129 108 80 90 100 103 97 112 113 121 118 130 137 135 126 105 96 97 92 80
116 87 186 200 77 95 105 221 167 126 61 92 160 124 80 76 90 93 48 58 56 63 63 62 86 105 114 109 121 107 75 76 86 97 90 98 108 113 111 108 107 117 126 141 131 131 136 164 124 105 92 89 85 84
154 131 154 139 91 61 71 114 125 110 108 129 116 76 46 47 64 53 15 15 43 58 75 96 108 111 113 113 103 97 91 95 108 107 93 93 110 122 116 124 133 149 156 165 142 136 129 116 130 93 93 91 80 87
57 91 54 45 64 74 76 99 97 83 67 104 70 40 11 33 32 13 -8 -11 13 50 87 100 87 79 93 106 108 105 86 87 100 112 100 103 130 122 123 133 149 158 138 132 143 144 125 121 100 91 88 83 80 82
57 52 47 63 87 89 54 62 49 46 61 64 50 27 41 20 19 -14 3 14 58 101 99 88 92 105 105 88 92 99 106 95 103 116 111 111 116 112 121 123 132 186 150 136 125 125 121 123 107 96 87 84 111 90
27 21 29 53 68 64 72 91 77 77 48 -2 23 31 29 7 2 3 59 112 96 109 114 115 102 97 112 138 146 127 124 141 147 140 126 127 130 133 138 148 171 201 148 134 123 125 126 116 105 98 92 83 78 76
30 52 32 55 56 76 62 61 47 39 29 46 48 35 29 37 27 62 85 134 159 223 234 219 187 140 118 116 115 120 136 129 128 125 127 134 131 134 145 157 157 149 133 120 110 101 108 100 89 81 78 77 74 71
29 55 53 61 56 36 48 46 26 30 62 119 53 40 27 43 62 78 121 154 129 122 126 138 149 131 139 134 122 116 107 101 110 121 130 140 121 131 131 134 130 118 101 94 110 92 79 78 76 78 76 76 78 77
31 58 29 31 30 23 23 55 34 45 86 95 54 29 32 58 99 145 132 95 83 109 132 140 129 121 131 121 124 121 108 100 101 108 132 142 154 149 132 127 117 111 94 96 98 90 86 74 76 77 85 83 84 88
51 36 23 26 17 21 32 40 38 50 81 105 91 47 52 79 124 184 226 196 158 158 147 144 142 123 117 109 106 107 112 96 113 132 144 148 142 136 130 117 104 95 93 93 96 89 93 88 91 91 92 98 96 103
48 34 12 19 29 35 70 64 64 67 72 67 75 76 81 100 127 137 195 213 164 155 149 140 137 136 120 117 115 120 148 131 132 134 138 134 134 125 114 101 93 88 89 89 88 90 92 92 97 102 111 109 120 118
33 39 30 35 41 37 46 49 52 57 70 73 101 135 153 140 104 140 166 235 197 144 159 152 128 119 122 122 118 124 134 139 154 152 152 150 138 110 89 91 84 84 87 85 85 92 100 108 117 124 124 125 117 112

GFSWCAN_con_3kmhel_102.txt.gz
Helicity
46 27 17 9 5 -6 22 31 32 37 44 47 44 36 41 37 44 62 57 37 60 59 48 58 30 25 18 30 33 43 67 39 51 79 67 62 59 59 61 62 65 52 96 51 83 53 29 163 50 82 67 50 64 69
10 8 34 29 33 21 32 29 35 29 32 40 59 40 22 25 33 53 59 24 45 45 8 25 7 -22 -3 -16 7 25 60 52 52 63 57 61 66 66 66 25 53 48 40 30 58 44 37 42 46 50 58 63 68 67
46 51 44 32 41 40 28 -4 20 25 30 40 36 31 24 28 25 32 66 48 50 24 33 28 18 20 22 17 7 -0 9 40 25 15 28 42 72 53 79 38 21 15 46 21 -0 50 47 46 41 39 35 32 40 37
41 39 46 69 55 53 35 9 20 26 31 33 22 31 22 30 25 20 31 39 38 19 35 35 24 9 28 14 5 -14 20 28 18 14 34 29 54 51 52 37 39 50 43 38 35 38 38 40 38 49 47 46 39 35
50 34 31 31 33 68 43 37 34 28 10 24 38 39 29 26 21 10 7 10 -10 24 23 -6 -9 8 27 16 -5 -11 -9 3 23 22 33 43 35 40 38 25 54 48 39 43 49 41 42 46 41 36 32 35 35 42
67 59 59 50 42 53 26 46 44 31 9 20 37 26 24 27 21 47 47 -3 6 21 4 -4 1 5 20 7 -24 10 -18 -1 3 10 36 26 22 16 34 37 38 38 42 29 32 23 36 6 -5 -2 26 41 45 46
55 44 58 62 58 40 39 45 36 15 10 39 47 38 27 28 29 53 51 11 77 15 5 -8 1 40 17 -11 9 23 15 20 15 3 10 36 50 18 20 47 30 25 37 31 14 4 10 -5 21 24 30 22 16 43
66 46 43 54 43 22 36 47 37 20 27 53 41 42 48 54 37 -17 17 37 68 34 20 11 12 30 26 -4 -5 19 14 8 -0 1 23 10 16 18 42 34 25 32 36 35 27 38 48 36 31 39 40 54 56 89
66 61 43 38 31 32 49 44 27 12 34 44 50 51 71 57 2 -22 -14 4 9 18 28 6 15 12 2 11 10 20 18 6 -7 -0 -2 9 15 42 69 55 78 62 39 24 25 43 49 73 72 81 95 99 142 127
81 62 54 51 35 40 43 35 20 27 51 53 68 89 77 9 23 84 21 30 30 35 37 8 12 12 20 13 5 25 9 -9 1 11 10 5 34 77 48 106 118 61 62 71 26 34 36 51 79 89 99 100 106 94
82 69 68 60 43 52 35 26 24 35 65 99 96 109 47 42 66 45 65 69 62 33 17 25 15 -9 13 5 13 4 5 -7 -4 17 -7 -7 -29 52 56 82 91 89 78 83 114 129 126 126 87 71 69 74 85 102
67 59 59 49 55 55 41 30 36 65 97 61 94 38 104 46 50 58 63 75 49 27 15 14 6 8 13 22 1 1 7 6 -11 10 10 9 2 52 72 69 80 95 93 101 112 105 102 114 117 132 127 115 98 75
62 67 66 70 73 66 56 36 31 36 45 75 105 73 89 53 59 89 76 81 48 17 20 51 51 46 12 34 11 8 3 16 13 7 -2 -3 56 68 65 69 93 78 75 95 116 121 126 127 126 90 82 74 72 77
63 82 83 81 75 56 38 33 29 52 30 95 75 60 109 84 87 61 43 49 74 58 43 26 38 33 48 30 11 19 13 17 31 17 -14 27 99 117 108 80 68 81 111 110 98 84 78 82 93 97 91 76 78 97
63 66 70 71 63 42 20 34 63 79 58 103 105 72 124 90 132 107 90 96 78 44 52 13 33 38 16 -2 -5 8 25 34 22 -4 22 97 117 123 106 96 85 82 79 76 73 77 71 65 81 97 95 105 107 105
64 96 75 52 47 24 37 101 152 86 71 104 58 97 162 103 69 92 57 53 51 20 4 17 23 26 15 19 11 30 27 13 -10 39 106 129 136 119 105 93 75 61 68 81 83 83 87 81 75 96 93 101 95 100
66 93 48 43 32 51 38 117 97 99 68 92 86 91 193 135 72 60 48 52 31 27 43 31 29 32 16 6 1 10 1 33 82 91 104 123 103 107 83 72 71 81 93 94 88 84 80 72 64 45 54 72 49 79
82 49 46 45 88 113 156 120 151 117 92 85 132 99 100 153 92 64 55 46 31 24 42 32 20 27 14 5 8 29 64 110 117 123 126 128 105 71 67 81 80 92 95 92 86 70 53 30 18 40 66 77 48 52
55 43 65 75 128 113 120 143 108 98 86 84 75 74 104 103 110 68 45 64 44 46 42 28 17 22 31 32 42 87 93 87 106 115 111 81 71 78 86 90 88 91 90 64 40 52 83 98 112 133 131 135 144 148
41 31 23 41 79 56 167 128 94 127 76 80 84 63 73 63 68 69 67 61 51 52 48 38 41 36 45 28 60 83 91 120 96 96 77 69 70 81 88 66 72 93 76 87 83 94 102 94 111 144 165 141 131 143
58 51 23 71 28 88 144 111 83 74 72 69 62 74 78 56 62 57 50 67 73 63 55 56 59 50 68 85 79 71 69 44 49 51 67 76 77 97 91 101 96 84 82 95 100 144 117 109 149 201 175 147 138 131
74 52 98 63 101 102 120 106 60 30 36 28 64 51 43 43 75 79 59 75 68 76 78 52 49 41 53 59 62 110 128 163 171 165 142 110 87 88 82 78 78 100 97 113 123 149 168 210 216 196 167 155 125 95
68 83 63 138 108 94 80 87 63 48 25 16 49 54 70 86 99 98 88 87 92 75 88 96 60 65 105 128 131 115 119 121 111 103 89 127 146 135 113 108 112 120 115 153 176 152 200 168 178 159 131 107 110 104
284 148 93 75 64 41 64 86 92 111 113 48 18 25 48 70 55 93 72 51 67 76 101 95 127 116 123 109 119 129 134 132 121 125 122 115 119 115 117 136 135 144 150 169 172 177 170 158 154 118 115 104 100 98
26 56 66 32 21 30 26 75 127 124 102 93 44 53 52 67 72 63 57 26 49 65 107 104 102 106 104 131 153 166 144 108 108 133 124 137 149 119 124 133 135 146 129 134 166 189 170 145 141 135 126 114 99 102
-8 35 25 12 81 36 32 78 95 106 83 93 76 98 89 44 -6 -17 20 7 29 74 91 106 119 116 142 137 129 149 142 126 135 140 129 124 120 109 132 140 155 215 170 150 145 159 149 157 142 122 107 99 120 101
-1 12 123 189 185 154 148 135 97 96 56 22 45 35 21 -24 -48 -3 42 72 68 125 127 123 128 157 184 225 252 228 186 171 156 154 145 149 145 156 170 179 217 201 173 157 139 136 139 129 121 115 107 99 101 102
34 46 33 74 114 171 151 120 71 37 46 56 -1 3 -12 28 35 61 77 125 106 175 219 254 270 307 260 212 176 157 163 164 163 148 144 143 137 141 151 160 160 165 148 139 127 112 112 116 111 104 104 106 100 96
34 47 72 90 77 57 69 69 43 49 87 141 54 49 53 81 82 42 104 165 196 244 279 289 262 224 209 172 151 134 114 110 129 147 127 137 120 144 131 132 139 131 114 110 113 106 106 104 98 102 95 96 89 85
33 67 53 49 42 19 23 73 21 28 93 93 91 51 52 57 124 175 106 96 116 135 151 152 158 153 161 165 183 182 160 145 159 131 119 148 177 148 132 129 129 121 102 110 106 96 94 108 94 97 108 119 130 145
52 48 34 32 16 9 3 10 20 56 98 102 63 29 25 59 110 202 310 226 203 156 138 131 139 137 148 141 133 138 142 126 132 147 155 158 151 152 136 127 117 104 106 104 104 112 115 110 114 117 123 133 138 155
52 19 -1 1 1 7 29 22 36 38 37 44 52 50 29 71 110 125 172 213 120 130 147 161 188 214 198 194 174 175 178 124 114 120 139 141 145 129 120 112 104 107 104 96 102 105 116 118 127 130 131 119 134 134
34 25 10 7 8 8 26 25 28 29 32 40 71 101 131 128 100 130 180 284 168 175 214 213 178 164 164 159 150 148 144 134 143 159 175 171 149 120 107 114 102 102 100 99 97 111 122 142 124 117 113 131 135 142

GFSWCAN_con_3kmhel_105.txt.gz
Helicity
32 37 12 27 10 21 29 28 28 37 42 54 46 42 48 58 86 111 73 67 61 59 60 71 73 62 40 56 60 17 42 50 93 84 29 54 70 73 56 10 28 17 52 41 28 22 26 140 44 69 40 49 60 50
45 47 -7 -9 -14 0 18 31 33 41 47 46 37 38 54 60 79 102 62 40 30 40 22 24 17 24 11 31 28 15 31 45 51 64 59 34 82 97 106 44 40 39 30 35 43 28 27 28 19 30 50 48 57 36
36 25 12 13 17 1 5 26 36 33 38 31 45 39 41 50 56 93 58 30 36 37 27 29 17 8 20 13 28 27 12 21 37 -6 22 36 53 85 111 47 9 12 -1 18 10 28 46 39 41 42 31 36 30 32
13 -4 17 0 30 25 22 17 27 30 26 24 37 39 43 42 50 56 45 19 28 23 57 45 -6 4 9 34 37 28 11 5 1 21 32 47 57 40 75 54 22 26 35 22 23 35 38 40 44 43 55 53 39 45
45 20 27 44 27 19 25 20 12 15 27 28 26 37 30 37 46 40 27 9 17 27 30 17 -9 -16 8 51 17 28 20 7 17 25 24 42 65 64 43 32 35 35 18 20 27 34 37 32 30 19 42 45 55 90
56 46 47 51 59 51 32 27 18 14 17 20 28 33 35 37 36 64 36 13 31 9 4 23 -22 -10 15 20 28 32 22 20 23 18 13 27 32 44 71 44 14 8 21 13 14 24 38 -2 -14 -36 24 41 61 82
58 41 31 41 42 35 25 30 38 27 17 14 40 37 36 35 33 85 53 37 23 -7 0 7 -9 15 34 39 19 44 43 40 25 14 8 27 68 37 38 47 20 22 26 33 22 4 4 -11 21 45 32 21 102 118
81 83 75 56 47 41 29 43 39 29 23 30 55 49 35 35 38 36 26 38 70 6 0 16 33 13 17 27 6 10 17 17 8 -3 17 40 55 33 34 31 33 39 33 29 33 46 67 88 153 154 152 181 227 166
65 61 62 62 63 52 48 46 41 26 28 49 57 45 63 61 41 35 -8 6 5 24 14 4 17 23 -13 -6 -1 7 6 5 -14 -6 1 31 30 52 64 51 88 67 62 34 42 56 88 115 127 123 117 127 132 112
69 39 40 49 48 43 50 48 33 19 34 56 84 66 57 36 21 48 45 50 40 28 9 2 6 13 14 5 0 17 5 -16 -13 -23 0 25 33 41 60 112 119 115 107 116 69 104 112 128 105 74 61 71 90 103
85 63 55 52 47 40 44 48 32 31 56 114 75 93 83 2 60 54 46 50 50 19 10 4 48 37 14 9 2 6 4 -15 -9 -10 8 -13 29 41 113 141 154 159 108 96 155 168 175 151 114 107 106 114 105 93
80 66 45 57 41 36 30 35 35 112 105 49 42 51 43 52 73 59 49 55 30 19 0 40 14 23 30 18 32 -16 8 2 -15 -2 7 -14 22 97 126 122 124 121 140 152 139 160 185 200 184 151 107 82 71 67
120 78 68 51 51 43 37 29 0 44 47 54 44 47 79 50 48 72 53 44 22 7 20 39 41 33 28 11 8 1 7 -13 11 18 28 8 72 89 126 142 131 130 134 146 139 124 118 120 88 80 74 63 68 76
53 73 61 61 63 49 26 14 9 30 80 94 133 112 87 67 83 37 30 41 40 52 80 66 63 43 28 22 10 2 10 13 21 17 2 28 109 142 125 92 97 97 94 97 91 80 75 77 79 75 75 70 88 89
58 66 68 64 59 41 29 40 75 62 97 131 124 138 60 48 73 46 71 105 96 78 79 57 53 37 34 34 13 9 20 38 24 2 3 99 139 157 135 94 92 91 73 63 58 59 51 47 61 65 75 87 91 82
60 82 110 57 55 46 48 100 142 98 92 171 116 53 67 86 49 92 71 79 92 70 60 41 32 46 36 16 8 34 33 20 9 9 92 143 149 131 104 93 66 38 61 69 60 53 60 59 60 61 70 69 60 66
129 199 49 55 85 105 107 160 126 111 90 111 87 29 127 80 63 67 33 37 71 60 45 30 26 40 25 22 29 21 4 -2 55 80 106 134 125 100 83 62 50 58 71 69 75 80 62 57 73 62 49 38 59 56
127 90 89 98 130 117 128 132 132 122 34 90 71 49 73 77 74 63 69 63 41 25 55 35 22 42 32 25 23 20 68 97 112 131 131 123 110 86 67 58 47 69 77 79 83 70 52 45 53 61 31 63 58 65
90 91 73 76 88 145 134 117 144 60 -103 -19 60 56 70 96 87 55 54 64 43 34 38 42 25 26 33 33 40 77 81 89 126 116 106 90 65 49 52 51 67 80 84 76 73 66 47 26 56 76 132 163 136 141
31 45 67 25 51 73 87 104 115 95 -57 5 71 80 89 76 76 73 59 63 48 49 34 26 33 22 30 42 50 79 118 130 143 135 107 78 61 61 64 47 48 71 59 55 52 61 65 83 124 171 177 169 156 176
73 57 51 49 -13 90 58 115 113 84 75 51 82 84 80 63 74 76 64 76 73 65 42 49 69 88 80 83 93 97 67 64 73 74 75 57 26 43 57 67 74 67 73 64 90 83 89 140 207 221 204 179 162 138
125 85 65 20 27 97 111 117 70 108 82 49 54 37 44 44 41 49 58 47 43 56 54 74 78 59 72 74 81 91 75 91 99 124 82 68 56 66 67 70 85 75 96 114 148 168 180 181 203 198 187 156 134 135
109 97 63 39 96 99 107 132 81 34 23 12 43 48 52 55 52 60 50 51 52 62 98 105 84 82 148 160 148 131 134 188 168 127 92 91 104 118 135 146 148 143 196 205 197 189 180 178 169 157 132 128 132 125
59 79 83 102 72 46 78 97 95 73 83 45 29 30 32 49 41 54 45 47 78 89 161 154 205 219 174 151 140 129 169 187 203 193 135 135 158 160 166 163 148 154 183 184 179 183 191 184 163 174 167 165 146 136
40 34 43 41 33 39 56 79 89 69 29 43 60 69 44 28 33 61 46 48 82 138 158 186 168 135 132 153 216 237 201 200 196 198 145 156 175 167 154 154 162 157 162 195 182 185 190 199 191 176 150 146 137 125
-8 9 6 -6 13 35 34 48 52 77 90 75 52 78 64 32 21 15 67 83 111 135 165 154 142 130 179 219 213 235 204 200 218 220 202 178 152 117 119 152 203 173 161 162 168 187 207 192 175 166 145 126 120 121
-2 -11 14 23 65 96 81 52 59 94 91 88 89 103 58 36 16 73 113 140 74 98 136 137 119 177 264 287 284 277 274 226 213 207 184 185 170 166 179 203 227 181 184 184 190 177 182 173 162 144 127 119 126 124
-45 -15 -10 104 210 230 167 182 129 91 102 93 69 64 60 84 99 133 102 114 182 236 270 284 304 355 301 255 255 276 296 275 250 213 194 167 135 138 158 177 184 185 161 154 149 149 145 142 132 127 122 115 113 122
34 71 108 125 144 143 183 190 157 137 151 146 95 74 78 124 130 104 92 172 197 232 273 297 295 286 278 253 232 215 190 158 159 159 151 147 127 123 127 140 154 147 136 118 95 105 111 112 111 117 122 143 140 149
59 69 66 76 61 43 47 71 70 77 92 102 96 100 99 77 143 237 126 124 176 197 209 221 211 210 212 234 266 282 256 199 146 103 141 158 121 105 138 146 133 126 128 131 122 112 134 121 122 145 169 166 146 138
86 74 51 65 41 28 24 35 47 87 120 104 98 39 27 34 111 170 197 120 161 169 175 177 186 184 194 191 190 194 193 169 161 169 183 188 183 173 161 142 129 126 125 115 109 122 123 124 139 142 136 137 147 134
93 47 31 28 30 50 41 43 26 40 41 38 25 28 45 98 104 127 205 231 138 137 150 190 216 207 193 206 189 144 141 147 165 146 154 148 151 139 124 118 116 112 108 107 122 126 146 156 134 131 136 134 118 129
94 86 54 23 13 8 11 1 2 10 24 11 25 5 76 85 71 110 173 216 165 229 219 214 213 206 199 190 185 188 181 153 153 168 184 186 171 160 138 129 118 113 115 131 148 161 161 157 147 142 123 119 122 125

GFSWCAN_con_3kmhel_111.txt.gz
Helicity
38 46 55 59 56 52 44 56 39 71 89 94 99 135 146 137 110 120 160 187 121 106 121 114 75 60 53 55 61 39 66 63 88 102 75 58 60 55 34 45 58 87 125 140 113 110 87 108 34 40 16 9 13 6
40 36 49 55 32 18 53 43 39 51 88 108 102 128 136 128 122 113 138 161 136 115 63 72 64 32 47 29 45 33 55 50 55 70 62 62 83 79 56 53 74 79 39 73 66 36 23 33 47 47 39 44 6 4
25 22 40 52 65 65 64 50 42 59 66 82 97 102 101 117 125 99 117 130 129 124 97 83 72 68 25 14 10 43 6 11 28 20 44 54 76 92 70 40 30 36 44 17 13 19 23 15 24 22 18 28 44 20
15 48 46 43 52 70 54 30 39 58 77 91 92 96 122 128 130 102 117 133 109 107 79 58 70 36 22 17 3 10 15 13 16 20 44 54 59 46 72 34 7 11 30 13 22 15 12 18 20 21 50 44 65 105
15 42 81 64 63 65 52 51 51 55 60 76 112 104 101 111 118 122 113 141 111 63 54 53 58 21 -13 23 1 11 16 10 9 14 36 51 60 66 62 40 26 32 14 8 5 -3 2 -5 -0 10 40 41 37 51
37 9 2 16 39 33 39 58 63 80 94 81 85 84 82 88 98 119 120 108 97 82 96 55 35 26 12 7 12 8 12 8 13 16 7 15 29 58 59 46 35 7 11 -4 -12 8 18 5 -7 18 32 39 44 40
52 33 17 13 21 32 39 44 44 59 69 72 68 73 80 106 124 87 54 78 73 65 71 56 38 -2 10 23 16 17 29 7 15 12 9 18 47 52 61 49 31 1 17 25 15 22 46 36 25 80 85 71 74 67
61 38 5 15 11 29 30 39 48 57 76 67 75 76 88 120 122 99 88 86 52 74 64 39 21 -5 4 12 13 10 21 16 13 14 2 12 40 44 67 27 8 7 19 18 30 54 62 63 100 93 72 64 74 63
6 29 39 32 30 44 34 32 37 36 66 63 67 84 134 137 132 96 67 65 43 45 32 24 39 22 3 14 7 11 15 31 2 12 17 29 45 51 43 22 32 28 13 31 25 22 31 61 80 72 64 67 68 64
26 31 41 60 60 56 42 24 33 36 57 78 120 146 135 124 86 51 82 69 46 33 26 20 9 9 16 15 14 14 17 15 17 5 16 21 16 22 65 87 89 99 108 108 106 73 76 91 70 61 68 66 61 56
22 34 38 38 50 56 57 43 36 61 118 138 145 125 138 89 93 84 56 48 44 38 13 14 -17 16 5 26 9 8 -2 3 7 -0 14 -8 -13 23 50 82 80 81 80 88 92 88 71 71 69 70 74 71 61 60
72 61 52 54 46 39 30 48 73 115 121 103 93 122 125 105 82 63 39 36 25 44 31 17 -2 21 34 29 29 8 15 24 11 6 -7 -33 -0 59 72 54 54 49 52 69 63 84 97 101 83 76 69 72 70 68
75 73 62 58 48 21 36 54 80 23 62 133 179 132 98 71 62 44 29 33 24 18 13 22 41 39 39 37 36 24 27 10 -1 -8 -33 -18 38 64 51 63 65 55 55 63 81 88 83 78 75 78 91 78 83 87
64 61 54 50 42 43 54 61 75 91 96 183 160 129 81 62 39 19 13 39 6 14 7 32 58 47 49 61 40 40 15 14 -1 -16 -18 -1 16 55 62 66 71 59 62 63 58 57 70 78 82 77 81 72 87 78
45 35 35 39 40 45 46 83 97 96 128 187 124 119 89 46 35 20 32 31 28 3 58 60 55 46 61 71 47 43 22 -9 -1 18 8 -8 56 91 91 63 59 53 48 43 42 59 65 74 91 91 83 83 92 98
68 95 103 40 61 74 88 96 140 123 134 150 103 115 105 28 21 19 37 49 49 39 71 52 51 58 56 63 44 19 14 18 24 19 9 61 79 88 73 61 55 40 44 52 54 59 70 81 91 93 91 86 84 93
146 144 33 41 58 101 121 118 141 142 120 148 135 86 47 53 47 37 25 31 59 63 53 52 54 30 53 42 28 -9 1 20 15 8 22 32 83 90 92 70 56 53 60 60 62 63 69 77 93 95 92 96 103 104
167 100 117 127 125 118 127 105 117 130 126 154 130 107 39 15 79 52 31 35 55 44 43 44 25 41 27 8 20 3 24 42 39 23 41 70 104 94 74 67 49 61 64 63 68 73 78 92 94 103 113 108 124 131
127 136 106 96 94 83 89 94 106 105 90 92 74 67 76 61 61 77 52 63 51 47 43 46 29 25 30 18 15 36 27 51 49 68 76 67 89 83 68 70 70 75 77 77 74 68 69 85 104 119 128 158 178 163
86 83 101 112 81 70 74 75 97 107 59 30 38 5 22 44 76 61 34 50 37 20 30 19 2 18 21 19 4 2 61 90 142 139 107 75 69 79 66 68 64 77 85 82 77 79 84 91 115 135 186 192 189 156
126 86 119 94 84 78 61 58 93 69 41 4 49 12 6 36 46 59 62 51 37 13 8 12 17 21 14 18 32 62 91 110 91 81 75 82 61 73 63 62 85 90 87 80 81 80 97 118 148 191 195 180 174 161
200 132 94 46 32 34 44 57 72 54 57 63 78 55 36 66 53 54 43 51 19 17 21 10 17 20 22 21 28 49 89 108 111 98 128 144 111 94 72 70 87 79 76 75 80 88 118 167 192 203 206 188 175 173
127 109 87 31 17 46 39 69 75 56 87 85 69 37 103 85 65 69 58 36 33 36 33 30 48 32 40 61 79 82 88 101 88 88 112 126 124 107 101 84 76 89 98 95 108 140 161 190 208 221 212 214 203 198
132 102 35 28 78 99 80 88 64 78 46 59 59 62 85 81 61 37 26 26 34 43 81 82 119 126 115 123 105 92 92 116 117 122 127 143 143 136 124 118 122 127 124 143 155 165 187 211 225 235 223 217 206 201
69 75 65 104 87 64 77 82 74 30 37 69 113 117 94 73 39 22 19 28 50 64 86 122 133 138 145 131 119 119 112 130 141 144 120 131 180 199 202 192 177 153 127 160 153 177 195 219 232 228 225 209 207 191
33 56 31 44 55 44 50 46 27 -4 -2 46 46 39 45 14 -0 -12 12 32 16 27 69 103 120 135 153 142 139 129 127 156 206 204 169 134 159 172 152 151 145 127 125 135 158 187 207 213 229 230 216 198 194 193
-14 15 -3 19 30 38 50 61 47 25 3 -9 -10 12 2 -23 -38 -17 35 40 38 41 56 105 111 123 131 164 205 230 232 226 212 186 192 200 162 112 119 134 125 115 126 148 163 173 188 200 195 189 191 196 171 169
-14 -15 3 13 16 41 40 58 40 23 48 58 96 32 -57 -48 -16 17 14 35 51 85 163 184 165 160 186 209 232 256 275 265 257 241 261 281 233 189 179 187 167 157 146 151 155 164 170 172 185 180 184 205 213 194
-23 18 48 57 41 22 14 21 56 77 81 97 67 54 36 55 30 24 35 50 61 78 150 180 200 230 276 292 292 253 206 169 172 175 174 175 164 141 129 131 128 131 136 156 148 155 167 167 178 191 191 183 163 165
39 23 23 21 56 47 58 57 52 80 108 102 92 77 72 66 50 61 57 74 76 89 118 151 171 196 217 240 225 223 183 126 106 130 148 127 96 79 96 124 132 133 142 165 177 182 199 184 176 174 183 183 166 155
117 192 197 160 137 120 135 133 94 98 118 134 138 98 71 67 88 120 133 122 124 120 129 150 171 169 210 209 206 205 182 155 141 132 129 142 125 101 100 108 112 124 140 151 159 174 180 179 166 166 167 152 132 127
114 118 130 124 96 89 95 86 60 45 42 59 75 109 128 127 102 92 141 136 137 121 105 126 138 147 177 204 184 146 146 138 145 143 158 145 125 113 116 113 122 134 148 160 163 169 174 176 159 146 131 121 109 105
161 167 137 80 49 40 58 65 48 24 37 18 25 43 69 50 18 44 70 122 59 91 127 150 180 204 217 205 180 177 186 179 167 164 162 146 130 124 119 121 128 136 153 163 160 157 163 156 132 119 109 101 91 86

GFSWCAN_con_3kmhel_114.txt.gz
Helicity
17 39 46 58 61 87 115 97 73 106 140 147 162 164 121 151 141 158 202 199 129 110 169 146 107 76 77 54 59 36 68 74 100 124 124 120 118 91 61 57 62 32 39 70 92 167 168 113 64 44 36 36 23 17
49 57 50 54 54 68 80 78 97 88 97 157 144 142 136 129 137 165 195 213 187 135 128 141 120 77 56 23 45 45 69 84 76 106 92 88 93 63 66 61 46 47 38 73 83 70 38 59 80 70 47 36 11 6
58 59 33 31 70 74 72 48 50 68 97 122 124 146 138 131 107 105 180 197 192 177 178 132 112 83 34 25 16 62 51 39 42 33 58 60 70 53 69 32 6 3 50 50 21 14 26 37 54 43 43 34 24 18
48 36 25 8 24 68 57 23 50 83 107 118 131 164 154 133 134 140 177 188 150 163 103 113 99 90 43 7 37 49 30 17 15 17 47 56 53 52 68 60 22 -2 -0 19 38 17 25 31 30 31 41 39 54 76
50 67 35 51 58 44 38 42 51 85 110 118 132 151 130 102 123 166 194 204 148 81 87 92 86 88 14 26 43 31 19 9 17 33 38 45 41 63 57 41 34 27 16 -1 -1 13 23 31 34 26 32 29 24 30
35 35 53 58 50 55 50 45 68 86 95 99 107 111 130 146 149 155 154 158 167 152 157 90 74 61 29 37 46 17 6 -0 3 17 24 19 13 62 66 48 41 43 24 5 13 27 39 47 27 22 34 27 32 38
38 55 61 66 74 61 54 46 48 57 75 90 102 120 133 127 119 109 75 111 141 120 96 99 72 38 34 31 25 12 14 7 17 28 40 35 25 30 66 63 37 31 27 43 39 45 58 28 17 46 61 54 57 58
31 60 73 57 53 60 61 54 63 60 80 105 109 137 151 108 107 125 167 135 130 85 91 53 52 41 25 17 16 14 14 16 16 22 24 35 28 32 64 45 21 20 37 35 41 52 44 67 79 59 50 42 54 51
28 26 29 46 45 40 41 58 65 78 79 86 103 132 167 183 147 109 106 100 88 65 55 49 52 41 10 13 11 13 20 26 6 38 32 40 35 19 -10 11 16 17 22 32 51 51 42 55 57 50 51 49 54 50
22 17 10 5 17 22 36 53 55 66 74 108 173 193 173 151 103 97 122 93 97 85 61 67 42 45 12 10 12 15 17 23 31 16 29 28 10 -42 5 51 62 64 85 105 93 44 57 54 51 51 54 44 42 36
31 37 38 20 13 18 23 40 67 83 132 180 174 151 153 101 112 102 92 97 91 84 64 56 34 40 13 26 19 7 12 9 20 7 22 3 -11 -9 63 106 97 95 97 87 72 81 64 63 55 47 47 49 46 46
38 48 53 39 33 23 27 52 88 112 131 108 98 140 117 108 91 60 87 86 75 58 65 50 20 34 25 19 19 7 18 18 7 17 13 2 -14 46 83 84 81 58 49 73 68 81 91 89 64 60 55 60 65 73
43 42 26 34 30 16 32 42 45 21 92 163 186 128 91 76 72 61 70 83 59 38 21 30 49 27 29 19 23 23 29 12 23 15 -10 -17 10 56 87 79 65 57 57 65 82 85 78 68 61 60 81 75 82 87
39 33 41 45 31 38 56 48 69 104 147 164 131 112 95 65 57 73 101 99 54 51 18 41 64 29 28 34 33 45 24 29 23 -3 -27 -0 39 58 70 74 84 61 60 65 61 54 58 62 70 70 83 80 91 83
54 48 51 52 54 70 59 82 86 80 159 142 119 98 84 60 97 110 100 91 54 5 23 55 53 29 38 65 50 41 38 17 -11 -16 12 -4 55 78 86 76 70 54 54 36 33 46 54 56 71 68 53 63 78 88
55 103 96 55 66 72 71 112 124 111 170 151 97 96 111 86 96 97 103 103 35 -2 45 43 33 34 39 57 62 48 32 -1 -1 9 16 44 67 71 82 64 58 49 35 41 44 55 58 66 69 62 62 68 82 98
132 169 57 83 100 122 113 118 144 135 138 145 132 85 84 77 76 90 79 51 50 38 32 38 38 32 47 55 48 25 7 4 13 18 22 27 56 79 103 96 64 54 55 59 63 62 69 67 76 84 88 84 99 112
145 83 98 97 108 107 128 142 158 132 141 146 132 104 74 70 85 50 47 44 58 38 40 37 42 61 37 35 33 19 12 23 41 34 28 53 84 116 106 82 55 57 66 65 71 79 84 87 87 86 94 99 108 128
67 55 63 52 44 83 113 119 146 118 159 142 112 94 68 64 56 54 49 40 77 59 46 58 60 33 28 24 26 21 25 25 30 50 63 86 105 111 99 79 73 72 74 76 79 77 78 85 87 89 96 116 137 152
65 64 75 65 58 77 105 87 104 110 103 96 68 70 62 29 42 57 51 54 61 66 50 28 12 15 22 19 1 -4 16 60 101 123 107 98 83 109 94 83 67 75 90 95 101 103 105 96 94 99 126 147 167 155
138 107 130 67 49 54 52 59 84 70 71 51 20 28 72 75 33 61 40 51 29 14 19 18 19 15 13 12 9 29 57 72 61 69 78 84 59 97 105 97 102 106 103 101 103 102 110 108 109 130 152 161 169 160
173 110 93 84 41 32 28 23 66 43 56 47 2 -20 25 46 -22 40 57 50 21 16 -5 5 17 33 17 -7 11 28 57 76 86 91 126 163 140 114 111 114 126 110 111 103 104 107 104 117 138 156 168 167 170 183
154 124 96 71 44 29 37 28 47 45 52 34 36 -0 37 60 3 62 75 45 40 47 38 39 49 62 44 31 49 58 63 80 91 93 108 137 158 138 121 112 119 125 115 103 102 117 134 141 156 174 177 192 192 187
113 112 65 40 64 98 54 57 64 54 70 91 65 26 45 60 67 76 45 47 40 31 41 63 107 103 87 77 68 63 85 103 115 122 121 153 175 159 128 123 125 130 125 140 150 154 154 161 167 187 195 193 203 203
83 95 81 96 97 95 84 93 82 82 77 91 89 47 42 76 69 31 24 38 46 39 40 56 89 94 75 85 97 114 112 115 115 120 115 158 194 199 198 197 187 162 126 142 133 135 141 156 181 193 192 206 216 204
68 85 79 69 80 56 40 72 40 37 56 100 87 96 103 98 77 35 43 44 27 29 17 45 67 67 84 93 116 122 119 148 191 193 148 125 148 164 157 157 156 130 105 104 127 136 144 158 179 201 213 204 199 194
63 55 67 48 42 26 31 48 46 34 28 32 32 56 83 71 51 36 28 28 25 34 42 35 54 64 98 129 170 192 211 215 207 201 207 203 178 152 145 146 134 110 108 115 118 128 148 161 181 190 200 191 183 164
-20 -14 2 9 10 28 31 48 41 14 24 25 37 35 -8 -17 8 3 4 25 32 46 93 128 127 123 144 162 175 217 271 276 275 251 268 296 249 212 197 194 183 163 135 129 135 147 153 155 168 170 180 181 166 155
-42 -10 6 3 16 7 17 26 45 49 50 42 24 26 25 54 32 34 28 32 31 45 95 114 138 164 208 214 213 223 222 200 195 178 173 176 168 171 165 159 144 133 127 137 145 149 152 148 155 172 168 160 134 136
-20 -47 -11 -4 21 27 48 40 38 40 66 72 73 82 88 61 24 39 40 42 23 33 59 91 104 128 149 173 186 212 209 182 147 141 148 131 104 118 101 101 104 99 102 132 153 179 193 177 162 151 155 158 146 137
48 125 146 128 142 123 119 99 104 106 103 91 105 93 59 46 74 88 90 83 83 113 126 138 164 166 187 178 172 184 183 167 151 136 135 162 146 106 86 87 84 91 112 129 140 154 169 164 153 159 160 146 119 108
113 108 120 128 145 139 128 106 96 91 87 94 98 121 120 106 46 58 136 142 144 144 134 138 166 174 183 209 212 180 170 163 146 141 152 143 118 92 88 89 97 118 139 154 158 163 170 163 153 139 123 105 93 92
123 131 123 93 85 69 64 58 40 50 65 57 44 48 54 49 35 70 84 111 112 141 150 170 193 205 216 221 208 209 213 196 188 187 176 138 111 100 96 101 115 129 147 145 146 143 145 144 126 109 97 89 82 78

GFSWCAN_con_3kmhel_117.txt.gz
Helicity
12 2 56 85 79 92 123 190 240 258 211 164 109 66 27 -7 67 144 169 222 132 209 268 164 134 107 117 91 72 51 67 64 77 101 114 134 154 143 133 98 86 75 34 39 45 100 112 175 89 72 53 48 23 21
5 -11 12 36 67 87 164 156 260 217 123 60 23 -14 19 89 101 124 194 289 257 253 225 221 184 127 80 45 63 60 46 60 60 96 85 109 133 114 108 104 61 73 50 25 72 77 86 95 116 101 43 41 25 19
6 15 29 54 56 144 135 96 101 129 100 95 127 147 118 80 98 138 219 284 272 306 319 231 192 139 97 80 43 57 47 46 56 35 58 74 100 68 108 44 12 25 8 27 29 55 36 55 67 86 71 57 37 22
31 61 36 46 34 64 79 124 100 82 113 124 105 87 105 117 156 217 262 258 207 224 198 189 137 130 77 67 80 61 41 46 26 13 31 44 58 30 62 44 53 33 8 4 43 40 33 51 45 40 48 44 48 49
18 30 71 55 53 106 76 135 102 116 133 108 107 113 125 150 172 248 278 304 196 84 156 154 151 157 80 62 76 58 40 20 11 24 43 50 35 36 42 43 52 35 11 6 19 38 39 38 28 26 29 28 18 16
35 27 36 32 49 44 53 53 81 106 113 135 142 166 209 161 150 182 230 221 257 238 248 168 130 85 59 57 58 50 29 23 9 20 29 15 16 36 48 48 55 46 31 25 14 34 55 49 42 26 32 21 19 24
53 51 29 6 46 37 54 80 98 118 128 144 172 143 108 115 109 129 122 153 198 155 158 141 97 79 36 29 30 23 17 7 7 22 26 32 30 27 32 46 53 45 39 48 54 71 57 18 17 26 33 30 36 35
52 50 40 23 42 39 54 65 93 112 120 118 104 115 108 115 144 266 345 197 150 113 115 67 77 65 36 15 24 7 5 -3 12 20 29 38 31 37 42 41 38 45 33 34 26 36 46 59 55 41 29 16 24 24
57 70 71 97 66 57 52 75 84 87 113 121 122 142 180 195 157 176 227 188 116 69 58 56 60 27 9 13 3 -2 -4 24 6 33 44 38 43 34 23 26 4 16 30 54 71 73 54 49 39 30 29 27 33 35
61 57 69 56 74 71 63 65 68 62 121 189 203 196 176 151 136 146 158 123 96 86 69 87 67 51 3 -6 7 12 5 22 35 25 21 19 20 2 -12 5 23 27 58 63 68 38 37 39 45 44 40 39 38 36
11 32 42 32 36 38 50 59 74 116 163 177 150 171 162 164 154 138 127 107 96 72 83 81 58 48 3 14 25 -0 14 6 32 16 11 9 -0 -9 35 80 68 75 82 71 54 28 32 44 60 56 49 49 49 44
12 14 16 22 24 31 50 58 89 106 134 97 110 159 160 142 116 88 118 92 84 59 84 63 53 46 26 11 15 -2 13 -2 22 12 3 -1 -17 32 92 101 101 88 71 75 63 72 71 75 54 51 50 50 49 53
38 28 24 16 19 46 67 62 68 59 123 177 184 146 121 92 100 94 73 67 47 53 62 52 66 29 11 4 17 7 19 14 17 11 -5 -24 -0 46 79 90 89 68 62 68 81 90 87 76 57 51 61 45 58 57
18 21 27 31 37 43 60 115 121 135 120 157 133 107 105 118 87 79 101 79 76 58 53 56 54 15 6 21 11 32 6 18 22 3 -10 -13 27 60 64 75 93 77 76 81 78 66 63 61 62 57 63 50 55 52
40 41 29 37 45 47 65 94 107 125 128 142 125 114 97 88 123 129 117 101 87 19 49 58 49 18 34 26 23 21 16 13 -2 6 -4 -5 53 87 96 92 86 72 61 64 41 51 56 57 72 70 43 42 55 67
89 83 42 36 31 47 62 76 121 140 123 118 95 83 112 108 118 125 122 95 38 16 47 49 36 29 30 28 23 12 14 -2 -0 -8 12 16 54 73 104 86 62 62 56 55 55 65 70 58 48 56 52 46 50 61
114 99 35 38 45 56 86 89 127 143 93 97 98 101 106 88 119 123 109 66 -0 13 46 35 38 32 23 25 13 9 12 10 7 19 20 2 49 79 108 110 88 65 64 67 70 64 62 59 72 72 66 57 57 66
106 36 26 37 53 77 136 148 135 117 118 133 96 109 99 101 96 116 84 57 36 21 31 41 30 36 30 22 10 7 19 24 37 36 22 37 71 96 106 110 77 67 70 71 72 72 73 70 71 69 77 78 79 85
38 42 48 55 51 70 128 160 149 138 137 130 98 86 82 83 69 85 79 55 44 37 33 38 39 36 18 12 20 16 20 12 21 34 51 61 86 113 115 113 97 91 90 82 73 68 72 70 85 86 90 92 102 119
96 97 69 56 51 75 106 127 159 136 127 121 101 94 87 82 67 50 34 39 66 56 35 35 32 22 21 11 6 6 12 35 58 76 78 85 92 112 108 111 99 101 99 92 90 91 92 93 82 83 96 103 119 138
121 92 58 31 36 44 58 83 100 89 89 96 83 86 109 104 85 48 16 30 29 14 13 15 26 13 4 13 16 23 18 31 26 35 51 81 77 101 113 111 116 112 111 103 105 102 99 104 110 114 121 132 142 146
68 43 27 24 15 24 42 41 72 56 84 71 43 57 72 84 76 53 27 26 -9 6 13 13 19 18 13 2 -4 11 21 42 48 60 102 165 131 120 120 116 124 115 108 105 102 105 107 111 120 131 138 142 143 155
62 55 38 14 46 61 56 23 75 83 95 76 79 61 39 56 61 25 45 29 25 27 36 26 27 48 53 34 35 49 40 42 55 61 78 104 124 126 130 118 111 121 121 111 110 118 126 138 144 146 141 140 141 156
81 66 42 41 56 63 37 59 48 57 65 63 79 76 29 40 63 44 51 60 72 57 51 50 77 96 67 53 45 42 52 63 87 92 93 130 134 119 123 134 128 125 125 150 152 157 150 145 139 144 137 145 153 168
63 53 37 42 44 43 48 53 56 59 66 59 72 55 34 56 75 67 54 60 58 47 46 38 50 52 43 54 63 74 79 86 95 92 82 124 183 187 180 170 163 154 139 166 152 150 145 134 137 138 140 145 162 171
70 47 49 37 49 44 26 44 52 43 51 65 73 91 73 65 88 72 57 51 45 42 47 37 37 46 48 53 77 82 95 112 142 140 113 112 137 154 138 141 151 148 129 137 152 141 132 125 123 133 147 162 165 164
52 29 35 55 39 26 35 30 40 39 49 52 68 72 71 97 102 85 76 43 31 26 27 33 40 39 41 76 120 141 155 159 153 164 180 184 179 155 142 136 134 148 141 132 114 109 114 111 121 136 154 161 170 161
32 34 17 35 33 34 31 36 38 40 39 26 33 41 47 67 82 43 23 13 20 22 41 76 88 80 87 98 120 162 205 225 247 254 278 276 230 208 192 190 202 190 155 129 124 121 117 116 125 147 164 166 147 133
10 10 27 2 23 5 -1 5 34 46 44 25 19 31 28 24 11 11 26 33 30 34 60 74 109 141 178 177 169 168 174 165 176 180 186 185 179 185 181 178 168 153 138 154 161 142 147 147 150 156 155 148 134 123
11 -19 -8 7 13 -8 -19 -6 33 42 57 55 44 45 53 52 50 44 41 45 51 52 63 66 81 105 128 152 162 178 173 154 143 125 126 126 118 136 129 135 126 105 106 124 142 165 175 159 145 124 131 126 112 100
12 13 7 5 -10 -18 11 18 46 50 58 65 84 52 49 53 68 80 93 93 85 101 120 119 113 114 145 141 143 159 153 147 135 129 147 181 177 137 112 96 81 74 88 106 107 110 124 119 123 129 133 129 113 97
11 27 20 28 40 64 86 99 92 72 69 62 66 103 104 100 76 74 132 143 146 147 140 139 145 137 146 188 205 184 175 163 146 148 176 170 143 114 94 81 76 88 107 117 117 124 130 135 127 126 121 114 91 79
74 75 72 58 54 59 62 58 41 46 71 69 63 74 85 77 61 110 115 133 130 135 145 154 173 203 221 229 226 231 237 217 203 200 189 156 119 94 80 78 90 108 127 123 124 121 130 139 130 117 104 88 72 66

GFSWCAN_con_3kmhel_120.txt.gz
Helicity
38 21 34 26 83 181 148 304 646 669 683 708 706 631 598 416 347 331 448 159 221 392 335 128 129 164 150 94 112 109 122 91 82 66 76 102 114 158 164 156 134 122 106 93 55 47 60 142 133 157 93 89 75 68
30 65 50 24 12 112 210 202 290 587 668 617 645 584 472 327 154 111 254 24 61 300 175 193 228 207 163 124 100 130 102 111 79 83 81 103 125 128 116 173 87 130 87 88 77 98 99 140 196 124 84 78 82 64
-6 42 70 59 69 33 56 222 301 266 368 479 456 370 192 81 58 130 220 129 397 374 326 252 259 225 181 149 122 99 84 77 72 79 87 92 99 65 100 132 109 39 37 53 30 50 74 98 111 111 87 76 66 50
36 29 30 91 125 155 144 195 271 253 220 169 108 56 70 133 165 155 230 223 252 335 340 241 205 207 196 88 75 78 84 84 67 55 52 49 57 41 73 79 63 46 33 55 69 62 44 52 66 69 73 61 51 44
40 27 49 126 78 63 147 140 145 84 39 41 47 61 102 128 150 274 309 306 324 154 272 213 149 195 142 107 110 96 68 47 38 41 45 53 42 41 41 40 42 20 25 35 52 26 57 39 39 31 39 36 26 26
38 19 23 59 116 56 80 70 80 94 114 137 127 139 173 203 198 192 294 225 220 307 359 228 190 147 114 86 101 98 72 54 30 33 38 33 35 34 38 22 23 33 54 42 32 43 60 69 40 18 24 24 26 24
31 23 31 54 58 96 106 109 116 138 132 136 150 129 106 100 156 138 125 126 220 269 285 220 151 115 90 81 90 69 59 42 34 21 13 25 28 14 22 27 33 36 59 52 70 83 74 24 17 20 31 31 25 28
20 13 42 65 118 163 110 105 117 105 118 130 163 204 189 115 148 247 325 206 160 129 144 126 120 92 77 44 47 51 37 33 27 19 22 30 36 31 25 38 40 37 54 37 20 34 46 64 47 31 21 11 17 24
-7 2 32 34 68 77 105 104 85 108 128 160 164 147 164 230 203 254 295 215 115 78 73 96 86 67 36 35 40 37 25 43 12 34 35 33 48 33 39 43 21 21 29 44 51 63 56 51 43 25 18 12 21 21
19 26 36 54 55 70 93 112 128 149 165 159 182 187 200 182 231 247 180 152 133 85 86 121 102 73 15 22 34 20 10 35 44 30 22 23 30 50 36 14 12 14 34 45 38 37 33 34 35 30 28 38 43 38
44 48 46 53 85 91 103 139 193 149 120 154 185 179 171 219 182 147 139 129 122 104 103 122 40 62 58 25 24 2 15 10 37 32 12 24 23 22 24 21 16 24 26 27 35 31 25 32 46 48 48 48 52 52
71 56 52 77 85 83 95 124 174 128 133 123 122 200 181 142 131 97 110 113 112 87 108 60 85 67 54 35 11 -6 6 -2 41 7 6 25 3 7 49 48 51 56 54 58 47 44 48 51 49 51 52 53 53 53
28 39 40 58 77 102 75 79 124 141 197 252 220 166 149 102 92 75 54 76 65 91 94 76 86 70 35 15 2 -6 13 19 4 9 14 -20 4 17 64 84 84 79 65 61 61 59 67 80 68 54 61 50 51 56
16 23 54 63 50 88 122 143 110 166 168 169 144 133 119 103 77 71 66 78 91 68 84 81 95 36 14 8 -3 18 4 -8 10 23 -3 -17 23 43 51 55 74 74 68 66 75 79 81 77 78 70 68 51 59 64
20 34 43 64 87 93 105 119 104 140 143 126 129 118 88 82 102 109 111 89 128 101 106 82 54 35 29 13 4 9 6 14 6 0 -20 -12 29 48 64 74 80 73 69 69 71 70 75 76 80 84 69 63 63 69
42 57 46 53 83 107 113 164 130 114 111 108 93 96 119 97 113 126 121 116 152 136 113 80 44 30 20 12 11 11 25 17 -2 -10 5 1 31 44 79 84 77 68 65 73 65 69 76 76 70 76 71 65 59 51
45 25 22 51 60 82 103 143 163 124 106 124 94 115 130 123 121 129 96 83 123 136 85 58 40 27 14 13 22 0 10 1 12 11 0 8 25 55 90 107 98 90 78 72 84 83 86 85 93 90 81 62 53 55
43 2 24 59 96 128 145 167 135 108 133 125 114 112 108 121 106 103 79 70 100 93 67 41 16 25 26 34 19 14 10 19 27 22 26 34 51 69 84 108 103 82 82 91 93 98 98 96 83 76 81 79 72 73
22 22 46 59 79 129 149 143 128 144 130 112 85 107 124 114 116 98 67 70 67 60 42 36 24 29 23 11 11 7 6 12 18 37 47 54 60 91 112 118 114 100 104 106 99 91 88 77 79 92 98 91 92 104
68 57 51 46 70 119 111 116 135 126 122 118 88 92 89 84 82 100 82 50 56 43 37 33 31 29 11 5 8 19 31 27 28 46 55 63 78 100 101 105 102 114 119 114 107 107 110 101 97 100 102 105 109 121
42 59 56 54 82 87 87 133 123 124 119 129 124 138 131 87 60 52 41 40 31 22 29 24 15 8 19 17 21 28 20 8 16 27 36 66 74 90 104 105 116 115 116 113 113 115 103 107 127 127 130 138 142 140
42 48 32 57 78 90 85 111 100 108 112 96 87 99 119 126 118 66 27 23 21 23 21 22 16 8 9 8 7 16 32 42 48 54 79 101 91 91 94 101 111 113 114 112 113 116 115 137 147 148 147 147 136 145
33 35 38 62 70 91 97 103 120 103 82 71 69 74 66 77 82 66 56 26 24 14 13 9 13 29 42 38 35 47 42 40 42 45 49 57 76 88 96 99 104 116 124 126 127 134 145 154 157 153 153 141 133 135
47 38 56 59 70 76 61 81 80 82 75 80 78 72 63 60 67 60 66 58 28 12 26 29 29 45 47 35 33 44 48 50 55 58 57 74 92 99 101 111 119 126 131 145 140 149 150 162 153 146 139 139 144 146
60 59 48 67 46 57 65 61 71 66 74 69 77 75 64 47 59 61 50 58 60 51 54 46 45 47 41 46 47 57 64 59 59 71 83 89 127 141 145 152 155 153 141 151 151 159 165 154 143 137 139 142 154 166
59 35 41 37 38 43 40 45 39 53 61 65 71 52 36 41 50 53 39 68 55 54 56 53 47 41 37 38 44 55 66 73 80 91 107 108 107 113 124 133 140 148 141 137 143 154 155 142 137 141 152 165 173 168
39 30 13 18 23 17 20 15 19 34 55 62 59 59 54 53 50 70 78 73 51 38 37 37 45 46 36 53 85 102 109 110 113 129 152 167 177 174 148 144 146 159 148 154 146 132 134 133 134 142 159 171 178 169
28 16 21 21 28 27 30 27 29 46 49 37 36 66 72 73 84 84 73 63 48 33 32 46 61 62 64 74 89 112 141 145 163 182 206 223 218 211 204 204 207 215 192 164 152 143 134 134 136 142 158 166 158 148
25 27 36 36 34 24 23 23 38 51 56 47 48 50 61 55 24 25 31 29 21 15 30 49 78 86 101 104 105 103 115 115 115 108 120 143 150 172 177 184 191 184 176 191 196 168 163 154 155 157 167 159 148 136
14 5 6 -1 8 7 11 17 30 48 51 42 29 13 10 10 25 42 35 22 16 26 55 66 70 79 86 91 105 127 135 135 135 105 100 111 127 155 150 152 154 145 127 128 138 149 158 152 148 142 145 135 125 120
3 6 4 4 11 5 14 -1 -20 -25 -14 -20 -17 -6 4 -5 -6 28 49 61 66 68 75 83 92 103 111 107 114 129 137 147 141 130 134 163 171 158 137 122 112 102 99 101 102 106 117 132 135 137 139 139 126 106
-2 6 2 -2 -18 -34 -47 -49 -53 -25 -7 -3 0 25 27 28 21 31 108 132 120 113 121 119 122 128 149 176 187 183 182 165 142 131 149 163 159 137 117 98 89 91 102 112 117 117 127 130 123 123 124 123 111 96
-23 -13 -4 -15 -19 -14 -7 3 22 8 12 29 41 76 85 89 76 104 102 127 145 161 149 169 172 180 195 208 216 215 216 200 192 187 185 168 139 110 88 82 87 100 115 118 121 125 127 130 124 125 122 109 94 79

GFSWCAN_con_3kmhel_123.txt.gz
Helicity
34 45 -9 -17 19 102 264 453 429 362 310 274 264 325 449 456 540 490 759 668 471 389 357 405 439 479 374 184 306 111 154 88 109 75 70 100 119 62 126 132 130 92 145 153 131 155 147 133 112 145 164 127 113 108
1 -3 -9 -4 21 132 375 518 465 420 432 448 488 439 370 384 372 503 793 662 394 529 489 495 405 221 150 11 50 6 112 80 96 86 111 105 108 125 77 131 116 162 173 200 180 181 96 106 193 224 161 131 118 90
-33 -32 -54 19 32 136 281 397 494 573 494 439 393 429 493 466 482 482 467 347 429 497 608 419 239 101 204 152 101 77 136 139 152 232 145 123 95 65 93 122 158 121 94 127 71 93 86 141 213 223 153 123 90 69
13 -34 -10 23 56 157 243 402 428 405 457 390 372 257 295 183 307 343 310 85 225 512 614 360 168 200 151 112 120 111 95 106 106 112 98 95 93 103 105 95 119 100 72 77 107 123 102 107 111 114 121 89 73 62
17 52 77 -11 25 149 210 239 388 519 483 396 434 353 259 130 52 74 117 227 165 123 376 243 145 230 162 111 92 75 80 81 94 111 89 85 67 60 80 80 89 104 95 50 53 86 75 91 77 66 71 61 50 43
9 82 190 50 78 205 214 278 296 439 411 342 202 114 114 122 167 196 331 230 58 343 365 272 179 139 133 120 127 135 141 149 139 96 89 75 65 55 56 79 51 50 68 58 47 131 127 112 71 43 37 30 34 21
64 12 105 122 141 233 251 266 199 153 145 149 141 104 110 97 131 114 140 132 220 218 397 241 162 165 113 115 120 121 115 144 105 72 63 31 43 36 35 60 62 52 73 101 105 114 116 57 40 16 35 29 28 40
45 63 160 144 128 120 112 119 131 152 182 182 105 57 36 25 68 261 356 220 144 135 250 190 131 127 140 101 111 129 96 81 107 66 38 31 28 39 48 61 64 83 90 77 36 30 60 45 55 43 24 20 23 29
29 96 118 109 111 128 156 191 232 200 161 153 181 195 214 214 203 249 246 253 117 96 101 94 97 100 125 102 98 97 106 95 69 55 40 24 47 56 53 56 77 77 42 43 60 62 58 47 49 38 21 21 28 34
49 127 134 111 120 145 138 169 163 178 183 175 176 162 174 200 216 251 186 176 126 118 127 140 111 122 66 96 120 100 91 80 69 62 39 40 66 40 50 60 84 54 65 61 70 48 36 48 45 43 34 35 39 34
61 143 158 163 137 166 126 141 129 127 109 140 159 195 154 240 213 155 126 130 81 97 98 132 53 110 94 82 88 80 63 47 57 50 41 41 47 58 68 79 63 39 46 39 38 34 29 38 45 47 47 52 54 52
59 62 74 89 111 125 111 108 112 123 101 113 130 161 144 135 139 121 147 125 101 99 107 91 89 76 124 108 73 42 45 27 58 26 38 48 64 56 48 52 44 41 52 54 54 57 47 55 54 52 59 61 56 54
55 88 96 107 107 126 118 144 156 139 249 195 186 188 168 118 125 138 124 112 55 99 114 81 100 97 80 67 54 42 35 43 8 33 36 32 36 20 28 46 71 73 76 72 76 66 71 75 79 77 92 79 68 66
89 89 103 119 124 151 172 164 131 149 193 197 212 188 164 125 102 116 85 62 98 80 80 73 137 90 74 64 36 35 31 22 34 34 37 6 22 51 74 101 113 136 147 135 137 141 136 124 127 105 84 77 81 80
55 82 119 148 150 154 165 167 179 118 155 160 170 147 105 85 80 81 93 97 113 113 102 108 94 73 73 42 27 32 37 38 22 31 -11 1 37 62 71 70 76 92 93 91 89 99 105 100 101 108 94 94 95 89
59 108 139 120 117 131 174 142 149 122 151 124 114 61 73 56 97 107 95 199 188 149 140 113 101 70 51 31 35 32 35 38 33 -8 -15 13 31 56 60 69 84 88 86 88 89 100 97 94 95 102 100 96 89 92
60 114 132 138 151 154 132 123 137 100 94 112 83 139 131 116 120 137 107 169 218 141 136 112 85 70 41 34 41 26 38 22 -0 -7 9 14 29 47 69 89 100 98 91 91 99 92 100 100 106 101 100 93 93 104
43 73 104 143 173 155 194 134 89 99 151 158 111 155 135 150 113 119 171 193 155 114 107 87 49 55 42 42 38 26 24 7 16 30 27 26 55 67 73 95 107 105 98 93 97 106 105 99 97 96 105 109 106 109
27 69 102 144 123 157 178 151 165 145 149 133 106 120 128 101 100 79 97 138 141 117 88 69 55 53 48 39 30 25 18 9 22 30 44 52 59 78 99 110 115 105 99 96 98 96 98 87 96 107 116 116 109 124
35 91 130 157 124 134 171 156 170 131 121 112 127 117 104 112 87 73 62 81 94 103 77 64 55 53 35 29 28 20 21 27 35 38 48 59 65 87 90 92 90 100 103 111 107 109 111 108 112 123 130 139 134 141
49 104 124 127 161 121 143 149 146 129 109 81 89 91 98 92 103 98 68 66 80 72 52 60 53 42 32 22 27 29 29 20 27 31 39 55 64 80 91 100 99 89 102 106 108 113 110 112 118 146 157 163 176 178
42 80 80 116 121 102 111 140 123 121 109 114 122 126 117 114 94 85 88 79 63 60 72 62 46 22 15 17 23 34 46 64 69 84 95 83 66 78 87 90 87 94 100 106 107 119 114 152 181 170 167 173 154 156
50 47 68 91 71 77 108 175 112 131 110 100 103 109 100 99 84 70 62 45 32 40 54 44 38 42 31 35 44 47 45 48 52 55 42 48 68 84 93 84 92 100 117 121 137 134 173 198 172 171 166 141 138 134
19 25 51 56 62 69 78 96 88 72 67 80 71 74 80 79 67 67 71 61 31 18 17 8 4 12 25 27 33 48 60 67 64 60 56 59 77 87 92 98 113 120 129 154 177 198 174 175 160 150 153 148 149 147
30 47 40 65 54 59 70 76 84 81 80 76 73 69 64 67 78 70 63 57 45 36 32 36 39 39 42 49 45 54 57 57 59 67 64 77 103 108 126 148 166 192 199 196 183 165 167 152 165 159 150 145 144 157
60 55 57 63 68 76 73 78 81 82 73 74 74 72 65 88 94 83 56 49 53 49 61 80 66 51 53 51 47 53 68 70 71 86 90 97 91 99 116 140 156 167 160 158 157 159 158 161 165 171 171 172 164 152
55 55 39 33 47 51 59 60 59 60 65 63 54 58 79 117 102 52 39 52 49 53 61 67 83 75 55 63 85 96 112 125 124 135 169 199 215 195 138 118 141 175 160 165 160 151 152 155 148 148 155 156 166 176
40 33 50 37 41 40 48 49 49 57 57 57 58 77 109 114 79 63 80 82 73 61 58 61 71 71 69 71 75 87 111 123 139 140 157 186 195 201 219 235 235 228 194 184 177 161 150 144 135 133 150 165 172 168
39 39 39 43 48 43 41 45 52 58 55 48 63 68 65 71 68 75 74 69 58 46 36 36 53 64 73 78 81 81 83 77 79 82 99 126 144 170 173 177 181 183 186 202 221 184 165 154 159 159 163 164 161 154
24 20 25 29 35 42 45 51 43 40 60 72 61 30 13 25 27 32 40 36 22 26 39 46 53 61 74 77 89 115 136 135 150 106 91 108 149 157 152 156 155 146 144 150 148 151 157 157 159 150 148 139 133 136
14 10 6 -5 -8 5 31 41 43 37 30 35 53 31 21 22 -12 13 47 59 49 45 44 53 72 92 103 101 92 113 138 158 163 166 175 177 153 153 151 144 130 122 106 98 96 105 113 126 134 140 145 148 142 130
7 7 1 -3 -21 -39 -41 -30 -22 -15 -16 -25 -29 -9 -17 -21 -19 -11 59 88 70 75 114 122 123 144 176 212 220 222 221 177 157 144 150 149 158 153 140 121 99 89 94 103 108 110 118 126 127 131 132 137 131 120
-4 -15 -12 -20 -28 -24 -21 -10 -8 -11 -22 -7 24 55 55 99 100 91 97 150 191 243 213 246 243 214 216 222 229 234 239 232 224 205 197 176 155 130 104 85 81 90 103 108 115 120 131 136 131 131 127 115 104 96

GFSWCAN_con_3kmhel_126.txt.gz
Helicity
-7 -16 -18 -22 -31 -39 36 39 38 14 12 67 83 80 172 244 294 367 305 236 247 164 108 65 38 129 172 209 319 387 400 287 256 217 125 78 65 70 85 66 86 100 109 95 101 135 169 147 107 155 201 197 208 278
-32 -18 -10 -43 -24 10 33 112 46 273 189 24 25 -1 22 172 319 373 522 308 187 152 267 316 251 179 145 259 413 315 470 233 157 136 58 76 75 132 79 115 123 131 177 182 254 248 155 85 135 197 194 220 229 182
10 8 12 40 16 21 189 159 406 394 397 211 55 125 4 129 239 609 379 248 411 495 548 371 361 387 398 389 229 433 199 35 64 94 127 158 111 96 103 100 173 194 200 181 103 134 99 128 209 245 265 267 213 136
85 56 5 -10 26 165 124 177 406 311 346 441 592 383 227 420 599 432 724 456 613 721 405 363 387 390 395 279 126 33 74 95 90 152 195 159 144 153 132 196 186 143 113 146 176 123 119 149 166 204 222 183 151 102
-1 -10 -17 23 112 78 153 268 254 262 336 406 396 468 440 445 490 651 624 489 427 476 326 361 288 239 160 66 87 89 86 99 89 144 130 107 149 109 204 197 159 145 122 106 110 137 48 146 149 148 145 122 108 96
48 46 43 56 101 180 318 347 341 234 236 263 341 382 362 415 411 615 473 413 344 429 633 488 261 172 92 38 12 36 53 70 93 108 100 164 155 119 96 118 105 125 125 86 117 172 170 162 160 115 90 54 39 42
3 51 34 64 189 261 392 363 347 297 175 182 256 311 421 409 447 355 311 183 -41 206 569 712 447 152 65 107 140 161 160 170 147 165 136 94 65 120 92 62 53 77 103 147 170 191 152 102 89 69 49 41 74 56
42 59 90 178 228 292 310 331 315 321 303 302 209 196 141 76 189 284 315 89 131 167 324 449 365 150 129 124 143 138 136 168 168 130 133 83 74 88 96 96 59 110 111 93 80 70 83 85 66 54 72 47 35 37
123 112 199 277 400 318 278 276 259 240 195 120 89 107 166 189 234 205 219 269 178 89 117 128 198 204 144 118 138 142 138 123 122 106 122 88 76 75 72 100 104 101 72 69 78 74 77 68 73 77 46 22 39 46
207 209 242 246 245 228 246 246 250 230 178 141 150 143 221 172 220 181 179 130 101 119 127 135 163 158 131 131 143 138 137 105 109 116 87 113 109 68 52 100 97 67 73 70 80 76 76 67 50 35 31 34 66 69
166 175 174 175 198 209 170 170 138 186 134 139 142 221 218 230 253 176 160 126 101 161 150 78 72 133 93 110 142 116 107 111 86 78 83 85 82 80 190 156 107 81 47 38 38 52 50 56 67 61 72 89 84 77
155 171 173 174 171 106 98 120 123 116 81 85 118 227 225 190 168 138 141 128 113 120 135 66 115 137 213 135 123 93 99 96 87 66 93 78 88 119 161 130 67 56 72 61 58 69 75 74 80 93 83 87 72 93
131 155 109 144 114 115 108 111 150 203 252 214 215 199 156 113 126 136 134 91 88 113 147 129 136 157 121 122 98 88 76 78 38 63 61 67 91 136 110 75 88 131 122 121 143 136 128 120 109 120 156 150 142 109
150 178 176 151 135 126 123 131 151 250 222 190 142 154 138 126 112 149 132 82 93 80 104 116 154 123 115 111 68 72 64 50 45 43 55 68 88 136 105 150 234 213 224 207 203 229 253 250 236 191 152 120 114 104
122 146 155 168 155 174 163 102 130 100 169 171 143 122 87 102 103 115 107 82 87 107 111 116 130 100 102 71 61 57 42 38 29 43 60 72 101 126 184 208 220 204 204 193 184 204 191 183 169 146 117 102 102 109
157 175 239 214 178 190 177 123 128 120 138 124 105 67 42 62 114 162 147 146 120 110 121 113 131 95 79 51 56 36 31 30 44 43 23 45 92 128 144 122 119 133 133 124 120 140 150 149 126 120 114 113 106 109
115 191 212 204 195 165 174 124 143 137 139 129 121 136 110 98 106 192 204 187 186 152 174 137 105 96 65 56 53 61 46 39 36 26 10 30 65 97 111 99 103 118 117 115 120 128 140 122 130 120 113 107 110 119
96 126 141 160 203 143 155 159 122 100 115 129 90 102 121 147 141 167 218 260 129 142 141 109 62 88 69 56 50 45 47 48 39 23 28 53 84 96 80 86 106 116 124 117 123 134 133 115 101 97 110 105 102 104
95 141 168 184 146 126 145 144 144 93 146 143 137 129 103 120 142 164 180 202 162 122 86 85 78 80 70 61 51 49 36 26 33 41 60 75 73 68 76 88 111 120 119 121 115 105 95 75 79 86 91 92 79 91
74 100 160 175 155 136 123 115 205 125 114 132 139 132 134 107 96 129 142 151 163 118 99 85 70 77 53 47 43 43 48 58 46 56 53 46 56 74 71 85 95 111 109 105 102 108 107 98 102 106 119 103 163 182
77 167 145 114 121 154 121 106 129 131 93 109 133 114 131 131 104 83 83 134 123 109 90 60 38 45 49 46 36 23 15 -0 12 31 42 43 50 70 71 94 115 91 103 103 124 117 112 120 133 189 189 227 245 246
105 144 135 135 110 111 111 127 117 79 88 107 130 106 106 112 104 101 116 93 84 92 92 56 41 25 37 45 39 47 52 60 73 97 100 84 81 73 86 101 82 89 94 98 118 135 113 170 239 200 216 221 226 219
71 83 124 111 76 82 122 180 131 139 101 88 108 97 90 86 89 109 83 62 59 71 100 75 81 80 47 41 40 40 44 50 68 71 50 59 76 73 98 77 82 102 128 113 139 140 183 243 237 222 202 182 170 161
36 42 59 47 48 57 106 109 103 100 93 99 83 80 80 82 78 66 65 61 39 44 49 38 26 22 20 16 39 56 71 82 69 77 77 86 90 89 81 94 110 116 126 161 196 228 225 221 210 185 162 157 174 177
25 46 50 62 63 55 67 75 78 53 62 62 64 65 71 65 69 72 69 68 45 49 60 71 65 54 56 60 48 48 61 63 68 70 62 73 97 115 130 143 170 183 193 214 199 203 216 187 180 185 162 176 170 184
27 39 39 47 60 57 63 70 68 67 59 60 55 52 54 56 73 81 64 65 58 65 85 101 98 71 71 61 49 60 76 83 84 109 122 102 95 105 124 142 161 169 177 179 187 188 174 179 205 243 220 229 197 162
41 45 50 44 41 38 45 53 56 57 62 60 54 62 75 102 101 69 34 66 56 65 72 93 121 102 73 86 118 128 126 145 165 166 170 213 230 176 108 92 107 153 178 171 152 143 167 196 181 160 168 162 167 178
43 41 45 37 40 43 38 46 49 56 54 55 46 69 93 116 96 65 58 59 59 58 58 71 102 103 84 79 75 79 112 153 168 163 180 200 204 218 268 305 299 277 255 236 225 220 199 180 167 145 145 152 161 163
39 35 34 39 39 44 44 48 48 57 60 64 81 84 79 72 58 66 62 66 76 58 53 51 61 59 66 67 64 69 69 73 83 90 116 122 130 156 179 221 241 239 244 279 282 229 204 176 172 170 157 145 150 155
33 27 37 48 50 55 60 67 59 42 45 57 60 49 40 45 49 45 43 50 60 62 70 56 31 32 47 61 79 104 130 129 124 69 97 104 139 156 170 171 170 172 172 180 188 185 176 169 171 149 135 127 131 142
27 20 24 24 27 25 36 22 12 18 30 42 47 48 58 57 49 62 98 107 101 85 51 48 56 62 61 85 82 97 125 149 169 196 247 235 185 169 160 157 156 141 120 104 91 93 100 117 130 141 151 153 139 130
20 15 13 8 -1 6 -2 7 17 22 37 27 15 27 30 26 3 11 57 91 70 74 92 88 81 138 208 232 247 223 228 200 196 185 195 198 197 185 183 159 122 105 101 97 97 102 111 123 128 131 130 134 130 124
5 -3 -2 -6 -17 -16 -22 -13 12 17 46 34 49 81 63 69 72 55 70 124 174 258 249 274 296 250 258 265 275 286 291 286 277 250 226 206 188 163 140 124 104 89 92 99 108 115 132 140 134 134 125 107 101 100